[[{"header":{"parameterUnit":"m.s-1","parameterCategory":1,"la1":30.6,"la2":28.766,"lo1":-90.7593,"lo2":-88.6598,"dy":0.0162,"dx":0.0183,"nx":116,"ny":114,"refTime":"2024-06-13T06:00:00:Z","depth":0,"parameterNumber":2,"parameterNumberName":"U-component_of_WINDS"},"data":[0.0,0.0,0.0,0.0,0.0,0.0,0.0,0.0,0.0,0.0,0.0,0.0,0.0,0.0,0.0,0.0,0.0,0.0,0.0,0.0,0.0,0.0,0.0,0.0,0.0,0.0,0.0,0.0,0.0,0.0,0.0,0.0,0.0,0.0,0.0,0.0,0.0,0.0,0.0,0.0,0.0,0.0,0.0,0.0,0.0,0.0,0.0,0.0,0.0,0.0,0.0,0.0,0.0,0.0,0.0,0.0,0.0,0.0,0.0,0.0,0.0,0.0,0.0,0.0,0.0,0.0,0.0,0.0,0.0,0.0,0.0,0.0,0.0,0.0,0.0,0.0,0.0,0.0,0.0,0.0,0.0,0.0,0.0,0.0,0.0,0.0,0.0,0.0,0.0,0.0,0.0,0.0,0.0,0.0,0.0,0.0,0.0,0.0,0.0,0.0,0.0,0.0,0.0,0.0,0.0,0.0,0.0,0.0,0.0,0.0,0.0,0.0,0.0,0.0,0.0,0.0,0.0,0.0,0.0,0.0,0.0,0.0,0.0,0.0,0.0,0.0,0.0,0.0,0.0,0.0,0.0,0.0,0.0,0.0,0.0,0.0,0.0,0.0,0.0,0.0,0.0,0.0,0.0,0.0,0.0,0.0,0.0,0.0,0.0,0.0,0.0,0.0,0.0,0.0,0.0,0.0,0.0,0.0,0.0,0.0,0.0,0.0,0.0,0.0,0.0,0.0,0.0,0.0,0.0,0.0,0.0,0.0,0.0,0.0,0.0,0.0,0.0,0.0,0.0,0.0,0.0,0.0,0.0,0.0,0.0,0.0,0.0,0.0,0.0,0.0,0.0,0.0,0.0,0.0,0.0,0.0,0.0,0.0,0.0,0.0,0.0,0.0,0.0,0.0,0.0,0.0,0.0,0.0,0.0,0.0,0.0,0.0,0.0,0.0,0.0,0.0,0.0,0.0,0.0,0.0,0.0,0.0,0.0,0.0,0.0,0.0,0.0,0.0,0.0,0.0,0.0,0.0,0.0,0.0,0.0,0.0,0.0,0.0,0.0,0.0,0.0,0.0,0.0,0.0,0.0,0.0,0.0,0.0,0.0,0.0,0.0,0.0,0.0,0.0,0.0,0.0,0.0,0.0,0.0,0.0,0.0,0.0,0.0,0.0,0.0,0.0,0.0,0.0,0.0,0.0,0.0,0.0,0.0,0.0,0.0,0.0,0.0,0.0,0.0,0.0,0.0,0.0,0.0,0.0,0.0,0.0,0.0,0.0,0.0,0.0,0.0,0.0,0.0,0.0,0.0,0.0,0.0,0.0,0.0,0.0,0.0,0.0,0.0,0.0,0.0,0.0,0.0,0.0,0.0,0.0,0.0,0.0,0.0,0.0,0.0,0.0,0.0,0.0,0.0,0.0,0.0,0.0,0.0,0.0,0.0,0.0,0.0,0.0,0.0,0.0,0.0,0.0,0.0,0.0,0.0,0.0,0.0,0.0,0.0,0.0,0.0,0.0,0.0,0.0,0.0,0.0,0.0,0.0,0.0,0.0,0.0,0.0,0.0,0.0,0.0,0.0,0.0,0.0,0.0,0.0,0.0,0.0,0.0,0.0,0.0,0.0,0.0,0.0,0.0,0.0,0.0,0.0,0.0,0.0,0.0,0.0,0.0,0.0,0.0,0.0,0.0,0.0,0.0,0.0,0.0,0.0,0.0,0.0,0.0,0.0,0.0,0.0,0.0,0.0,0.0,0.0,0.0,0.0,0.0,0.0,0.0,0.0,0.0,0.0,0.0,0.0,0.0,0.0,0.0,0.0,0.0,0.0,0.0,0.0,0.0,0.0,0.0,0.0,0.0,0.0,0.0,0.0,0.0,0.0,0.0,0.0,0.0,0.0,0.0,0.0,0.0,0.0,0.0,0.0,0.0,0.0,0.0,0.0,0.0,0.0,0.0,0.0,0.0,0.0,0.0,0.0,0.0,0.0,0.0,0.0,0.0,0.0,0.0,0.0,0.0,0.0,0.0,0.0,0.0,0.0,0.0,0.0,0.0,0.0,0.0,0.0,0.0,0.0,0.0,0.0,0.0,0.0,0.0,0.0,0.0,0.0,0.0,0.0,0.0,0.0,0.0,0.0,0.0,0.0,0.0,0.0,0.0,0.0,0.0,0.0,0.0,0.0,0.0,0.0,0.0,0.0,0.0,0.0,0.0,0.0,0.0,0.0,0.0,0.0,0.0,0.0,0.0,0.0,0.0,0.0,0.0,0.0,0.0,0.0,0.0,0.0,0.0,0.0,0.0,0.0,0.0,0.0,0.0,0.0,0.0,0.0,0.0,0.0,0.0,0.0,0.0,0.0,0.0,0.0,0.0,0.0,0.0,0.0,0.0,0.0,0.0,0.0,0.0,0.0,0.0,0.0,0.0,0.0,0.0,0.0,0.0,0.0,0.0,0.0,0.0,0.0,0.0,0.0,0.0,0.0,0.0,0.0,0.0,0.0,0.0,0.0,0.0,0.0,0.0,0.0,0.0,0.0,0.0,0.0,0.0,0.0,0.0,0.0,0.0,0.0,0.0,0.0,0.0,0.0,0.0,0.0,0.0,0.0,0.0,0.0,0.0,0.0,0.0,0.0,0.0,0.0,0.0,0.0,0.0,0.0,0.0,0.0,0.0,0.0,0.0,0.0,0.0,0.0,0.0,0.0,0.0,0.0,0.0,0.0,0.0,0.0,0.0,0.0,0.0,0.0,0.0,0.0,0.0,0.0,0.0,0.0,0.0,0.0,0.0,0.0,0.0,0.0,0.0,0.0,0.0,0.0,0.0,0.0,0.0,0.0,0.0,0.0,0.0,0.0,0.0,0.0,0.0,0.0,0.0,0.0,0.0,0.0,0.0,0.0,0.0,0.0,0.0,0.0,0.0,0.0,0.0,0.0,0.0,0.0,0.0,0.0,0.0,0.0,0.0,0.0,0.0,0.0,0.0,0.0,0.0,0.0,0.0,0.0,0.0,0.0,0.0,0.0,0.0,0.0,0.0,0.0,0.0,0.0,0.0,0.0,0.0,0.0,0.0,0.0,0.0,0.0,0.0,0.0,0.0,0.0,0.0,0.0,0.0,0.0,0.0,0.0,0.0,0.0,0.0,0.0,0.0,0.0,0.0,0.0,0.0,0.0,0.0,0.0,0.0,0.0,0.0,0.0,0.0,0.0,0.0,0.0,0.0,0.0,0.0,0.0,0.0,0.0,0.0,0.0,0.0,0.0,0.0,0.0,0.0,0.0,0.0,0.0,0.0,0.0,0.0,0.0,0.0,0.0,0.0,0.0,0.0,0.0,0.0,0.0,0.0,0.0,0.0,0.0,0.0,0.0,0.0,0.0,0.0,0.0,0.0,0.0,0.0,0.0,0.0,0.0,0.0,0.0,0.0,0.0,0.0,0.0,0.0,0.0,0.0,0.0,0.0,0.0,0.0,0.0,0.0,0.0,0.0,0.0,0.0,0.0,0.0,0.0,0.0,0.0,0.0,0.0,0.0,0.0,0.0,0.0,0.0,0.0,0.0,0.0,0.0,0.0,0.0,0.0,0.0,0.0,0.0,0.0,0.0,0.0,0.0,0.0,0.0,0.0,0.0,0.0,0.0,0.0,0.0,0.0,0.0,0.0,0.0,0.0,0.0,0.0,0.0,0.0,0.0,0.0,0.0,0.0,0.0,0.0,0.0,0.0,0.0,0.0,0.0,0.0,0.0,0.0,0.0,0.0,0.0,0.0,0.0,0.0,0.0,0.0,0.0,0.0,0.0,0.0,0.0,0.0,0.0,0.0,0.0,0.0,0.0,0.0,0.0,0.0,0.0,0.0,0.0,0.0,0.0,0.0,0.0,0.0,0.0,0.0,0.0,0.0,0.0,0.0,0.0,0.0,0.0,0.0,0.0,0.0,0.0,0.0,0.0,0.0,0.0,0.0,0.0,0.0,0.0,0.0,0.0,0.0,0.0,0.0,0.0,0.0,0.0,0.0,0.0,0.0,0.0,0.0,0.0,0.0,0.0,0.0,0.0,0.0,0.0,0.0,0.0,0.0,0.0,0.0,0.0,0.0,0.0,0.0,0.0,0.0,0.0,0.0,0.0,0.0,0.0,0.0,0.0,0.0,0.0,0.0,0.0,0.0,0.0,0.0,0.0,0.0,0.0,0.0,0.0,0.0,0.0,0.0,0.0,0.0,0.0,0.0,0.0,0.0,0.0,0.0,0.0,0.0,0.0,0.0,0.0,0.0,0.0,0.0,0.0,0.0,0.0,0.0,0.0,0.0,0.0,0.0,0.0,0.0,0.0,0.0,0.0,0.0,0.0,0.0,0.0,0.0,0.0,0.0,0.0,0.0,0.0,0.0,0.0,0.0,0.0,0.0,0.0,0.0,0.0,0.0,0.0,0.0,0.0,0.0,0.0,0.0,0.0,0.0,0.0,0.0,0.0,0.0,0.0,0.0,0.0,0.0,0.0,0.0,0.0,0.0,0.0,0.0,0.0,0.0,0.0,0.0,0.0,0.0,0.0,0.0,0.0,0.0,0.0,0.0,0.0,0.0,0.0,0.0,0.0,0.0,0.0,0.0,0.0,0.0,0.0,0.0,0.0,0.0,0.0,0.0,0.0,0.0,0.0,0.0,0.0,0.0,0.0,0.0,0.0,0.0,0.0,0.0,0.0,0.0,0.0,0.0,0.0,0.0,0.0,0.0,0.0,0.0,0.0,0.0,0.0,0.0,0.0,0.0,0.0,0.0,0.0,0.0,0.0,0.0,0.0,0.0,0.0,0.0,0.0,0.0,0.0,0.0,0.0,0.0,0.0,0.0,0.0,0.0,0.0,0.0,0.0,0.0,0.0,0.0,0.0,0.0,0.0,0.0,0.0,0.0,0.0,0.0,0.0,0.0,0.0,0.0,0.0,0.0,0.0,0.0,0.0,0.0,0.0,0.0,0.0,0.0,0.0,0.0,0.0,0.0,0.0,0.0,0.0,0.0,0.0,0.0,0.0,0.0,0.0,0.0,0.0,0.0,0.0,0.0,0.0,0.0,0.0,0.0,0.0,0.0,0.0,0.0,0.0,0.0,0.0,0.0,0.0,0.0,0.0,0.0,0.0,0.0,0.0,0.0,0.0,0.0,0.0,0.0,0.0,0.0,0.0,0.0,0.0,0.0,0.0,0.0,0.0,0.0,0.0,0.0,0.0,0.0,0.0,0.0,0.0,0.0,0.0,0.0,0.0,0.0,0.0,0.0,0.0,0.0,0.0,0.0,0.0,0.0,0.0,0.0,0.0,0.0,0.0,0.0,0.0,0.0,0.0,0.0,0.0,0.0,0.0,0.0,0.0,0.0,0.0,0.0,0.0,0.0,0.0,0.0,0.0,0.0,0.0,0.0,0.0,0.0,0.0,0.0,0.0,0.0,0.0,0.0,0.0,0.0,0.0,0.0,0.0,0.0,0.0,0.0,0.0,0.0,0.0,0.0,0.0,0.0,0.0,0.0,0.0,0.0,0.0,0.0,0.0,0.0,0.0,0.0,0.0,0.0,0.0,0.0,0.0,0.0,0.0,0.0,0.0,0.0,0.0,0.0,0.0,0.0,0.0,0.0,0.0,0.0,0.0,0.0,0.0,0.0,0.0,0.0,0.0,0.0,0.0,0.0,0.0,0.0,0.0,0.0,0.0,0.0,0.0,0.0,0.0,0.0,0.0,0.0,0.0,0.0,0.0,0.0,0.0,0.0,0.0,0.0,0.0,0.0,0.0,0.0,0.0,0.0,0.0,0.0,0.0,0.0,0.0,0.0,0.0,0.0,0.0,0.0,0.0,0.0,0.0,0.0,0.0,0.0,0.0,0.0,0.0,0.0,0.0,0.0,0.0,0.0,0.0,0.0,0.0,0.0,0.0,0.0,0.0,0.0,0.0,0.0,0.0,0.0,0.0,0.0,0.0,0.0,0.0,0.0,0.0,0.0,0.0,0.0,0.0,0.0,0.0,0.0,0.0,0.0,0.0,0.0,0.0,0.0,0.0,0.0,0.0,0.0,0.0,0.0,0.0,0.0,0.0,0.0,0.0,0.0,0.0,0.0,0.0,0.0,-3.8029,0.0,0.0,0.0,0.0,0.0,0.0,0.0,0.0,0.0,0.0,0.0,0.0,0.0,0.0,0.0,0.0,0.0,0.0,0.0,0.0,0.0,0.0,0.0,0.0,-2.2603,-2.3489,-2.4111,-2.4709,-2.4916,-2.4558,0.0,0.0,0.0,0.0,0.0,-2.2974,-2.3004,-2.3245,-2.3742,-2.4069,-2.4819,-2.5967,-2.5747,-2.536,-2.4862,0.0,0.0,0.0,0.0,0.0,0.0,0.0,0.0,0.0,0.0,0.0,0.0,0.0,0.0,0.0,0.0,0.0,0.0,0.0,0.0,0.0,0.0,0.0,0.0,0.0,0.0,0.0,0.0,0.0,0.0,0.0,0.0,0.0,0.0,0.0,0.0,0.0,0.0,0.0,0.0,0.0,0.0,0.0,0.0,0.0,0.0,0.0,0.0,0.0,0.0,0.0,0.0,0.0,0.0,0.0,0.0,0.0,0.0,0.0,0.0,0.0,0.0,0.0,0.0,0.0,0.0,0.0,0.0,0.0,0.0,0.0,-3.8952,0.0,0.0,0.0,0.0,0.0,0.0,0.0,0.0,0.0,0.0,0.0,0.0,0.0,0.0,0.0,0.0,0.0,0.0,0.0,0.0,0.0,-1.9545,-2.1222,-2.2326,-2.324,-2.4004,-2.4612,-2.4888,-2.48,-2.4481,0.0,0.0,0.0,-2.2913,-2.2913,-2.2946,-2.3446,-2.4368,-2.5221,-2.6107,-2.7004,-2.7878,-2.774,-2.6724,-2.6704,0.0,0.0,0.0,0.0,0.0,0.0,0.0,0.0,0.0,0.0,0.0,0.0,0.0,0.0,0.0,0.0,0.0,0.0,0.0,0.0,0.0,0.0,0.0,0.0,0.0,0.0,0.0,0.0,0.0,0.0,0.0,0.0,0.0,0.0,0.0,0.0,0.0,0.0,0.0,0.0,0.0,0.0,0.0,0.0,0.0,0.0,0.0,0.0,0.0,0.0,0.0,0.0,0.0,0.0,0.0,0.0,0.0,0.0,0.0,0.0,0.0,0.0,0.0,-4.4512,-4.4784,-4.5291,-4.5291,-4.5291,-4.5128,-4.185,-4.0999,-4.1741,-3.9514,0.0,0.0,0.0,0.0,0.0,0.0,0.0,0.0,0.0,0.0,0.0,0.0,0.0,0.0,0.0,0.0,0.0,0.0,0.0,-1.9262,-2.0887,-2.1758,-2.2827,-2.43,-2.5086,-2.531,-2.4813,-2.5172,0.0,0.0,-2.4569,-2.4494,-2.4494,-2.4501,-2.4797,-2.5403,-2.7043,-2.7951,-2.8108,-2.9322,-2.9528,-2.8807,-2.8685,-2.8588,-2.8427,0.0,0.0,0.0,0.0,0.0,0.0,0.0,0.0,0.0,0.0,0.0,0.0,0.0,0.0,0.0,0.0,0.0,0.0,0.0,0.0,0.0,0.0,0.0,0.0,0.0,0.0,0.0,0.0,0.0,0.0,0.0,0.0,0.0,0.0,0.0,0.0,0.0,0.0,0.0,0.0,0.0,-3.5205,-3.6728,0.0,0.0,0.0,0.0,0.0,0.0,0.0,0.0,0.0,0.0,0.0,0.0,0.0,-4.5273,-4.587,-4.6667,-4.6776,-4.6178,-4.6178,-4.587,-4.5291,-4.5291,-4.5291,-4.5273,-4.4747,0.0,-4.2611,-4.0908,0.0,0.0,0.0,0.0,0.0,0.0,0.0,0.0,0.0,0.0,0.0,0.0,0.0,0.0,0.0,0.0,0.0,0.0,0.0,0.0,0.0,-2.2862,-2.4188,-2.5213,-2.6134,-2.6429,-2.5896,-2.5819,-2.5567,-2.5099,-2.4775,-2.4646,-2.4646,-2.5043,-2.5837,-2.7005,-2.845,-2.9309,-2.9616,-3.0275,-3.0798,-3.1093,-3.0855,-3.0182,-2.9111,-2.7525,0.0,0.0,0.0,0.0,0.0,0.0,0.0,0.0,0.0,0.0,0.0,0.0,0.0,0.0,0.0,0.0,0.0,0.0,0.0,0.0,0.0,0.0,0.0,0.0,0.0,0.0,0.0,0.0,0.0,0.0,0.0,0.0,0.0,0.0,0.0,0.0,0.0,0.0,0.0,-3.5162,-3.7103,-3.7836,-3.8028,-3.7878,0.0,0.0,0.0,0.0,0.0,0.0,0.0,0.0,0.0,-4.3642,-4.5417,-4.6529,-4.689,-4.7992,-4.8339,-4.7908,-4.8323,-4.829,-4.7864,-4.7494,-4.7319,-4.7283,-4.6377,-4.5562,-4.4765,-4.2701,-4.118,-4.0057,0.0,0.0,0.0,0.0,-3.8047,-3.8464,0.0,0.0,0.0,0.0,0.0,0.0,0.0,0.0,0.0,0.0,0.0,0.0,-2.2158,-2.3945,-2.5362,-2.6171,-2.7017,-2.7311,-2.6943,-2.6414,-2.597,-2.5654,-2.502,-2.4723,-2.4859,-2.5651,-2.6816,-2.8338,-2.9362,-3.0049,-3.0436,-3.0585,-3.1087,-3.1911,-3.1662,-3.1065,-3.0178,-2.8366,-2.7466,0.0,0.0,0.0,0.0,0.0,0.0,0.0,0.0,0.0,0.0,0.0,0.0,0.0,0.0,0.0,0.0,0.0,0.0,0.0,0.0,0.0,0.0,0.0,0.0,0.0,0.0,0.0,0.0,0.0,0.0,0.0,0.0,0.0,0.0,0.0,0.0,0.0,0.0,-3.6811,-3.8745,-3.8633,-3.9591,-3.9877,0.0,0.0,0.0,0.0,0.0,0.0,-4.2494,-4.3229,-4.4154,-4.5427,-4.6891,-4.7666,-4.7666,-4.8645,-4.9103,-4.8995,-4.9359,-4.9459,-4.9347,-4.8802,-4.8569,-4.8501,-4.7262,-4.6602,-4.6277,-4.4311,-4.2918,-4.1904,-4.0745,-4.0039,-3.9677,-3.9677,-3.9804,-4.0148,0.0,0.0,0.0,0.0,0.0,0.0,0.0,0.0,0.0,0.0,0.0,-2.1379,-2.3457,-2.4384,-2.5436,-2.6992,-2.7372,-2.7471,0.0,0.0,-2.666,-2.6635,-2.5628,-2.5308,-2.5812,-2.6857,-2.7938,-2.9045,-2.9622,-2.9917,-2.9942,-2.9945,-2.9958,-3.0059,-3.0038,-3.1008,-3.263,-3.0769,-2.9361,-2.8193,0.0,0.0,0.0,0.0,0.0,0.0,0.0,0.0,0.0,0.0,0.0,0.0,0.0,0.0,0.0,0.0,0.0,0.0,0.0,0.0,0.0,0.0,0.0,0.0,0.0,0.0,0.0,0.0,0.0,0.0,0.0,0.0,0.0,0.0,0.0,0.0,0.0,0.0,0.0,-3.9332,-4.12,0.0,0.0,0.0,0.0,-4.1692,-4.2936,-4.3788,-4.3905,-4.5049,-4.5776,-4.5862,-4.7862,-4.8926,-4.8926,-4.8988,-4.9005,-4.8988,-4.8257,-4.7909,-4.7901,-4.7741,-4.7663,-4.7634,-4.7389,-4.6874,-4.6158,-4.5482,-4.424,-4.2828,-4.2756,-4.1796,-4.0438,-4.0438,-4.0926,-4.1596,0.0,0.0,0.0,0.0,0.0,-1.5922,-1.6836,-1.7158,-1.7685,-1.8855,-2.0555,-2.206,-2.3168,-2.5021,-2.6516,-2.7432,-2.7895,-2.7995,-2.7643,-2.6784,-2.6518,-2.698,-2.6004,-2.6052,-2.7397,-2.802,-2.8753,-2.9607,-2.9803,-3.0086,-3.0458,-2.9717,-2.9782,-3.0474,-3.0089,-3.0518,-3.1452,-3.0268,-2.9429,-2.8801,-2.7221,-2.5743,0.0,0.0,0.0,0.0,0.0,0.0,0.0,0.0,0.0,0.0,0.0,0.0,0.0,0.0,0.0,0.0,0.0,0.0,0.0,0.0,0.0,0.0,0.0,0.0,0.0,0.0,0.0,0.0,0.0,0.0,0.0,0.0,0.0,0.0,0.0,0.0,0.0,-4.1342,-4.2924,0.0,-4.2228,-4.2883,-4.346,-4.3643,-4.4142,-4.4933,-4.6007,-4.6488,-4.6989,-4.7551,-4.8284,-4.8676,-4.8676,-4.9076,-4.9222,-4.9135,-4.9295,-4.9305,-4.917,-4.8233,-4.801,-4.8318,-4.7234,-4.6634,-4.6412,-4.6521,-4.5379,-4.3546,-4.3642,-4.3009,-4.2031,-4.2031,-4.223,-4.2466,0.0,0.0,0.0,0.0,-1.5632,-1.6044,-1.6989,-1.7298,-1.794,-1.9436,-2.1164,-2.2655,-2.3728,-2.578,-2.7289,-2.7816,-2.8266,-2.8282,-2.7753,-2.7043,-2.6684,-2.682,-2.6142,-2.6506,-2.8065,-2.8497,-2.9213,-3.0236,-3.0065,-3.015,-3.0545,-2.9602,-2.9581,-3.0294,-3.0082,-3.0216,-3.0633,-3.0261,-2.973,-2.9061,-2.8015,-2.687,-2.5805,0.0,0.0,0.0,0.0,0.0,0.0,0.0,0.0,0.0,0.0,0.0,0.0,0.0,0.0,0.0,0.0,0.0,0.0,0.0,0.0,0.0,0.0,0.0,0.0,0.0,0.0,0.0,0.0,0.0,0.0,0.0,0.0,0.0,0.0,0.0,-4.2601,-4.2837,-4.4622,-4.5433,-4.4456,-4.5005,-4.5665,-4.6146,-4.6411,-4.7054,-4.8147,-4.8197,-4.8478,-4.9075,-4.8841,-4.8591,-4.834,-4.8481,-4.85,-4.8425,-4.8886,-4.9166,-4.9283,-4.8289,-4.7944,-4.8041,-4.6946,-4.6337,-4.614,-4.6543,-4.5753,-4.4313,-4.4365,-4.3907,-4.3166,-4.2895,-4.2824,-4.2862,0.0,0.0,0.0,-1.5491,-1.588,-1.6373,-1.6913,-1.7455,-1.8525,-2.0582,-2.1792,-2.3204,-2.5247,-2.6662,-2.762,-2.8131,-2.8391,-2.8254,-2.7738,-2.7666,-2.7162,-2.6142,-2.6166,-2.6695,-2.7753,-2.8306,-2.934,-3.0922,-3.0362,-3.011,-3.0074,-2.9544,-2.9292,-2.9304,-2.9833,-3.0199,-3.0439,-3.0962,-3.0406,-2.9194,-2.9416,-2.896,-2.8063,0.0,0.0,0.0,0.0,0.0,0.0,0.0,0.0,0.0,0.0,0.0,0.0,0.0,0.0,0.0,0.0,0.0,0.0,0.0,0.0,0.0,0.0,0.0,0.0,0.0,0.0,0.0,0.0,0.0,0.0,0.0,0.0,0.0,-3.9579,-4.2558,-4.4473,-4.378,-4.6262,-4.7454,-4.603,-4.7835,-4.9127,-4.9144,-4.9806,-5.022,-5.022,-5.022,-5.022,-5.022,-4.9491,-4.8746,-4.8017,-4.7272,-4.6891,-4.6891,-4.6891,-4.7289,-4.8,-4.7771,-4.7335,-4.6697,-4.6456,-4.5973,-4.5276,-4.5433,-4.5339,-4.507,-4.5033,-4.4494,-4.3706,-4.2933,-4.2686,-4.2803,0.0,0.0,-1.5221,-1.5221,-1.5637,-1.6181,-1.6779,-1.7303,-1.8312,-2.01,-2.1886,-2.3463,-2.4789,-2.6626,-2.7808,-2.799,-2.8042,-2.8023,-2.7841,-2.6753,-2.606,-2.5873,-2.7519,-2.8558,-2.8859,-2.9761,-3.0446,-3.0922,-3.0735,-3.0458,-3.0074,-2.9544,-2.9088,-2.8751,-2.928,-2.9766,-3.0218,-3.0736,-3.0755,-3.0391,-3.0057,-2.9263,-2.8339,0.0,0.0,0.0,0.0,0.0,0.0,0.0,0.0,0.0,0.0,0.0,0.0,0.0,0.0,0.0,0.0,0.0,0.0,0.0,0.0,0.0,0.0,0.0,0.0,0.0,0.0,0.0,0.0,0.0,0.0,0.0,0.0,-4.1023,-4.1023,-4.3612,-4.5616,-4.5947,-4.7189,-4.805,-4.8183,-4.8746,-4.9326,-4.9872,-5.0104,-5.022,-5.022,-5.022,-5.022,-5.022,-4.9491,-4.8746,-4.8017,-4.7272,-4.6891,-4.6891,-4.6891,-4.7289,-4.7968,-4.7398,-4.6974,-4.6684,-4.6084,-4.5405,-4.4746,-4.5188,-4.5077,-4.4687,-4.5058,-4.4628,-4.3778,-4.3562,-4.3133,-4.2649,0.0,-1.5108,-1.5108,-1.5108,-1.5716,-1.6326,-1.6665,-1.752,-1.873,-2.0349,-2.2153,-2.3735,-2.4978,-2.65,-2.7444,-2.7444,-2.7512,-2.7403,-2.6941,-2.6247,-2.6179,-2.6916,-2.8269,-2.9219,-2.9672,-3.0267,-3.0739,-3.0954,-3.0739,-3.0508,-3.0271,-2.9487,-2.9013,-2.8859,-2.916,-2.9593,-3.0122,-3.0651,-3.1043,-3.1194,-3.0663,-3.0005,-2.9439,-3.0268,-3.0215,-2.9763,-3.0591,-3.0709,-3.0419,-3.0117,0.0,0.0,0.0,0.0,0.0,0.0,0.0,0.0,0.0,0.0,0.0,0.0,0.0,0.0,0.0,0.0,0.0,0.0,0.0,0.0,0.0,0.0,0.0,0.0,-4.0177,-4.2239,-4.2588,-4.474,-4.6527,-4.7272,-4.8017,-4.863,-4.9061,-4.9657,-5.0204,-5.0634,-5.0949,-5.1115,-5.1115,-5.1115,-5.1115,-5.1115,-5.0402,-4.9359,-4.8017,-4.7272,-4.6742,-4.6444,-4.6444,-4.699,-4.7984,-4.7554,-4.6997,0.0,-4.5865,-4.5094,-4.415,-4.4468,-4.4552,0.0,0.0,0.0,0.0,0.0,-4.2765,-4.2568,0.0,-1.52,-1.5223,-1.5269,-1.6072,-1.6667,-1.661,-1.7909,-1.9401,-2.0845,0.0,-2.3877,-2.5383,-2.6205,-2.6693,-2.6751,-2.6925,-2.6655,0.0,-2.6221,-2.7113,-2.8439,-2.8662,-2.9244,-3.0185,-3.0267,-3.0514,-3.0984,-3.0514,-3.0343,-3.0466,-2.9498,-2.9148,-2.9347,-2.9347,-2.9635,-3.0206,-3.0718,-3.1223,-3.1669,-3.1199,-3.0879,-3.0782,-3.112,-3.1428,-3.164,-3.1513,-3.1123,-3.0713,-3.0911,0.0,0.0,0.0,0.0,0.0,0.0,0.0,0.0,0.0,0.0,0.0,0.0,0.0,0.0,0.0,0.0,0.0,0.0,0.0,0.0,0.0,0.0,0.0,0.0,-4.104,-4.3117,-4.3941,-4.5584,-4.7012,-4.7852,-4.8547,-4.9044,-4.9226,-5.0402,-5.1249,-5.1415,-5.2045,-5.2409,-5.2409,0.0,0.0,0.0,0.0,-5.022,-4.8017,-4.7355,-4.6609,-4.5798,-4.5864,-4.6643,-4.8001,-4.8001,-4.7239,-4.5914,-4.5831,-4.5019,-4.3714,-4.3631,-4.3885,-4.4243,-4.4051,-4.3562,-4.2886,-4.1943,-4.1938,-4.2405,0.0,-1.5751,-1.5853,-1.6243,-1.683,-1.7094,-1.6667,-1.7909,-1.9149,-1.9884,-2.164,-2.3247,-2.4372,-2.534,-2.6104,-2.6507,-2.6581,-2.6528,0.0,-2.7319,-2.7854,-2.7714,-2.9094,-2.9997,-3.0208,-3.062,-3.0878,-3.0984,-3.0878,-3.0664,-3.024,-3.0052,-2.9851,-2.9636,-2.9636,-3.0061,-3.0735,-3.0874,-3.1223,-3.1705,-3.1597,-3.1039,-3.026,-3.0716,-3.1057,-3.1386,-3.2164,-3.2748,-3.3221,-3.3255,-3.2561,-3.1694,-3.1694,0.0,0.0,0.0,0.0,0.0,0.0,0.0,0.0,0.0,0.0,0.0,0.0,0.0,0.0,0.0,0.0,0.0,0.0,0.0,0.0,-3.9914,-4.167,-4.3136,-4.3846,-4.4756,-4.5959,-4.7572,-4.8018,-4.868,-4.9889,-5.0253,-5.0916,-5.2111,-5.2343,-5.2409,-5.2409,-5.2409,-5.2409,-5.2409,-5.1696,-5.022,-4.8017,-4.7868,-4.7123,-4.5798,0.0,0.0,-4.8001,-4.8001,-4.752,-4.6643,-4.6046,-4.5284,-4.444,-4.386,-4.3322,-4.2894,-4.3133,-4.3122,-4.2837,-4.1479,-4.1288,-4.1705,-1.6543,-1.644,-1.6323,-1.6552,-1.7037,-1.7235,-1.6679,-1.815,-1.939,-1.9654,-2.1433,-2.2972,-2.3741,-2.4244,-2.4682,-2.4935,-2.5176,0.0,-2.6783,-2.7688,-2.826,-2.8503,-2.9584,-3.0217,-3.0217,-3.0473,-3.0601,-3.0601,-3.0601,-3.0518,-3.0384,-3.0138,-2.9968,-2.9926,-2.9666,-2.9929,-3.0545,-3.0663,-3.1005,-3.1528,-3.1661,-3.1079,-3.0175,-3.0804,-3.08,-3.0619,-3.2051,-3.2832,-3.3234,-3.3744,-3.3536,-3.2982,-3.2653,-3.2238,-3.1763,0.0,0.0,0.0,0.0,0.0,0.0,0.0,0.0,0.0,0.0,0.0,0.0,0.0,0.0,-3.7172,0.0,0.0,-4.0348,-4.198,-4.2633,-4.323,-4.3942,-4.4165,-4.4927,-4.6742,-4.7118,-4.7699,-4.8843,-4.9705,-5.0518,-5.1247,-5.1959,-5.2409,-5.2409,-5.2409,-5.2409,-5.2409,-5.1696,-5.0402,-4.858,-4.8183,-4.7438,-4.6344,-4.6725,-4.7289,-4.8001,-4.8001,-4.7603,-4.6858,-4.6113,-4.5367,-4.4605,-4.3512,-4.282,-4.2431,-4.1893,-4.186,-4.1912,-4.081,-4.0879,-4.1494,-1.7042,-1.7,-1.6845,-1.6896,-1.7255,-1.7392,-1.6954,-1.8495,-1.9688,-1.9688,-2.1353,-2.2685,-2.3075,-2.3201,-2.3338,0.0,0.0,0.0,-2.7064,-2.7793,-2.8528,-2.9458,-2.9963,-3.0216,-3.0216,-3.0216,-3.0216,-3.0216,-3.0216,-3.0306,-3.0521,-3.007,-3.0018,-3.025,-2.9828,-2.9918,-3.0361,-3.0557,-3.0914,-3.1306,-3.1572,-3.1079,-3.017,-3.084,-3.0511,-2.9884,-3.1365,-3.1992,-3.2319,-3.3241,-3.3589,-3.3605,-3.3157,-3.3178,-3.3183,-3.2551,-3.2086,0.0,0.0,0.0,0.0,0.0,0.0,0.0,0.0,0.0,-3.6162,-3.6881,-3.8072,-3.9436,-4.1004,-4.1497,-4.2165,-4.3732,-4.3544,-4.3376,-4.3879,-4.3553,-4.3836,-4.5452,-4.6115,-4.6856,-4.7949,-4.9322,-5.0251,-5.0497,-5.1676,-5.2373,-5.2338,-5.2241,-5.221,-5.221,-5.1481,-5.0369,-4.8912,-4.8448,-4.7769,-4.6891,-4.704,-4.7421,-4.8001,-4.8001,-4.7603,-4.6841,-4.5963,-4.5168,-4.439,-4.3184,-4.2539,-4.2158,-4.1028,-4.0665,-4.0667,-4.0087,-4.0431,-4.1208,0.0,-1.714,-1.7652,-1.7897,-1.7997,-1.8008,-1.7924,-1.8954,-1.9688,-1.9688,-2.1043,-2.1997,-2.2055,-2.2501,-2.3133,-2.4028,-2.4992,-2.6026,-2.7121,-2.8103,-2.8884,-2.947,-2.9963,-3.0216,-3.0216,-3.0216,-3.0216,-3.0216,-3.0216,-3.0216,-3.0261,-3.0204,-3.0316,-3.053,-3.0483,-3.0641,-3.0935,-3.1134,-3.1247,-3.1306,-3.1572,-3.1079,-3.0128,-3.0211,-3.0012,-2.9742,-2.9922,-3.0568,-3.1439,-3.2091,-3.2556,-3.2902,-3.3385,-3.3644,-3.3688,-3.303,0.0,-3.2908,-3.2385,-3.2295,-3.2832,-3.4637,-3.4675,-3.5053,0.0,0.0,-3.8231,-3.9421,-4.0728,-4.1729,-4.1947,-4.2905,-4.3732,-4.395,-4.3921,-4.3703,-4.3191,-4.2621,-4.2622,-4.3506,-4.5159,-4.7052,-4.9188,-4.9727,-5.0404,-5.1559,-5.2095,-5.2302,-5.2139,-5.169,-5.1431,-5.1431,-5.0701,-4.9624,-4.815,-4.8696,-4.8282,-4.6908,-4.7554,-4.7918,-4.8001,-4.8001,-4.7603,-4.6825,-4.5417,-4.4406,-4.3698,-4.3532,-4.2688,-4.1496,-4.1359,-4.0569,-3.9478,-3.9395,-3.9705,-4.0178,0.0,-1.7011,-1.7451,-1.7551,-1.813,-1.8455,-1.8157,-1.9235,-2.001,-1.9734,-2.0745,-2.1479,-2.1479,-2.1707,-2.2236,-2.3224,-2.4246,-2.5383,-2.6703,-2.7989,-2.8941,-2.9481,-2.9963,-3.0216,-3.0216,-3.0216,-3.0216,-3.0216,-3.0216,-3.0216,-3.0216,-3.0216,-3.0261,-3.0363,-3.0675,-3.0697,-3.0567,-3.1096,-3.1288,-3.1151,-3.135,-3.0893,-3.0086,-3.0086,-2.9629,-2.9067,-2.951,-2.9757,0.0,0.0,-3.1472,-3.1493,-3.2159,-3.2481,-3.2629,-3.2743,-3.2892,0.0,-3.324,-3.3917,-3.477,-3.5671,-3.6272,-3.707,-3.8812,-3.9247,-3.945,-3.9987,-4.0858,-4.1744,-4.2484,-4.305,-4.3776,0.0,-4.4763,-4.4284,-4.366,-4.3021,-4.2787,-4.325,-4.3655,-4.5022,-4.783,-4.8262,-4.8966,-5.0418,-5.0695,-5.073,-5.0659,-5.0434,-5.0305,-5.0305,-4.9613,-4.8922,-4.8313,-4.8214,-4.7885,-4.7358,-4.7589,-4.777,-4.782,-4.7737,-4.7127,-4.6021,-4.5028,-4.42,-4.3565,-4.3135,-4.2324,-4.1375,-4.0961,-4.0183,-3.9299,-3.9299,-3.9592,-4.0003,0.0,-1.6764,-1.7045,-1.6932,-1.7873,-1.8549,-1.8306,-1.9401,-2.0136,-1.984,-2.0523,-2.0999,-2.0903,-2.0892,-2.1344,-2.2457,-2.3336,-2.4608,-2.6398,-2.761,-2.8654,-2.9458,-2.9837,-3.0078,-3.0216,-3.0216,-3.0216,-3.0216,-3.0216,-3.0216,-3.0216,-3.0216,-3.0216,-3.0227,-3.0629,-3.0583,-3.0239,-3.0904,-3.1086,-3.0916,-3.1018,-3.0632,-2.999,-2.9929,-2.9208,-2.8361,-2.8924,-2.8936,0.0,0.0,-3.0277,-3.0262,-3.0987,-3.1391,-3.1811,-3.2631,-3.3073,-3.3491,-3.4203,-3.5179,-3.6122,-3.67,-3.7665,-3.8696,-3.9538,-4.006,-4.0423,-4.0612,-4.1163,-4.1903,-4.2818,-4.3137,-4.3776,-4.5358,-4.5213,-4.4734,-4.4298,-4.3515,-4.3055,-4.3227,-4.2491,-4.3111,-4.5975,-4.6329,-4.7005,-4.8667,-4.891,-4.9072,-4.9196,-4.9246,-4.9305,-4.9305,-4.86,-4.8125,-4.7912,-4.7421,-4.7242,-4.7342,-4.7225,-4.734,-4.7638,-4.7111,-4.6356,-4.5401,-4.4496,-4.3866,-4.3429,-4.2884,-4.2138,-4.1291,-4.0823,-4.0073,-3.9299,-3.9299,-3.9504,-3.9808,0.0,0.0,-1.6669,-1.6201,-1.7192,-1.8178,-1.8608,-1.9377,-1.9959,-2.0062,-2.0387,-2.0506,-2.0172,-2.0128,-2.071,-2.2092,-2.2666,-2.3937,-2.6324,-2.6978,-2.7943,-2.9435,-2.9515,-2.9734,-3.0204,-3.0216,-3.0216,-3.0216,-3.0216,-3.0216,-3.0216,-3.0216,-3.0216,-3.0216,-3.0227,-3.0227,-3.0216,-3.0499,-3.0634,-3.0621,-3.0528,-3.0181,-2.9689,-2.9426,-2.8667,-2.7753,-2.7741,0.0,0.0,0.0,-2.8795,-2.9617,-3.0235,-3.0928,0.0,-3.2932,-3.3825,-3.4541,-3.4979,-3.551,-3.6338,-3.7788,-3.8667,-3.9509,-4.0757,-4.1062,-4.125,-4.1903,-4.2513,-4.2948,-4.2977,-4.3529,-4.4168,-4.4806,-4.4893,-4.4879,-4.4864,-4.3776,-4.2977,-4.3005,-4.1901,-4.2001,0.0,-4.4135,-4.4738,-4.6538,-4.7231,-4.7718,-4.8116,-4.8388,-4.8535,-4.8535,-4.7863,-4.7209,-4.6454,-4.6422,-4.6454,-4.6454,-4.6454,-4.6831,-4.7471,-4.6028,-4.5324,-4.5209,-4.3768,-4.3129,-4.3096,-4.308,-4.2334,-4.1185,-4.1169,-4.0408,-3.9299,-3.9299,-3.9299,-3.9325,0.0,0.0,0.0,-1.6717,-1.7946,-1.8826,-1.8532,-1.9121,-1.9829,-2.0478,-2.0939,0.0,0.0,0.0,0.0,0.0,-2.2669,-2.3464,-2.4642,-2.5739,-2.6585,-2.7086,-2.7732,-2.8311,-2.88,-2.9128,-2.924,-2.9187,-2.9886,-3.0034,-2.976,-3.0034,-3.0216,-3.0227,-3.0583,-3.0549,-3.0239,-3.0686,-3.0974,-3.1088,-3.0337,-3.0111,-3.0165,-2.938,-2.8511,-2.763,0.0,0.0,0.0,-2.734,-2.7494,-2.7629,-2.8771,0.0,0.0,-3.159,-3.348,-3.4989,-3.5244,-3.637,-3.7719,-3.8771,-3.9538,-4.0227,-4.1089,-4.1001,-4.0682,-4.0588,-4.0291,-4.0262,-4.0949,-4.1531,-4.2431,-4.4052,-4.4632,-4.4879,-4.4879,-4.4516,-4.3935,-4.3094,-4.2266,0.0,0.0,0.0,0.0,-4.578,-4.5241,-4.5342,-4.6454,-4.6606,-4.6885,-4.7405,-4.7228,-4.6757,-4.5992,-4.5992,-4.6058,-4.6208,-4.6697,-4.6989,-4.705,-4.5635,-4.5033,-4.5032,-4.3596,-4.3037,-4.3113,-4.3113,-4.257,-4.1681,-4.1251,-4.0508,-3.9643,-3.9248,-3.9094,-3.9121,0.0,0.0,0.0,0.0,0.0,0.0,0.0,0.0,0.0,0.0,0.0,0.0,0.0,0.0,0.0,0.0,0.0,-2.3012,-2.4125,-2.4812,-2.5357,-2.5872,-2.6617,-2.7353,-2.8021,-2.8614,-2.8761,-2.8399,-2.9261,-2.9453,-2.9015,-2.933,-2.9542,-2.9688,-3.0032,-2.9998,-2.9699,-3.0044,-3.0272,-3.0383,-2.9581,-2.946,-2.9624,-2.897,-2.8235,0.0,0.0,0.0,0.0,-2.6477,-2.6596,-2.6876,-2.8093,-2.9265,-3.0474,-3.1758,-3.3769,-3.5606,-3.5981,-3.7278,-3.876,-3.9601,-4.031,-4.081,-4.1024,-4.0794,-4.0306,-3.9538,-3.8957,-3.8714,-3.9159,-3.9549,-4.0545,-4.2822,-4.3588,-4.4211,-4.5111,-4.5039,-4.4589,-4.3761,-4.3137,-4.2774,0.0,0.0,0.0,-4.4242,-4.3768,-4.3829,-4.4803,-4.5095,-4.5515,-4.6036,-4.5817,-4.5461,-4.5014,-4.4791,-4.483,-4.5244,-4.6219,-4.6526,-4.6099,-4.5208,-4.4707,-4.448,-4.331,-4.2852,-4.2929,-4.2929,-4.2535,-4.1877,-4.1158,-4.0484,-3.9804,-3.9166,-3.8942,-3.8969,0.0,0.0,0.0,0.0,0.0,0.0,0.0,0.0,0.0,0.0,0.0,0.0,0.0,0.0,0.0,0.0,0.0,0.0,-2.4622,-2.4147,-2.4401,-2.5729,-2.6141,-2.6823,-2.7843,-2.8681,-2.8704,-2.7905,-2.8459,-2.8539,-2.8084,-2.8128,-2.8323,-2.87,-2.87,-2.87,-2.87,-2.87,-2.8712,-2.8689,-2.8407,-2.8305,-2.83,-2.8231,0.0,0.0,0.0,0.0,0.0,-2.5745,-2.6268,0.0,0.0,-3.0779,-3.3333,-3.3375,-3.4716,-3.638,-3.7155,-3.8323,-3.9469,-4.0228,-4.0868,-4.1154,-4.0596,-4.0381,-3.9967,-3.8792,-3.8492,-3.8263,0.0,0.0,-3.8789,-4.1283,-4.1939,-4.3007,-4.5488,-4.5314,-4.4922,0.0,0.0,0.0,0.0,0.0,0.0,-4.2237,0.0,-4.326,-4.3329,-4.4028,-4.4472,-4.451,-4.387,-4.3521,-4.3554,-4.2913,-4.2968,-4.3654,-4.5094,-4.5451,-4.4787,-4.4787,-4.4399,-4.367,-4.291,-4.2602,-4.2602,-4.2602,-4.2275,-4.1713,-4.0981,-4.0352,-3.9776,-3.9056,-3.8805,-3.8832,0.0,0.0,0.0,0.0,0.0,0.0,0.0,0.0,0.0,0.0,0.0,0.0,0.0,0.0,0.0,0.0,0.0,0.0,-2.2562,-2.3302,-2.3892,-2.4264,-2.52,-2.6205,-2.7211,-2.7778,-2.8027,-2.788,-2.8803,-2.8786,-2.8007,-2.8398,-2.8614,-2.87,-2.87,-2.87,-2.87,-2.87,-2.893,-2.9217,0.0,-2.8376,-2.8765,0.0,0.0,0.0,0.0,0.0,0.0,0.0,0.0,0.0,0.0,-3.2121,-3.4062,-3.4548,-3.5995,-3.7608,-3.8295,-3.9379,-4.0351,-4.0591,-4.0407,-4.0195,-3.9984,-3.891,-3.7848,-3.7678,-3.6807,-3.6113,0.0,0.0,0.0,-4.0086,-4.1749,0.0,-4.4922,-4.5416,0.0,-4.4937,0.0,-4.4487,-4.4037,-4.424,0.0,0.0,-4.2823,-4.2854,-4.3907,-4.3737,-4.3897,-4.4472,-4.387,-4.3266,-4.2798,-4.2658,-4.2685,-4.2917,-4.4878,-4.5451,-4.4787,-4.4787,-4.4399,-4.367,-4.291,-4.2602,-4.2602,-4.2602,-4.2244,-4.1592,-4.0832,-4.0164,-3.9523,-3.8893,-3.8644,-3.8699,0.0,0.0,0.0,0.0,0.0,0.0,0.0,0.0,0.0,0.0,0.0,0.0,0.0,0.0,0.0,0.0,0.0,0.0,0.0,-2.2675,-2.3043,-2.346,-2.4641,-2.5718,-2.6685,-2.7707,-2.8004,-2.7501,0.0,0.0,-2.7357,-2.7612,-2.7835,-2.8057,-2.8057,-2.8057,-2.8057,-2.8057,0.0,0.0,0.0,0.0,0.0,0.0,0.0,0.0,0.0,0.0,0.0,0.0,0.0,-3.1068,-3.1982,-3.3717,-3.5559,-3.6178,0.0,-3.8468,-3.9141,-3.9971,-4.0702,-4.0702,-4.0238,-3.9634,-3.9086,-3.7934,-3.6722,-3.5751,-3.5127,0.0,-3.4023,-3.5209,0.0,0.0,0.0,0.0,-4.4632,-4.5459,-4.575,0.0,-4.5329,0.0,-4.4864,-4.5126,-4.5068,0.0,-4.3485,-4.3144,-4.3658,-4.3109,-4.2862,-4.3007,-4.237,-4.1708,-4.11,-4.143,-4.1622,-4.1672,-4.3488,-4.405,-4.3392,-4.4025,-4.3913,-4.3185,0.0,-4.2602,-4.2602,-4.2602,-4.2213,-4.1531,-4.0802,-4.0075,-3.9424,-3.8752,-3.8504,-3.8532,0.0,0.0,0.0,0.0,0.0,0.0,0.0,0.0,0.0,0.0,0.0,0.0,0.0,0.0,0.0,0.0,0.0,0.0,0.0,0.0,0.0,-2.329,-2.4513,-2.5593,-2.6461,-2.7989,-2.8229,-2.7113,0.0,0.0,0.0,0.0,0.0,0.0,0.0,0.0,0.0,0.0,0.0,0.0,0.0,0.0,0.0,0.0,0.0,0.0,0.0,0.0,0.0,0.0,-3.1159,-3.2228,-3.3275,-3.517,-3.7147,-3.7627,-3.8334,-3.9128,-3.9592,-4.0195,-4.0702,-4.0702,-4.0112,-3.924,-3.8024,-3.7153,-3.5943,-3.3619,0.0,-3.3473,-3.1907,-3.3127,-3.5109,-3.7296,0.0,-4.1598,-4.4356,-4.5284,-4.5793,-4.588,-4.588,-4.588,-4.588,-4.5808,-4.5518,-4.4922,-4.4255,-4.3602,-4.3021,-4.2426,-4.1744,-4.0989,-4.0321,-3.9724,-3.9154,-3.9894,-4.0243,-4.0293,-4.1747,-4.207,-4.1409,-4.2879,-4.3138,-4.246,-4.2571,0.0,-4.2602,-4.2602,-4.2164,-4.1401,-4.0739,-4.0027,-3.9295,-3.8634,-3.8391,-3.8436,0.0,0.0,0.0,0.0,0.0,0.0,0.0,0.0,0.0,0.0,-2.2444,0.0,0.0,0.0,0.0,0.0,0.0,0.0,0.0,0.0,0.0,-2.41,-2.531,-2.6462,-2.7421,-2.7755,-2.7855,-2.774,0.0,0.0,0.0,0.0,0.0,0.0,0.0,0.0,0.0,0.0,0.0,0.0,0.0,0.0,0.0,0.0,0.0,0.0,0.0,0.0,-2.8655,-2.9782,-3.1071,-3.2403,-3.3649,-3.5592,-3.7285,-3.7063,-3.824,-3.9578,-3.9349,-4.0015,-4.0702,-4.0702,-3.9451,-3.7997,-3.7098,-3.5759,0.0,0.0,-3.2541,-3.2623,-3.23,-3.3077,-3.4548,-3.6997,-3.8674,-4.0689,-4.343,-4.4397,-4.5107,0.0,-4.588,-4.588,-4.588,-4.5387,0.0,0.0,0.0,-4.3108,-4.3007,-4.2426,-4.1541,-4.0307,-3.9683,-3.9062,-3.8389,-3.9103,-3.9484,-3.9535,-4.0968,-4.1287,-4.0653,-4.2118,-4.2404,-4.1722,-4.2333,0.0,-4.2602,-4.2602,-4.1857,-4.0658,-4.0545,-3.9719,-3.857,-3.844,-3.8391,-3.8391,0.0,0.0,0.0,0.0,0.0,0.0,0.0,0.0,0.0,0.0,-2.3914,-2.4376,0.0,0.0,0.0,0.0,0.0,0.0,0.0,0.0,0.0,0.0,-2.5805,-2.6694,-2.743,-2.7889,0.0,0.0,0.0,0.0,0.0,0.0,0.0,0.0,0.0,0.0,0.0,0.0,0.0,0.0,0.0,0.0,0.0,0.0,0.0,0.0,0.0,0.0,-2.8631,-2.9412,-3.0306,-3.1462,-3.3411,-3.5322,-3.6771,-3.687,-3.7586,-3.8464,-3.9047,-3.9577,-3.9972,-4.0167,-3.9058,-3.7524,-3.6099,0.0,0.0,0.0,-3.1478,-3.1598,-3.1068,-3.2298,0.0,-3.5164,-3.7063,-3.9242,-4.165,-4.2826,0.0,-4.4899,-4.5407,-4.564,0.0,0.0,0.0,0.0,0.0,-4.288,-4.2992,-4.1758,-4.0612,-3.9654,-3.9015,-3.8522,-3.8202,-3.8546,-3.873,-3.873,-3.9851,-4.0178,-3.9874,-4.0962,-4.1255,-4.0977,-4.1705,0.0,-4.2045,-4.2429,-4.1761,-4.0496,-4.0496,-3.9638,-3.8391,-3.8391,-3.8391,-3.8391,0.0,0.0,0.0,0.0,0.0,0.0,0.0,-2.2559,-2.338,-2.4088,-2.5352,-2.5902,-2.5152,-2.4988,-2.4908,0.0,0.0,0.0,0.0,0.0,0.0,0.0,0.0,-2.6732,-2.7185,0.0,0.0,0.0,0.0,0.0,0.0,0.0,0.0,0.0,0.0,0.0,0.0,0.0,0.0,0.0,0.0,0.0,0.0,0.0,0.0,0.0,0.0,0.0,0.0,0.0,-2.9484,-3.029,-3.2277,-3.4201,-3.5734,-3.5967,-3.6488,-3.7222,-3.8176,-3.8658,-3.8942,-3.9166,-3.8159,-3.6656,-3.4766,-3.3315,0.0,-3.0161,-3.0226,-3.035,-2.9509,-3.1088,-3.2702,0.0,-3.5294,-3.7593,-4.0057,-4.1382,-4.2638,0.0,-4.4934,0.0,0.0,0.0,0.0,0.0,0.0,0.0,-4.2586,-4.0887,-3.9697,-3.9218,-3.8551,-3.8202,-3.8202,-3.8202,-3.8202,-3.8202,-3.8789,-3.9066,-3.9103,-3.9839,-4.0174,-4.0209,-4.0927,0.0,0.0,-4.2045,-4.1512,-4.0285,-4.0421,-3.9638,-3.8391,-3.8391,-3.8391,-3.8391,0.0,0.0,0.0,0.0,0.0,0.0,0.0,-2.3429,-2.4414,-2.5394,-2.6451,-2.7058,-2.6971,-2.6569,-2.6157,0.0,0.0,0.0,0.0,0.0,0.0,0.0,0.0,0.0,0.0,0.0,0.0,0.0,0.0,0.0,0.0,0.0,0.0,0.0,0.0,0.0,0.0,0.0,0.0,0.0,0.0,0.0,0.0,0.0,0.0,0.0,0.0,0.0,0.0,0.0,0.0,-2.9388,-2.9656,-3.1746,-3.3941,-3.313,0.0,0.0,-3.6047,-3.6843,-3.7847,-3.7364,-3.594,-3.4256,-3.2861,0.0,-2.997,-2.8513,-2.8431,-2.861,-2.852,-2.9255,-3.0597,-3.2869,0.0,-3.5841,-3.9611,-4.0773,-4.1981,-4.3967,0.0,0.0,0.0,0.0,0.0,0.0,0.0,0.0,-4.1265,-4.0002,-3.9262,-3.9204,-3.8551,-3.8202,-3.8202,-3.8202,-3.8202,-3.8202,-3.8277,-3.83,-3.8337,-3.9066,-3.9412,-3.9448,-4.0174,0.0,0.0,-4.1278,-4.0768,-3.9564,-4.0224,-3.9638,-3.8391,-3.8391,-3.8391,-3.8391,0.0,0.0,0.0,0.0,0.0,0.0,0.0,-2.3453,-2.4326,-2.5957,-2.6519,-2.6887,-2.7156,-2.7015,-2.6839,0.0,0.0,0.0,0.0,0.0,0.0,0.0,0.0,0.0,0.0,0.0,0.0,0.0,0.0,0.0,0.0,0.0,0.0,0.0,0.0,0.0,0.0,0.0,0.0,0.0,0.0,0.0,0.0,0.0,0.0,0.0,0.0,0.0,0.0,0.0,0.0,0.0,-2.8823,-2.9893,0.0,0.0,-3.3089,-3.4482,-3.527,-3.6172,-3.6839,-3.653,-3.5381,-3.3773,-3.1721,0.0,-2.9019,-2.7794,-2.7594,-2.7712,-2.7855,-2.8739,-2.995,-3.1319,-3.243,-3.4064,-3.6767,-3.7995,-3.9503,-4.1836,0.0,0.0,0.0,0.0,0.0,0.0,0.0,0.0,-4.011,-3.9316,-3.8654,-3.8241,-3.7983,-3.7839,-3.7839,-3.7839,-3.7839,-3.7839,-3.7839,-3.7839,-3.7839,-3.8277,-3.8449,-3.8523,-3.9391,0.0,0.0,-4.0519,-4.0018,-3.8886,-3.9564,-3.8982,-3.7844,-3.825,-3.8391,-3.8391,0.0,0.0,0.0,0.0,0.0,0.0,-2.2742,-2.3212,-2.3969,-2.5628,-2.6226,-2.6639,-2.6967,-2.7139,-2.719,-2.719,0.0,0.0,0.0,0.0,0.0,0.0,0.0,0.0,0.0,0.0,0.0,0.0,0.0,0.0,0.0,0.0,0.0,0.0,0.0,0.0,0.0,0.0,0.0,0.0,0.0,0.0,0.0,0.0,0.0,0.0,0.0,0.0,0.0,0.0,0.0,0.0,0.0,0.0,0.0,0.0,-3.1577,-3.2587,-3.3987,-3.4888,-3.5301,-3.4882,-3.4037,-3.2721,0.0,-2.9094,-2.8052,-2.7073,-2.6763,-2.6691,-2.6807,-2.7798,-2.8831,-2.959,-3.0711,-3.2303,-3.4761,-3.5997,0.0,0.0,0.0,0.0,0.0,0.0,0.0,0.0,0.0,0.0,-3.901,-3.8453,-3.7951,-3.7601,-3.7625,-3.7625,-3.7625,-3.7625,-3.7625,-3.7625,-3.7625,-3.7625,-3.7625,-3.7739,-3.7815,-3.7853,-3.8509,0.0,0.0,-3.9647,-3.9329,-3.8345,-3.8899,-3.8419,-3.7445,-3.7924,-3.8091,-3.8119,0.0,0.0,0.0,0.0,0.0,0.0,0.0,-2.2765,-2.3602,-2.4154,-2.557,-2.6501,-2.6513,-2.6921,-2.719,-2.719,0.0,0.0,0.0,0.0,0.0,0.0,0.0,0.0,0.0,0.0,0.0,-2.719,0.0,0.0,0.0,0.0,0.0,0.0,0.0,0.0,0.0,0.0,0.0,0.0,0.0,0.0,0.0,0.0,0.0,0.0,0.0,0.0,0.0,0.0,0.0,0.0,0.0,0.0,0.0,0.0,-3.0446,-3.1717,-3.1729,-3.2524,-3.309,-3.1994,-3.132,-3.0513,-2.8871,-2.7705,-2.6779,-2.6214,-2.5685,-2.5312,-2.5312,-2.5931,-2.6813,-2.7956,-2.8733,-3.0566,-3.4392,-3.5448,0.0,0.0,0.0,0.0,0.0,0.0,0.0,0.0,0.0,0.0,-3.7948,-3.733,-3.7187,-3.7586,-3.7625,-3.7625,-3.7625,-3.7625,-3.7625,-3.7625,-3.7625,-3.7625,-3.7625,-3.7625,-3.7625,0.0,0.0,0.0,0.0,-3.8613,-3.8629,-3.8026,-3.8296,-3.8,-3.7417,-3.7414,-3.7417,-3.7506,0.0,0.0,0.0,0.0,0.0,0.0,0.0,-2.249,-2.3224,-2.4085,-2.5222,-2.6083,-2.6467,-2.6921,-2.719,-2.719,0.0,0.0,0.0,0.0,0.0,0.0,0.0,0.0,0.0,0.0,0.0,-2.719,-2.719,-2.719,0.0,0.0,0.0,0.0,0.0,0.0,0.0,0.0,0.0,0.0,0.0,0.0,0.0,0.0,0.0,0.0,0.0,0.0,0.0,0.0,0.0,0.0,0.0,0.0,0.0,-2.8462,-2.9546,0.0,-3.0633,-3.1096,-3.1384,-3.0314,-2.9917,-2.9388,-2.775,-2.7138,-2.6633,-2.5745,-2.5432,-2.5312,-2.5312,-2.5896,-2.6904,-2.841,-2.9263,0.0,0.0,0.0,0.0,0.0,0.0,0.0,0.0,0.0,0.0,0.0,0.0,0.0,-3.7906,-3.7316,-3.707,-3.7187,-3.7187,-3.7187,-3.7187,-3.7187,-3.7187,-3.7187,-3.7187,-3.7187,-3.7187,-3.7341,-3.738,0.0,0.0,0.0,0.0,-3.7924,-3.7401,-3.6512,-3.7193,-3.6772,-3.5896,-3.6492,-3.6996,-3.7447,0.0,0.0,0.0,0.0,0.0,0.0,0.0,-2.2226,-2.2937,-2.3534,-2.4843,-2.583,-2.6152,-2.6806,-2.719,-2.719,0.0,0.0,0.0,0.0,0.0,0.0,0.0,0.0,0.0,-2.719,-2.7282,-2.7518,-2.7518,-2.7518,-2.7518,-2.7518,0.0,0.0,0.0,0.0,0.0,0.0,0.0,0.0,0.0,0.0,0.0,0.0,0.0,0.0,0.0,0.0,0.0,0.0,0.0,0.0,0.0,0.0,0.0,0.0,-2.8683,-2.9402,-2.9496,-2.9737,-2.9785,-2.8919,-2.8703,-2.8342,-2.6935,-2.661,-2.637,-2.5492,-2.5312,-2.5312,-2.5312,-2.5687,-2.647,-2.7903,-2.8537,0.0,0.0,0.0,0.0,0.0,0.0,0.0,0.0,0.0,0.0,0.0,0.0,0.0,-3.7569,-3.7189,-3.6978,-3.6978,-3.6978,-3.6978,-3.6978,-3.6978,-3.6978,-3.6978,-3.6978,-3.6978,-3.6978,-3.7148,-3.7187,0.0,0.0,0.0,0.0,-3.7457,-3.7025,-3.6345,-3.646,-3.6009,-3.5355,-3.5711,-3.6134,-3.6615,0.0,0.0,0.0,0.0,0.0,0.0,0.0,0.0,0.0,0.0,-2.4453,-2.5716,-2.5716,-2.6582,-2.719,0.0,0.0,0.0,0.0,0.0,0.0,0.0,0.0,0.0,0.0,-2.719,-2.7461,-2.7931,-2.7966,-2.7977,-2.7977,-2.8012,-2.7759,0.0,0.0,0.0,0.0,0.0,0.0,0.0,0.0,0.0,0.0,0.0,0.0,0.0,0.0,0.0,0.0,0.0,0.0,0.0,0.0,0.0,0.0,0.0,0.0,0.0,0.0,-2.841,-2.833,-2.7762,-2.7654,-2.744,-2.6346,-2.6154,0.0,-2.5432,-2.5336,-2.536,-2.536,-2.536,-2.5733,-2.6825,-2.7006,0.0,0.0,-3.3581,0.0,0.0,0.0,0.0,0.0,0.0,0.0,0.0,0.0,0.0,-3.7021,-3.6978,-3.6978,-3.6978,-3.6978,-3.6978,-3.6978,-3.6978,-3.6978,-3.6978,-3.6978,-3.6978,-3.6978,-3.6978,-3.6978,0.0,0.0,0.0,0.0,-3.7187,-3.7208,-3.7048,-3.6057,-3.5617,-3.5497,-3.4996,-3.4942,-3.5272,0.0,0.0,0.0,0.0,0.0,0.0,0.0,0.0,0.0,0.0,0.0,-2.5716,-2.5716,-2.6582,0.0,0.0,0.0,0.0,0.0,0.0,0.0,0.0,0.0,0.0,0.0,-2.719,-2.7247,-2.7415,-2.7793,-2.7977,-2.7989,-2.8356,-2.8276,-2.7805,-2.7805,0.0,0.0,0.0,0.0,0.0,0.0,0.0,0.0,0.0,0.0,0.0,0.0,-2.6978,0.0,0.0,0.0,0.0,0.0,0.0,0.0,0.0,-2.7335,-2.71,-2.736,0.0,-2.7777,-2.721,-2.739,-2.744,0.0,-2.6743,-2.6959,-2.5588,-2.5636,-2.5913,-2.5913,-2.5913,-2.6394,-2.7897,0.0,0.0,-3.2839,0.0,0.0,0.0,0.0,0.0,0.0,0.0,0.0,0.0,0.0,-3.7133,-3.6993,-3.6978,-3.6978,-3.6978,-3.6978,-3.6978,-3.6978,-3.6978,-3.6978,-3.6978,-3.6978,-3.6978,-3.6978,-3.6978,-3.6978,0.0,0.0,0.0,-3.6978,-3.707,-3.6507,-3.5672,-3.5523,-3.4902,-3.4107,-3.412,-3.4486,-3.4993,0.0,0.0,0.0,0.0,0.0,0.0,0.0,0.0,0.0,0.0,0.0,0.0,0.0,0.0,0.0,0.0,0.0,0.0,0.0,0.0,0.0,0.0,0.0,0.0,0.0,-2.719,-2.7408,-2.7908,-2.8172,-2.8436,-2.8677,-2.8689,-2.8436,-2.7977,-2.7736,0.0,0.0,0.0,0.0,0.0,0.0,0.0,0.0,0.0,0.0,0.0,-2.719,-2.7047,0.0,-2.6887,-2.6702,-2.645,0.0,0.0,0.0,0.0,-2.7053,-2.6825,-2.7189,-2.7172,-2.6978,-2.6693,-2.6657,-2.6526,-2.5944,-2.6123,-2.6172,-2.5362,-2.5433,-2.5745,-2.6045,-2.6093,-2.655,0.0,-2.8354,0.0,0.0,0.0,0.0,0.0,0.0,0.0,0.0,0.0,0.0,0.0,0.0,-3.6978,-3.6978,-3.6978,-3.6978,-3.6978,-3.6978,-3.6978,-3.6978,-3.6978,-3.6978,-3.6978,-3.6978,-3.6978,-3.6978,-3.6978,-3.6978,0.0,0.0,0.0,-3.6964,-3.6722,-3.6216,-3.5555,-3.5066,-3.4445,-3.3847,-3.3684,-3.3888,-3.4337,0.0,0.0,0.0,0.0,0.0,0.0,0.0,0.0,0.0,0.0,0.0,0.0,0.0,0.0,0.0,0.0,0.0,0.0,0.0,0.0,0.0,0.0,0.0,-2.719,-2.719,-2.719,-2.7603,-2.8471,-2.862,-2.893,-2.9366,-2.8999,-2.8517,-2.7966,-2.7461,0.0,0.0,0.0,0.0,0.0,0.0,0.0,0.0,0.0,0.0,0.0,0.0,0.0,0.0,-2.7093,-2.6961,-2.6869,-2.6976,0.0,0.0,0.0,0.0,0.0,-2.7209,-2.6846,-2.6347,-2.6423,-2.6094,-2.5681,-2.5528,-2.5271,-2.505,-2.5052,0.0,0.0,0.0,-2.6284,0.0,0.0,0.0,0.0,-3.3583,0.0,0.0,0.0,0.0,0.0,0.0,0.0,0.0,0.0,0.0,-3.6978,-3.6978,-3.6978,-3.6978,-3.6978,-3.6978,-3.6978,-3.6978,-3.6978,-3.6978,-3.6978,-3.6978,-3.6978,-3.6978,-3.6978,-3.6978,-3.6978,0.0,0.0,-3.6796,-3.6314,-3.6005,-3.5686,-3.461,-3.4147,-3.3992,-3.3473,-3.3396,-3.364,0.0,0.0,0.0,0.0,0.0,0.0,0.0,0.0,0.0,0.0,0.0,0.0,0.0,0.0,0.0,0.0,0.0,0.0,0.0,0.0,0.0,0.0,0.0,-2.719,-2.719,-2.719,-2.7259,-2.7419,-2.8287,-2.8746,-2.8827,-2.9194,-2.8873,-2.7966,-2.7461,-2.719,0.0,0.0,0.0,0.0,0.0,0.0,0.0,0.0,0.0,0.0,0.0,0.0,0.0,-2.6439,-2.6003,-2.5333,-2.5858,0.0,0.0,0.0,0.0,0.0,-2.6422,-2.6541,-2.6533,-2.6874,-2.6932,-2.6611,-2.5791,-2.5824,-2.5824,0.0,0.0,0.0,0.0,-2.71,-2.7853,0.0,0.0,-3.2827,0.0,0.0,0.0,0.0,0.0,0.0,0.0,0.0,0.0,0.0,0.0,-3.6978,-3.6978,-3.6978,-3.6978,-3.6978,-3.6978,-3.6978,-3.6978,-3.6978,-3.6978,-3.6978,-3.6978,-3.6978,-3.6978,-3.6978,-3.6978,-3.6978,0.0,-3.6722,-3.6244,-3.6145,-3.5447,-3.4455,-3.4273,-3.388,-3.3417,-3.3319,-3.3326,-3.3396,0.0,0.0,0.0,0.0,0.0,0.0,0.0,0.0,0.0,0.0,0.0,0.0,0.0,0.0,0.0,0.0,0.0,0.0,0.0,0.0,0.0,0.0,-2.719,-2.719,-2.719,-2.7495,-2.777,-2.8023,-2.8769,-2.9263,-2.9515,-2.9206,-2.8528,-2.7564,-2.7293,-2.719,-2.719,0.0,0.0,0.0,0.0,0.0,0.0,0.0,0.0,0.0,0.0,0.0,0.0,0.0,-2.5172,-2.4196,-2.5123,0.0,0.0,0.0,0.0,0.0,-2.4552,-2.4563,-2.4579,-2.5464,-2.6232,-2.6651,-2.6186,-2.6047,-2.5872,0.0,0.0,0.0,0.0,0.0,-2.8386,-3.0095,0.0,-3.2629,0.0,0.0,0.0,0.0,0.0,0.0,0.0,0.0,0.0,0.0,0.0,0.0,-3.6978,-3.6978,-3.6978,-3.6978,-3.6978,-3.6978,-3.6978,-3.6978,-3.6978,-3.6978,-3.6978,-3.6978,-3.6978,-3.6978,-3.6978,-3.6964,0.0,-3.637,-3.6061,-3.5363,-3.4745,-3.4175,-3.3838,-3.3529,-3.329,-3.329,-3.329,-3.3326,0.0,0.0,0.0,0.0,0.0,0.0,0.0,0.0,0.0,0.0,0.0,0.0,0.0,0.0,0.0,0.0,0.0,0.0,0.0,0.0,-2.719,-2.719,-2.719,-2.719,-2.719,-2.7725,-2.8161,-2.854,-2.9183,-2.9619,-2.9837,-2.8941,-2.8069,-2.719,-2.719,-2.719,-2.719,-2.719,0.0,0.0,0.0,0.0,0.0,0.0,0.0,0.0,0.0,0.0,0.0,0.0,0.0,0.0,0.0,0.0,0.0,-2.3197,-2.2746,-2.2325,-2.2953,-2.2797,-2.2788,-2.3924,-2.5043,-2.5966,-2.6404,-2.6071,-2.5823,-2.622,0.0,0.0,0.0,-2.7718,0.0,-3.0998,-3.1456,0.0,0.0,0.0,0.0,0.0,0.0,0.0,0.0,0.0,0.0,0.0,0.0,0.0,-3.6348,-3.6573,-3.6691,-3.6691,-3.69,-3.6978,-3.6978,-3.6978,-3.6978,-3.6978,-3.6978,-3.6978,-3.6978,-3.6978,-3.6908,-3.6778,-3.6314,-3.5949,-3.5559,-3.4582,-3.4119,-3.3936,-3.3473,-3.329,-3.329,-3.329,-3.329,-3.329,0.0,0.0,0.0,0.0,0.0,0.0,0.0,0.0,0.0,0.0,0.0,0.0,0.0,0.0,0.0,0.0,0.0,0.0,0.0,0.0,-2.719,-2.719,-2.719,-2.719,-2.719,-2.7725,-2.8042,-2.8035,-2.901,-2.9263,-2.8804,-2.8276,-2.7748,-2.719,-2.719,-2.719,-2.719,-2.719,-2.719,0.0,0.0,0.0,0.0,0.0,0.0,0.0,0.0,0.0,0.0,0.0,0.0,0.0,0.0,0.0,-2.176,-2.1407,-2.1251,-2.1411,-2.2323,-2.2519,-2.2642,-2.3248,-2.3663,-2.4349,-2.6086,-2.6071,-2.598,-2.6932,0.0,0.0,0.0,-2.8444,-2.9765,-3.1157,-3.1984,0.0,0.0,0.0,0.0,0.0,0.0,0.0,0.0,0.0,0.0,0.0,0.0,0.0,-3.4472,-3.5318,-3.579,-3.579,-3.6573,-3.6978,-3.6978,-3.6978,-3.6978,-3.6978,-3.6978,-3.6978,-3.6978,-3.6978,-3.6708,-3.6174,-3.6131,-3.5419,-3.4329,-3.4231,-3.3866,-3.3347,-3.3304,-3.329,-3.329,-3.329,-3.329,-3.329,0.0,0.0,0.0,0.0,0.0,0.0,0.0,0.0,0.0,0.0,0.0,0.0,0.0,0.0,0.0,0.0,0.0,0.0,0.0,0.0,-2.733,-2.7231,-2.719,-2.719,-2.719,-2.8023,-2.8425,-2.8425,-2.9148,-2.9068,-2.8253,-2.8069,0.0,0.0,-2.719,-2.719,-2.719,-2.719,-2.719,-2.719,0.0,0.0,0.0,0.0,0.0,0.0,0.0,0.0,0.0,0.0,-2.2981,-2.2027,-2.192,-2.1438,-2.087,-2.0467,-2.0354,-2.0379,-2.0464,-2.1135,-2.184,-2.2331,-2.2877,-2.3823,-2.5769,-2.6501,-2.7088,-2.8365,-2.8643,0.0,0.0,0.0,-2.9407,-3.0682,0.0,0.0,0.0,0.0,0.0,0.0,0.0,0.0,0.0,0.0,0.0,0.0,0.0,0.0,-3.3833,-3.4361,-3.4897,-3.544,-3.595,-3.6455,-3.6978,-3.6978,-3.6978,-3.6978,-3.6978,-3.6978,-3.6978,-3.6978,-3.6694,-3.6089,-3.5695,-3.5026,-3.4175,-3.3796,-3.3501,-3.329,-3.329,-3.329,-3.329,-3.329,-3.329,-3.329,0.0,0.0,0.0,0.0,0.0,0.0,0.0,0.0,0.0,0.0,0.0,0.0,0.0,0.0,0.0,0.0,0.0,0.0,0.0,0.0,-2.6558,-2.6734,-2.6745,-2.6622,-2.6332,-2.7473,-2.8159,-2.8471,-2.8838,-2.8654,-2.7977,0.0,0.0,-2.719,-2.719,-2.719,-2.719,-2.719,-2.719,-2.719,-2.719,0.0,0.0,0.0,0.0,0.0,0.0,0.0,0.0,0.0,-2.2346,-2.1431,-2.1055,-2.0633,-2.0214,-1.9852,-1.9783,-1.9829,-1.9577,-2.017,-2.1007,-2.1738,-2.2419,-2.3536,-2.5768,-2.6723,-2.7701,-2.9589,-2.9722,-2.9332,-2.8804,0.0,0.0,0.0,0.0,0.0,0.0,0.0,0.0,0.0,0.0,0.0,0.0,0.0,0.0,0.0,0.0,0.0,0.0,-3.3224,-3.3775,-3.443,-3.4815,-3.5521,-3.6573,-3.652,-3.6638,-3.6978,-3.6796,-3.6796,-3.6978,-3.6782,-3.6399,-3.578,-3.5175,-3.452,-3.388,-3.3459,-3.329,-3.329,-3.329,-3.329,-3.329,-3.329,-3.329,-3.329,0.0,0.0,0.0,0.0,0.0,0.0,0.0,0.0,0.0,0.0,0.0,0.0,0.0,0.0,0.0,0.0,0.0,0.0,0.0,-2.5485,-2.4723,-2.5723,-2.5766,-2.5358,-2.4531,-2.5851,-2.7054,-2.7977,-2.7977,-2.7977,-2.7966,-2.7461,0.0,-2.719,-2.719,-2.719,-2.719,-2.719,-2.719,-2.7179,-2.7179,-2.7179,0.0,0.0,0.0,0.0,0.0,0.0,0.0,0.0,-2.2749,-2.2191,-2.0869,-2.0226,-1.982,-1.943,-1.9604,-1.9893,-1.9884,-1.9893,-2.0231,-2.1542,-2.2293,-2.343,-2.6162,-2.6691,-2.7458,-3.0364,-3.0216,-2.9343,-2.8804,-2.8712,0.0,-3.0044,0.0,0.0,0.0,0.0,0.0,0.0,0.0,0.0,0.0,0.0,0.0,0.0,0.0,0.0,0.0,-3.1813,-3.2389,-3.2581,-3.3242,-3.4251,-3.5655,-3.5427,-3.5869,-3.6964,-3.6399,-3.6427,-3.695,-3.6385,-3.5766,-3.5147,-3.4506,-3.3852,-3.329,-3.329,-3.329,-3.329,-3.329,-3.329,-3.329,-3.329,-3.329,-3.329,0.0,0.0,0.0,0.0,0.0,0.0,0.0,0.0,0.0,0.0,0.0,0.0,0.0,0.0,0.0,0.0,0.0,0.0,0.0,0.0,0.0,0.0,0.0,0.0,0.0,0.0,-2.5723,-2.7023,-2.7682,-2.7805,0.0,0.0,-2.719,-2.719,-2.719,-2.719,-2.719,-2.719,-2.7024,-2.6691,-2.6691,-2.6691,0.0,0.0,0.0,0.0,0.0,0.0,0.0,0.0,0.0,0.0,-2.0252,-2.0175,-2.0567,-1.9586,-1.9797,-2.0218,-1.9641,-2.0386,-2.1304,-2.1334,-2.2365,-2.3782,0.0,-2.6361,0.0,0.0,-2.9986,-2.9848,-2.9355,0.0,0.0,0.0,0.0,0.0,0.0,0.0,0.0,0.0,0.0,0.0,0.0,0.0,0.0,0.0,0.0,0.0,0.0,-3.088,-3.1424,-3.2079,-3.2141,-3.2979,-3.478,-3.4323,-3.4626,-3.5723,-3.5541,-3.578,-3.6356,-3.5738,-3.5119,-3.4506,-3.4287,-3.3852,-3.329,-3.329,-3.329,-3.329,-3.329,-3.329,-3.329,-3.329,-3.329,-3.329,0.0,0.0,0.0,0.0,0.0,0.0,0.0,0.0,0.0,0.0,0.0,0.0,0.0,0.0,0.0,0.0,0.0,0.0,0.0,0.0,0.0,0.0,0.0,0.0,0.0,-2.4016,-2.4364,0.0,0.0,0.0,0.0,0.0,-2.719,-2.719,-2.719,-2.7116,-2.6921,-2.6921,-2.6749,-2.6501,-2.6501,-2.6501,-2.6421,0.0,0.0,0.0,0.0,0.0,0.0,0.0,0.0,0.0,-1.988,-1.9696,-2.0085,-1.9855,-1.9882,-2.008,-2.0211,-2.0784,-2.1488,-2.2013,-2.298,-2.4033,-2.5106,0.0,0.0,0.0,-2.9154,-2.9522,-2.924,-2.9026,0.0,0.0,0.0,0.0,0.0,0.0,0.0,0.0,0.0,0.0,0.0,0.0,0.0,0.0,0.0,0.0,0.0,-3.0167,-3.0442,-3.1057,-3.0618,-3.1218,-3.2943,-3.2949,-3.3492,-3.4588,-3.4738,-3.4983,-3.5321,-3.4955,-3.459,-3.4189,-3.395,-3.3627,-3.329,-3.329,-3.329,-3.329,-3.329,-3.329,-3.329,-3.329,-3.329,-3.329,0.0,0.0,0.0,0.0,0.0,0.0,0.0,0.0,0.0,0.0,-2.7546,0.0,0.0,0.0,0.0,0.0,0.0,0.0,0.0,0.0,0.0,0.0,0.0,0.0,0.0,0.0,0.0,0.0,0.0,0.0,0.0,-2.7056,-2.7056,-2.7056,-2.7133,-2.6898,-2.6501,-2.6455,-2.6409,-2.6363,-2.6363,-2.6363,-2.6306,-2.5761,0.0,0.0,0.0,0.0,0.0,0.0,0.0,0.0,-1.9835,-1.9054,-1.8988,-2.0081,-1.9883,-1.9626,-2.1115,-2.1051,-2.0976,-2.3047,-2.3767,-2.4202,-2.5333,-2.7435,-2.8763,-2.7367,0.0,-2.8585,-2.8678,-2.8364,0.0,0.0,0.0,0.0,0.0,0.0,0.0,0.0,0.0,0.0,0.0,0.0,0.0,0.0,0.0,0.0,0.0,-2.9688,-2.95,-2.9697,-2.9026,-2.9291,-3.0659,-3.1322,-3.2201,-3.3382,-3.3744,-3.396,-3.401,-3.4082,-3.4119,-3.409,-3.3529,-3.329,-3.329,-3.329,-3.329,-3.329,-3.329,-3.329,-3.329,-3.329,-3.329,-3.329,0.0,0.0,0.0,0.0,0.0,0.0,0.0,0.0,0.0,0.0,0.0,0.0,0.0,0.0,0.0,0.0,0.0,0.0,0.0,0.0,0.0,0.0,0.0,0.0,0.0,0.0,0.0,0.0,0.0,0.0,-2.5094,-2.5799,-2.6091,-2.611,-2.6501,-2.6605,-2.6478,-2.6048,-2.5635,-2.5245,-2.5245,-2.5245,-2.5199,-2.4705,-2.4682,0.0,0.0,0.0,0.0,0.0,0.0,0.0,-1.9835,-1.9246,-1.9231,-1.9471,-1.946,-1.9451,-2.0111,-2.0398,-2.0848,-2.2241,-2.3373,-2.4212,-2.4473,-2.5567,-2.6422,-2.6091,-2.6819,-2.7757,-2.8527,0.0,0.0,0.0,0.0,0.0,0.0,0.0,0.0,0.0,0.0,0.0,0.0,0.0,0.0,0.0,0.0,0.0,-2.963,-2.916,-2.8873,-2.8948,-2.8433,-2.8649,-2.9768,-2.9506,-3.0174,0.0,-3.1803,-3.2094,-3.2586,-3.3225,-3.3473,-3.3473,-3.3347,-3.329,-3.329,-3.329,-3.329,-3.329,-3.329,-3.329,-3.329,-3.329,-3.329,-3.329,0.0,0.0,0.0,0.0,0.0,0.0,0.0,0.0,0.0,0.0,0.0,0.0,0.0,0.0,0.0,0.0,0.0,0.0,0.0,0.0,-2.0615,-2.1418,0.0,0.0,0.0,0.0,0.0,0.0,0.0,-2.3418,-2.4488,-2.4756,-2.5227,-2.5808,-2.5798,-2.5956,-2.6071,-2.5543,-2.5164,-2.4912,-2.4912,-2.4774,-2.4545,-2.4292,-2.4051,-2.3844,-2.3833,0.0,0.0,0.0,0.0,0.0,0.0,0.0,-1.8847,-1.9409,-1.918,-1.8985,-2.017,-2.049,-2.086,-2.2227,0.0,-2.3914,-2.4156,-2.4587,-2.4971,-2.4971,-2.5781,-2.6628,-2.7163,0.0,0.0,0.0,0.0,0.0,0.0,0.0,0.0,0.0,0.0,0.0,0.0,0.0,0.0,0.0,0.0,-2.8827,-2.9102,-2.8632,-2.8356,-2.8356,-2.7874,-2.7858,-2.8397,-2.8598,-2.9137,-3.0025,-3.0831,-3.1526,-3.2128,-3.2717,-3.3016,-3.3016,-3.3206,-3.329,-3.329,-3.329,-3.329,-3.329,-3.329,-3.329,-3.329,-3.329,-3.329,-3.329,0.0,0.0,0.0,0.0,0.0,0.0,0.0,0.0,0.0,0.0,0.0,0.0,0.0,0.0,0.0,0.0,0.0,0.0,0.0,-2.0166,-2.0991,-2.2157,0.0,0.0,0.0,0.0,0.0,0.0,0.0,-2.1978,-2.4118,-2.3873,-2.4315,-2.5326,-2.4923,-2.5032,-2.5415,-2.4721,-2.45,-2.4611,-2.4568,-2.4292,-2.3936,-2.3936,-2.3408,-2.2731,-2.3121,-2.3281,-2.3198,-2.2718,0.0,0.0,0.0,0.0,-1.8202,-1.9286,-1.8826,-1.8368,-2.0156,-2.0589,-2.0946,-2.2428,-2.3096,0.0,-2.3819,-2.3892,-2.3843,-2.3843,-2.4681,-2.5499,0.0,0.0,0.0,0.0,0.0,0.0,0.0,0.0,0.0,0.0,0.0,0.0,0.0,0.0,0.0,0.0,0.0,-2.8482,-2.8574,-2.8115,-2.7851,-2.7851,-2.7449,-2.719,-2.719,-2.8051,-2.8493,-2.8652,-3.0114,-3.1156,-3.175,-3.2151,-3.2475,-3.2739,-3.3051,-3.3241,-3.329,-3.329,-3.329,-3.329,-3.329,-3.329,-3.329,-3.329,-3.329,-3.329,0.0,0.0,0.0,0.0,0.0,0.0,0.0,0.0,0.0,0.0,-2.5408,-2.5373,-2.5277,-2.3029,0.0,0.0,0.0,0.0,-1.8815,0.0,0.0,0.0,0.0,0.0,0.0,0.0,0.0,0.0,-2.0378,-2.0909,-2.259,-2.2993,-2.3298,-2.3448,-2.3423,-2.3777,-2.4419,-2.3102,-2.2961,-2.3568,-2.3155,-2.2972,-2.2914,-2.2914,-2.2834,-2.2719,-2.2754,-2.2777,-2.2571,-2.1197,-2.0673,0.0,0.0,0.0,-1.7696,-1.8184,-1.7972,-1.7761,-1.8537,-1.9761,-2.1107,0.0,-2.2573,-2.274,0.0,0.0,-2.247,0.0,-2.3511,0.0,0.0,0.0,0.0,0.0,0.0,0.0,0.0,0.0,0.0,0.0,0.0,0.0,0.0,0.0,0.0,0.0,-2.7908,-2.761,-2.8057,-2.7598,-2.7334,-2.7334,-2.7224,-2.719,-2.719,-2.7342,-2.7684,-2.8287,-2.9003,-2.9704,-3.0292,-3.0696,-3.1539,-3.2704,-3.2775,-3.298,-3.329,-3.329,-3.329,-3.329,-3.329,-3.329,-3.329,-3.329,-3.329,-3.329,0.0,0.0,0.0,0.0,0.0,0.0,0.0,0.0,0.0,0.0,0.0,-2.3777,-2.4164,-2.2308,0.0,0.0,0.0,0.0,-1.8984,-1.957,0.0,0.0,0.0,0.0,0.0,0.0,0.0,0.0,-1.9522,-1.9952,-2.131,-2.1774,-2.2484,-2.3393,-2.2909,-2.3319,-2.4211,-2.2811,-2.2653,-2.3361,-2.2891,-2.2857,-2.3041,-2.2478,-2.2432,-2.2605,-2.1925,-2.1688,-2.1552,-2.0755,-2.0165,-1.9673,-1.9003,0.0,0.0,0.0,-1.7642,-1.7734,-1.8771,-1.97,-2.0602,0.0,-2.1956,-2.2098,-2.2312,-2.2271,-2.2215,-2.2215,-2.2691,0.0,0.0,0.0,0.0,0.0,0.0,0.0,0.0,0.0,0.0,0.0,0.0,0.0,0.0,0.0,0.0,0.0,-2.7431,-2.7282,-2.7552,-2.7305,-2.719,-2.719,-2.719,-2.719,-2.719,-2.719,-2.7545,-2.8219,-2.8474,-2.9106,-2.9999,-3.0177,-3.0921,-3.2092,-3.2525,-3.281,-3.298,-3.3206,-3.329,-3.329,-3.329,-3.329,-3.329,-3.329,-3.329,-3.329,0.0,0.0,0.0,0.0,0.0,0.0,0.0,0.0,0.0,0.0,0.0,0.0,-2.334,0.0,0.0,0.0,0.0,0.0,-1.8965,0.0,0.0,0.0,0.0,0.0,0.0,0.0,0.0,-1.9155,-1.8962,-1.9485,-2.0677,-2.108,-2.1994,-2.3326,-2.2553,-2.2745,-2.3568,-2.2268,-2.2215,-2.2916,-2.267,-2.2774,-2.3045,-2.264,-2.2742,-2.2937,-2.1778,-2.1341,-2.1217,-2.0413,-1.9722,-1.9166,0.0,0.0,0.0,0.0,0.0,-1.7479,-1.8746,-1.924,-1.9643,-2.0864,-2.1182,-2.1313,0.0,0.0,-2.1734,0.0,0.0,0.0,0.0,0.0,0.0,0.0,0.0,0.0,0.0,0.0,0.0,0.0,0.0,0.0,0.0,0.0,0.0,0.0,-2.719,-2.719,-2.719,-2.719,-2.719,-2.719,-2.719,-2.719,-2.719,-2.719,-2.7464,-2.7938,-2.7938,-2.8526,-2.9535,-2.9535,-3.0152,-3.1246,-3.2151,-3.2596,-3.2739,-3.3122,-3.329,-3.329,-3.329,-3.329,-3.329,-3.329,-3.329,-3.329,0.0,0.0,0.0,0.0,0.0,0.0,0.0,0.0,0.0,0.0,0.0,0.0,0.0,0.0,0.0,0.0,0.0,0.0,0.0,0.0,0.0,0.0,0.0,0.0,0.0,0.0,-1.9118,-1.8742,-1.91,-1.9888,-2.1089,-2.1458,-2.1924,-2.2346,-2.1932,-2.1757,-2.1779,-2.0879,-2.0971,-2.1711,-2.2063,-2.2262,-2.2399,-2.3614,-2.4097,-2.3982,-2.296,-2.2605,-2.2241,0.0,-1.9039,-1.8782,-1.7439,-1.6989,-1.6936,0.0,0.0,0.0,-1.7443,-1.7796,0.0,-1.964,-2.0087,-2.0297,0.0,0.0,0.0,0.0,0.0,0.0,0.0,0.0,0.0,0.0,0.0,0.0,0.0,0.0,0.0,0.0,0.0,0.0,0.0,0.0,0.0,0.0,-2.719,-2.719,-2.719,-2.719,-2.719,-2.719,-2.719,-2.719,-2.719,-2.719,-2.7231,-2.7272,-2.7272,-2.7626,-2.8287,-2.8287,-2.8949,-3.0152,-3.1529,-3.2345,-3.2739,-3.3122,-3.329,-3.329,-3.329,-3.329,-3.329,-3.329,-3.329,-3.329,0.0,0.0,0.0,0.0,0.0,0.0,0.0,0.0,0.0,0.0,0.0,0.0,0.0,-2.0534,-1.971,-1.8916,0.0,0.0,0.0,0.0,0.0,0.0,0.0,0.0,0.0,-1.8766,-1.8476,-1.8292,-1.8201,-1.876,-1.9962,-2.0383,-2.0744,-2.1138,-2.1522,-2.1848,-2.2074,-2.0916,-2.1165,-2.2366,-2.2251,-2.2911,-2.3946,-2.4125,-2.4602,-2.4963,-2.3486,-2.2771,0.0,0.0,0.0,-1.9342,-1.8354,-1.7676,-1.7111,-1.6514,-1.6319,-1.6448,-1.7151,0.0,0.0,-1.8759,-1.9298,-1.9609,-1.9988,-2.0165,-2.0292,-2.0292,0.0,0.0,0.0,0.0,0.0,0.0,0.0,0.0,0.0,0.0,0.0,0.0,0.0,0.0,0.0,0.0,0.0,0.0,0.0,-2.719,-2.719,-2.719,-2.719,-2.719,-2.719,-2.719,-2.719,-2.719,-2.719,-2.719,-2.719,-2.7545,-2.8219,-2.8219,-2.887,-3.0037,-3.0809,-3.1442,-3.2019,-3.2646,-3.2895,-3.2931,-3.3206,-3.329,-3.329,-3.329,-3.329,-3.329,0.0,0.0,0.0,0.0,0.0,0.0,0.0,0.0,0.0,-2.1103,0.0,0.0,0.0,0.0,-1.9972,-1.9104,-1.8682,0.0,0.0,0.0,0.0,0.0,0.0,0.0,0.0,-1.8443,-1.8017,-1.7917,-1.777,-1.8183,-1.9118,-1.9628,-2.0095,-2.0539,-2.09,-2.142,-2.1921,-2.099,-2.1271,-2.2212,-2.2262,-2.3197,-2.4598,-2.4902,-2.5501,-2.6027,-2.4711,0.0,0.0,0.0,0.0,0.0,-1.9339,-1.8086,-1.6892,-1.6194,-1.6045,-1.621,-1.6682,0.0,0.0,0.0,-1.8596,-1.8956,-1.9554,0.0,-2.0103,-2.0103,0.0,0.0,0.0,0.0,0.0,0.0,0.0,0.0,0.0,0.0,0.0,0.0,0.0,0.0,0.0,0.0,0.0,0.0,0.0,0.0,-2.719,-2.719,-2.719,-2.719,-2.719,-2.719,-2.719,-2.719,-2.719,-2.719,-2.719,-2.7423,-2.7857,-2.7857,-2.8407,-2.9419,-2.9896,-3.0658,-3.1666,-3.2237,-3.2489,-3.2525,-3.2945,-3.3086,-3.3122,-3.3241,-3.329,-3.329,0.0,0.0,0.0,0.0,0.0,0.0,0.0,0.0,-2.1719,-2.1268,0.0,0.0,0.0,0.0,0.0,-2.0029,-1.9561,-1.9307,-1.9326,0.0,0.0,0.0,0.0,0.0,-1.8748,-1.8332,-1.7944,-1.755,-1.7944,-1.8339,-1.8733,-1.9491,-2.0085,-2.0484,-2.0058,-2.0323,-2.1089,-2.1062,-2.1071,-2.1238,-2.2101,-2.3074,-2.4158,-2.5882,-2.6839,-2.7167,-2.6691,-2.6198,0.0,-2.382,0.0,0.0,-2.0082,-1.8021,-1.6264,-1.6068,-1.5867,-1.5786,0.0,0.0,0.0,0.0,0.0,0.0,-1.9392,0.0,-1.9665,0.0,0.0,0.0,0.0,0.0,0.0,0.0,0.0,0.0,0.0,0.0,0.0,0.0,0.0,0.0,0.0,0.0,0.0,0.0,-2.719,-2.719,-2.719,-2.719,-2.719,-2.719,-2.719,-2.719,-2.719,-2.719,-2.719,-2.719,-2.719,-2.719,-2.719,-2.719,-2.7586,-2.8207,-2.8819,-3.0012,-3.1593,-3.1946,-3.2092,-3.2128,-3.2525,-3.2704,-3.2739,-3.3122,-3.329,-3.329,0.0,0.0,0.0,0.0,0.0,0.0,-2.2353,-2.1816,-2.1484,0.0,0.0,0.0,-2.1846,-2.1494,-2.1093,-2.0849,-2.0176,-1.9873,-2.0233,-1.9666,-1.935,-1.9512,-1.9383,-1.9438,-1.9799,-1.8959,-1.8632,-1.8797,-1.8632,-1.8605,-1.8724,-1.9237,-1.9696,-2.0049,-1.9939,-2.0209,-2.064,-2.0044,-2.0684,-2.2006,-2.1746,-2.3104,0.0,0.0,0.0,0.0,0.0,-2.7472,-2.7213,0.0,-2.4837,-2.2771,0.0,-1.7649,-1.6645,-1.615,-1.6363,-1.667,-1.6211,0.0,0.0,0.0,0.0,0.0,0.0,0.0,0.0,0.0,0.0,0.0,0.0,0.0,0.0,0.0,0.0,0.0,0.0,0.0,0.0,0.0,0.0,0.0,0.0,0.0,0.0,0.0,-2.719,-2.719,-2.719,-2.719,-2.719,-2.719,-2.719,-2.719,-2.719,-2.719,-2.719,-2.719,-2.719,-2.719,-2.719,-2.719,-2.7586,-2.8219,-2.8367,-2.9211,-3.0533,-3.1394,-3.174,-3.1776,-3.2128,-3.2453,-3.2704,-3.281,-3.3051,-3.329,0.0,0.0,0.0,0.0,0.0,-2.2672,-2.2539,-2.2194,-2.2019,0.0,0.0,0.0,-2.2139,-2.1924,-2.1658,-2.1523,-2.083,-2.0576,-2.083,-2.0205,-1.9856,-1.988,-1.9668,-1.9737,-2.0183,-1.9206,-1.8907,-1.9301,-1.8742,-1.855,-1.8715,-1.8944,-1.9182,-1.9372,-1.9207,-1.9485,-1.9962,-1.9146,-1.9885,0.0,-2.1999,0.0,0.0,-2.5978,-2.7102,0.0,0.0,0.0,-2.8207,-2.7713,-2.5641,0.0,0.0,-1.8215,-1.7038,-1.6533,-1.6764,-1.7135,-1.6883,-1.6852,0.0,0.0,0.0,0.0,0.0,-1.8162,0.0,0.0,0.0,0.0,0.0,0.0,0.0,0.0,0.0,0.0,0.0,0.0,0.0,0.0,0.0,0.0,0.0,-2.5966,-2.6787,-2.719,-2.719,-2.719,-2.719,-2.719,-2.719,-2.719,-2.719,-2.719,-2.719,-2.719,-2.719,-2.719,-2.719,-2.719,-2.719,-2.719,-2.7423,-2.7777,-2.8099,-2.8605,-2.9341,-3.0482,-3.111,-3.1384,-3.174,-3.2019,-3.2273,-3.2596,-3.286,-3.3086,0.0,0.0,-2.3091,-2.3091,-2.3091,-2.2974,-2.2637,-2.2857,-2.2955,0.0,-2.2867,-2.2974,-2.2695,-2.2607,-2.2432,-2.206,-2.1631,-2.1317,-2.1268,-2.0889,-2.0537,-2.0264,-2.0029,-1.9972,-2.0151,-1.9298,-1.9017,-1.9366,-1.8669,-1.8447,-1.8779,-1.8779,-1.8751,-1.8696,-1.8348,-1.8577,-1.9191,-1.8485,-1.9024,-2.0596,-2.2294,-2.309,0.0,0.0,-2.753,-2.7534,-2.8745,-2.9041,-2.8781,-2.8099,-2.5617,0.0,0.0,-1.9321,-1.7614,-1.7174,-1.7215,0.0,-1.773,-1.7603,0.0,0.0,-1.7393,0.0,-1.7775,-1.798,-1.8102,0.0,0.0,0.0,0.0,0.0,0.0,0.0,0.0,0.0,0.0,0.0,0.0,0.0,0.0,0.0,-2.3823,-2.5062,-2.6133,-2.6962,-2.7138,-2.719,-2.719,-2.719,-2.719,-2.719,-2.719,-2.719,-2.719,-2.719,-2.719,-2.719,-2.719,-2.719,-2.719,-2.719,-2.719,-2.7231,-2.7817,-2.8139,-2.8287,-2.9341,-3.0241,-3.0936,-3.1371,-3.1556,-3.1666,-3.2381,-3.2668,-3.2775,0.0,0.0,-2.3091,-2.3091,-2.3091,-2.3062,-2.2984,-2.3042,-2.3062,-2.2984,-2.3042,-2.3198,-2.3506,-2.3223,-2.2945,-2.2857,-2.251,-2.2119,0.0,-2.1348,-2.0739,-2.0,-1.9942,-1.9902,-1.9957,-1.9769,-1.9692,-1.9765,-1.9619,-1.9399,-1.9191,-1.9191,-1.9017,-1.8705,-1.8632,-1.8687,-1.8815,-1.8669,0.0,-2.009,-2.0768,0.0,-2.3796,-2.4356,-2.6142,-2.8259,-2.736,-2.8269,-2.9633,-2.7672,-2.5557,-2.3399,0.0,-1.9889,-1.8815,-1.8091,-1.8356,-1.8709,-1.7993,-1.8233,-1.8395,-1.7324,0.0,0.0,-1.7457,-1.7673,-1.8102,0.0,0.0,0.0,0.0,0.0,0.0,0.0,0.0,0.0,0.0,0.0,0.0,0.0,0.0,0.0,-2.2702,-2.4585,-2.5872,-2.6038,-2.6787,-2.719,-2.719,-2.719,-2.719,-2.719,-2.719,-2.719,-2.719,-2.719,-2.719,-2.719,-2.719,-2.719,-2.719,-2.719,-2.719,-2.7231,-2.7353,-2.7708,-2.8219,-2.8447,-2.9184,-3.0279,-3.0898,-3.131,-3.1666,-3.2055,-3.2417,-3.2775,0.0,-2.3091,-2.3091,-2.3091,-2.3091,-2.3091,-2.3091,-2.3091,-2.3169,-2.3437,-2.3467,-2.3467,-2.3467,-2.3227,-2.3091,-2.3091,-2.2711,0.0,0.0,-2.1551,-2.0933,-2.0273,-2.0016,-1.9996,-2.0209,-1.9994,-1.9985,-2.0186,-1.9985,-1.9674,-1.9301,-1.9301,-1.9191,-1.8999,-1.8797,-1.8815,-1.899,-1.8797,-1.9063,-1.9745,-2.1287,0.0,-2.325,-2.4832,-2.619,-2.7179,-2.6894,-2.7454,-2.8065,-2.6528,-2.491,0.0,0.0,-2.0497,-1.9751,0.0,-1.9136,-1.9445,-1.8754,-1.8765,-1.8818,-1.813,0.0,0.0,0.0,-1.7856,-1.804,-1.8509,-1.8442,0.0,0.0,0.0,0.0,0.0,0.0,0.0,0.0,0.0,0.0,0.0,0.0,0.0,-2.2989,-2.4243,-2.5368,-2.6445,-2.6921,-2.719,-2.719,-2.719,-2.719,-2.719,-2.719,-2.719,-2.719,-2.719,-2.719,-2.719,-2.719,-2.719,-2.719,-2.719,-2.719,-2.719,-2.719,-2.7383,-2.7748,-2.8059,-2.8712,-2.96,-3.0241,-3.081,-3.1347,-3.1703,-3.2092,-3.2453,0.0,-2.3091,-2.3091,-2.3091,-2.3091,-2.3091,-2.3091,-2.3091,-2.3286,-2.3848,-2.3906,-2.3848,-2.3617,-2.352,-2.3539,-2.3705,-2.3144,0.0,0.0,-2.1882,-2.1155,-2.073,-2.0292,-2.0136,-2.0393,-2.0122,-2.0085,-2.0283,-2.0003,-1.9674,-1.9301,-1.9301,-1.9256,-1.9173,-1.8935,-1.8999,-1.9283,0.0,0.0,-1.9961,0.0,-2.2561,-2.2298,-2.5221,-2.6004,-2.5603,-2.6795,-2.682,-2.6182,-2.554,-2.4466,-2.3169,-2.1909,-2.1151,0.0,0.0,0.0,0.0,0.0,0.0,0.0,0.0,0.0,-1.8589,0.0,0.0,0.0,-1.8538,0.0,0.0,0.0,0.0,0.0,0.0,0.0,0.0,0.0,0.0,0.0,0.0,0.0,0.0,0.0,-2.3521,-2.4724,-2.7056,-2.6964,-2.6912,-2.719,-2.719,-2.719,-2.719,-2.719,-2.719,-2.719,-2.719,-2.719,-2.719,-2.719,-2.719,-2.719,-2.719,-2.719,-2.719,-2.719,-2.719,-2.7231,-2.7777,-2.8367,-2.9015,-2.9716,-3.0394,-3.1061,-3.1445,-3.1813,-3.2164,-2.3091,-2.3091,-2.3091,-2.3091,-2.3091,-2.3091,-2.3091,-2.3091,-2.3383,-2.4238,-2.4346,-2.4629,-2.5313,-2.5088,-2.5166,-2.5947,-2.456,0.0,-2.417,0.0,-2.1591,-2.1157,-2.0718,-2.0345,-1.9998,-2.025,-2.0118,-1.9439,-1.9769,-1.9674,-1.9301,-1.9301,-1.9118,-1.8788,-1.91,-1.9256,-1.9292,0.0,-2.009,0.0,-2.1747,-2.1415,0.0,-2.2704,-2.3908,-2.4871,-2.657,-2.6597,-2.5767,0.0,-2.5123,-2.4114,0.0,-2.1992,-2.1394,-2.0622,0.0,0.0,0.0,0.0,0.0,0.0,-1.9875,0.0,0.0,0.0,-1.8965,-1.8735,0.0,0.0,0.0,0.0,0.0,0.0,0.0,0.0,0.0,0.0,0.0,0.0,0.0,0.0,0.0,-2.1993,-2.3917,-2.6981,-2.6084,-2.5947,-2.7126,-2.719,-2.719,-2.719,-2.719,-2.719,-2.719,-2.719,-2.719,-2.719,-2.719,-2.719,-2.719,-2.719,-2.719,-2.719,-2.719,-2.719,-2.719,-2.726,-2.7696,-2.8407,-2.9574,-3.0394,-3.1061,-3.1445,-3.1813,-3.2164,-2.3091,-2.3091,-2.3091,-2.3091,-2.3091,-2.3091,-2.3091,-2.3949,-2.4543,-2.4443,-2.5088,-2.5703,-2.6074,-2.5723,-2.5713,-2.6338,-2.5488,-2.4775,0.0,0.0,-2.2159,-2.157,-2.0803,-2.0424,-2.0604,-2.0287,-2.0118,-2.0008,-1.9912,-1.9674,-1.9301,0.0,-1.9467,-1.976,-1.9696,-2.0053,-2.0644,0.0,-2.0402,0.0,0.0,0.0,0.0,-2.285,-2.3929,-2.4439,-2.5169,-2.5206,-2.475,0.0,-2.3849,0.0,0.0,0.0,0.0,0.0,0.0,0.0,0.0,0.0,0.0,0.0,0.0,0.0,-1.9286,0.0,-1.9061,0.0,0.0,0.0,0.0,0.0,0.0,0.0,0.0,0.0,0.0,0.0,0.0,0.0,0.0,0.0,0.0,0.0,0.0,0.0,-2.537,-2.5676,-2.6732,-2.707,-2.719,-2.719,-2.719,-2.719,-2.719,-2.719,-2.719,-2.719,-2.719,-2.719,-2.719,-2.719,-2.719,-2.719,-2.719,-2.719,-2.719,-2.719,-2.7586,-2.8259,-2.8764,-2.9574,-3.047,-3.1048,-3.1482,-3.185,-2.3091,0.0,0.0,-2.3091,-2.3091,-2.314,-2.3257,-2.4394,-2.5098,-2.4767,-2.5723,-2.6523,-2.6875,-2.6631,-2.6709,0.0,-2.6719,-2.5996,0.0,0.0,-2.293,-2.2384,-2.1188,-2.0731,-2.1089,-2.0438,-2.0085,-2.0182,-1.9976,-1.9674,-1.9301,0.0,-1.9732,-2.0182,-2.0118,-2.0598,-2.1485,0.0,-2.1,-2.1321,-2.1504,-2.1575,-2.1686,-2.3235,-2.4009,-2.4202,-2.4202,-2.4202,-2.4101,-2.3297,-2.3068,0.0,-2.2108,0.0,0.0,0.0,0.0,0.0,-2.0891,0.0,0.0,0.0,0.0,0.0,0.0,0.0,0.0,0.0,0.0,0.0,0.0,0.0,0.0,0.0,0.0,0.0,0.0,0.0,0.0,0.0,0.0,0.0,0.0,0.0,0.0,0.0,0.0,-2.5058,-2.6411,-2.6818,-2.7082,-2.7179,-2.719,-2.719,-2.719,-2.719,-2.719,-2.719,-2.719,-2.719,-2.719,-2.719,-2.719,-2.719,-2.719,-2.719,-2.719,-2.719,-2.7505,-2.7938,-2.8139,-2.8764,-2.9613,-3.0432,-3.111,-3.1593,-2.3091,-2.3091,0.0,-2.3091,-2.3091,-2.3237,-2.3711,-2.3818,-2.4297,-2.5479,-2.6103,-2.6865,-2.8096,0.0,0.0,0.0,0.0,-2.7659,-2.7762,0.0,-2.4011,-2.3839,-2.2257,-2.1272,-2.1108,-2.0704,-2.0118,-1.9338,-1.9742,-1.9674,-1.9311,-1.9683,-1.9705,-1.9375,-2.0154,-2.0732,-2.1154,-2.1495,-2.2327,-2.337,-2.2995,-2.3354,-2.4009,0.0,-2.3474,-2.4202,-2.4202,0.0,0.0,-2.3618,-2.3471,0.0,0.0,0.0,0.0,0.0,0.0,0.0,0.0,0.0,0.0,-2.0671,0.0,0.0,0.0,0.0,-1.9756,0.0,0.0,0.0,0.0,0.0,0.0,0.0,0.0,0.0,0.0,0.0,0.0,0.0,0.0,0.0,0.0,0.0,0.0,0.0,0.0,0.0,-2.6365,-2.6513,-2.6714,-2.7179,-2.719,-2.719,-2.719,-2.719,-2.719,-2.719,-2.719,-2.719,-2.719,-2.719,-2.719,-2.719,-2.719,-2.719,-2.719,-2.719,-2.7231,-2.7313,-2.7938,-2.8219,-2.8407,-2.9574,-3.0684,-3.1593,0.0,0.0,0.0,0.0,0.0,-2.3247,-2.3721,-2.4766,-2.5771,-2.6484,-2.7207,0.0,0.0,-2.9307,-2.9424,0.0,0.0,-2.8641,-2.7891,-2.6114,0.0,-2.4694,-2.2973,-2.2098,0.0,-2.1392,-2.064,-2.0108,-1.9948,-1.9674,-1.9301,-1.9448,-1.9723,-2.0118,-2.0393,-2.1147,0.0,0.0,0.0,0.0,0.0,-2.3437,-2.4174,0.0,0.0,-2.4202,-2.4202,-2.4202,0.0,-2.4045,-2.3767,-2.3398,-2.2867,-2.2501,-2.2199,-2.1806,-2.1696,0.0,0.0,0.0,-2.1559,-2.1044,0.0,0.0,0.0,0.0,0.0,0.0,0.0,0.0,0.0,0.0,0.0,0.0,0.0,0.0,0.0,0.0,0.0,0.0,0.0,0.0,0.0,0.0,0.0,0.0,-2.3054,0.0,0.0,-2.6329,-2.6703,-2.7179,-2.719,-2.719,-2.719,-2.719,-2.719,-2.719,-2.719,-2.719,-2.719,-2.719,-2.719,-2.719,-2.719,-2.719,-2.719,-2.719,-2.719,-2.7231,-2.7464,-2.7817,-2.8339,-2.9535,-3.0228,-3.0646,-2.2837,-2.2625,0.0,0.0,-2.3256,-2.3602,-2.3975,-2.5382,-2.6606,0.0,-2.7839,0.0,-2.9907,0.0,-2.9971,0.0,-3.0071,-2.9319,-2.7997,-2.6892,0.0,-2.5465,-2.4012,0.0,0.0,-2.2171,-2.1273,-2.0723,-2.0433,-2.0072,-1.9531,-1.9668,-1.9861,0.0,0.0,-2.122,-2.2474,-2.2492,-2.2821,0.0,0.0,-2.3694,0.0,0.0,-2.4202,-2.4202,0.0,-2.4202,-2.4202,-2.4202,-2.3978,-2.3684,-2.3242,-2.284,-2.2419,-2.2016,-2.1806,-2.1696,-2.1696,-2.1696,0.0,-2.1209,-2.0915,0.0,-2.0012,0.0,0.0,0.0,0.0,0.0,0.0,0.0,0.0,0.0,0.0,0.0,0.0,0.0,0.0,0.0,0.0,0.0,0.0,0.0,-2.0458,-2.2096,-2.2574,0.0,0.0,0.0,-2.6427,-2.6944,-2.7087,-2.719,-2.719,-2.719,-2.719,-2.719,-2.719,-2.719,-2.719,-2.719,-2.719,-2.719,-2.719,-2.719,-2.719,-2.719,-2.719,-2.719,-2.719,-2.7464,-2.7978,-2.9223,-2.996,-3.047,-2.3002,-2.2709,0.0,-2.2802,-2.3525,0.0,0.0,0.0,-2.6615,0.0,-2.7962,-2.8862,-2.9709,-3.0015,-3.0353,-3.0791,-3.0577,-2.9767,-2.8292,-2.7817,0.0,0.0,-2.5289,-2.4707,-2.4303,0.0,0.0,0.0,-2.1126,-2.0704,-1.9902,-2.0278,-2.0072,0.0,-2.0163,0.0,-2.1742,-2.2565,-2.3419,-2.4202,-2.4202,-2.4202,-2.4202,-2.4202,-2.4202,-2.4202,-2.4202,-2.4202,-2.4202,-2.4202,-2.4202,-2.4128,-2.3675,-2.3242,-2.2849,-2.241,-2.2016,-2.1723,-2.1696,-2.1696,-2.1595,-2.1236,0.0,0.0,0.0,0.0,-2.0438,0.0,0.0,0.0,0.0,0.0,0.0,0.0,0.0,0.0,0.0,0.0,0.0,0.0,0.0,0.0,0.0,-1.9167,-1.9764,-2.2702,-2.1919,0.0,0.0,0.0,-2.5945,-2.649,-2.6967,-2.719,-2.719,-2.719,-2.719,-2.719,-2.719,-2.719,-2.719,-2.719,-2.719,-2.719,-2.719,-2.719,-2.719,-2.719,-2.719,-2.719,-2.719,-2.7231,-2.7383,-2.8621,-2.9871,-3.0949,-2.2739,-2.2916,-2.3205,0.0,-2.3456,-2.3679,0.0,0.0,0.0,0.0,-2.8055,-2.8899,-2.9792,-2.9936,-3.0043,-3.0157,-3.0098,0.0,0.0,0.0,0.0,-2.7765,-2.6471,-2.5663,-2.5552,-2.4005,0.0,-2.2016,0.0,-2.0704,-1.9893,-1.9994,-1.993,0.0,0.0,0.0,-2.1742,-2.2565,-2.3419,-2.4202,-2.4202,-2.4202,0.0,0.0,-2.4202,-2.4202,-2.4202,-2.4202,-2.4202,-2.4202,-2.4202,-2.4128,-2.3675,-2.3425,-2.3206,-2.2492,-2.2208,-2.2062,-2.1769,-2.1696,-2.1668,-2.1559,-2.1337,-2.1053,0.0,0.0,0.0,0.0,0.0,0.0,0.0,0.0,0.0,0.0,0.0,0.0,0.0,0.0,0.0,0.0,0.0,0.0,0.0,0.0,-2.112,-2.1623,-2.2747,0.0,0.0,0.0,0.0,-2.649,-2.6967,-2.719,-2.719,-2.719,-2.719,-2.719,-2.719,-2.719,-2.719,-2.719,-2.719,-2.719,-2.719,-2.719,-2.719,-2.719,-2.719,-2.719,-2.719,-2.7505,-2.8059,-2.8819,-2.96,-3.0317,-2.301,-2.3537,0.0,-2.4479,0.0,0.0,-2.5277,-2.5829,0.0,-2.7121,-2.7939,0.0,-2.9104,-2.9587,-2.9922,-2.9922,-2.9804,0.0,-2.8995,0.0,0.0,-2.8122,-2.7416,-2.6857,-2.6554,-2.5078,0.0,-2.2812,0.0,0.0,-2.014,0.0,0.0,0.0,0.0,-2.0869,-2.1495,-2.2666,-2.3474,-2.3904,-2.4128,0.0,0.0,-2.4202,-2.4202,-2.4202,-2.4202,-2.4202,-2.4202,-2.4202,-2.4202,-2.4165,-2.3877,-2.3684,-2.3407,-2.295,-2.2556,-2.2227,-2.2007,-2.1824,-2.1696,-2.1696,-2.1513,-2.1337,-2.1145,-2.1108,-2.1044,0.0,0.0,0.0,0.0,0.0,0.0,0.0,0.0,0.0,0.0,0.0,0.0,0.0,0.0,0.0,0.0,0.0,0.0,0.0,0.0,0.0,0.0,0.0,0.0,-2.6117,-2.6634,-2.7001,-2.719,-2.719,-2.719,-2.719,-2.719,-2.719,-2.719,-2.719,-2.719,-2.719,-2.719,-2.719,-2.719,-2.719,-2.719,-2.719,-2.719,-2.7423,-2.7857,-2.8474,-2.925,-3.0037,-2.359,0.0,0.0,0.0,0.0,0.0,0.0,-2.6707,0.0,-2.7084,0.0,-2.8273,-2.8273,-2.9205,-2.9813,-2.9813,0.0,-2.9083,-2.8377,-2.8766,-2.8663,-2.8015,-2.8223,-2.8058,-2.7352,-2.6149,-2.4876,0.0,0.0,0.0,-2.047,0.0,0.0,0.0,0.0,0.0,0.0,-2.2821,-2.348,-2.3657,-2.4055,-2.4202,-2.4202,-2.4202,-2.4202,-2.4202,-2.4202,-2.4202,-2.4202,-2.4202,-2.4202,-2.4202,-2.4202,-2.3904,-2.3563,-2.3508,-2.2995,-2.2419,-2.2355,-2.2025,-2.176,-2.1705,-2.1696,-2.1595,-2.1273,-2.119,-2.119,-2.119,-2.119,-2.1282,0.0,0.0,0.0,0.0,0.0,0.0,0.0,0.0,0.0,0.0,0.0,0.0,0.0,0.0,0.0,0.0,0.0,0.0,0.0,0.0,0.0,-2.5654,-2.6198,-2.6714,-2.7179,0.0,-2.719,-2.719,-2.719,-2.719,-2.719,-2.719,-2.719,-2.719,-2.719,-2.719,-2.719,-2.719,-2.719,-2.719,-2.719,-2.719,-2.7272,-2.7857,-2.8803,-2.9806,-2.4556,0.0,0.0,0.0,0.0,-2.7022,-2.7465,-2.7299,-2.7289,-2.7621,-2.8376,-2.8891,-2.8891,-2.9011,-2.9163,-2.9163,-2.9094,0.0,0.0,0.0,0.0,-2.8773,-2.8526,-2.8324,-2.8187,-2.671,-2.5488,0.0,0.0,0.0,-2.0521,0.0,0.0,0.0,0.0,0.0,-2.2602,-2.2885,0.0,-2.4101,-2.4174,-2.4202,-2.4202,-2.4202,-2.4202,-2.4202,-2.4202,-2.4202,-2.4202,-2.4202,-2.4202,-2.4202,-2.4202,-2.4156,-2.3978,-2.359,-2.3398,-2.3133,-2.2465,-2.2227,-2.2099,-2.1769,-2.1696,-2.1668,-2.1595,-2.1577,-2.1577,-2.1577,-2.1577,-2.1504,-2.1273,0.0,0.0,0.0,0.0,0.0,0.0,0.0,0.0,0.0,0.0,0.0,0.0,0.0,0.0,0.0,0.0,0.0,0.0,0.0,0.0,0.0,-2.6198,0.0,0.0,0.0,-2.719,-2.719,-2.719,-2.719,-2.719,-2.719,-2.719,-2.719,-2.719,-2.719,-2.719,-2.719,-2.719,-2.719,-2.719,-2.719,-2.7231,-2.7342,-2.7857,-2.8645,-2.5986,0.0,0.0,0.0,0.0,0.0,0.0,-2.8104,-2.8031,-2.7849,-2.8171,-2.8352,-2.8352,-2.8728,-2.8984,-2.8984,-2.8984,-2.8984,-2.8984,-2.8984,-2.8984,-2.8984,-2.8801,0.0,-2.8397,-2.7205,-2.5995,-2.4785,0.0,0.0,0.0,0.0,0.0,0.0,0.0,-2.1449,0.0,0.0,0.0,-2.3859,-2.4119,-2.4202,-2.4202,-2.4202,-2.4202,-2.4202,-2.4202,-2.4202,-2.4202,-2.4202,-2.4202,-2.4202,-2.4202,-2.4202,-2.4165,-2.3914,-2.3712,-2.3407,-2.3014,-2.2757,-2.251,-2.2099,-2.1998,-2.1943,-2.1742,-2.1696,-2.1696,-2.1696,-2.1696,-2.1559,-2.1181,-2.0787,0.0,0.0,0.0,0.0,0.0,0.0,0.0,0.0,0.0,0.0,0.0,0.0,0.0,0.0,0.0,0.0,0.0,0.0,0.0,0.0,0.0,0.0,0.0,0.0,0.0,-2.719,-2.719,-2.719,-2.719,-2.719,-2.719,-2.719,-2.719,-2.719,-2.719,-2.719,-2.719,-2.719,-2.719,-2.719,-2.719,-2.719,-2.7383,-2.7857,0.0,-2.7627,0.0,0.0,-2.8242,0.0,-2.8627,-2.8984,-2.8948,-2.8189,-2.8079,-2.8079,-2.8079,-2.8599,-2.8984,-2.8984,-2.8984,-2.8984,-2.8984,-2.8984,-2.8984,-2.8984,-2.8984,-2.8838,-2.8526,-2.7811,-2.6646,0.0,0.0,0.0,0.0,0.0,0.0,0.0,0.0,0.0,0.0,0.0,-2.3444,-2.395,-2.4189,-2.4339,-2.433,-2.4238,-2.4202,-2.4202,-2.4202,-2.4202,-2.4202,-2.4202,-2.4202,-2.4202,-2.4202,-2.4202,-2.4202,-2.4202,-2.3923,-2.3657,-2.3517,-2.327,-2.2931,-2.2519,-2.2346,-2.2199,-2.1888,-2.1751,-2.1696,-2.1696,-2.1696,-2.1559,-2.1181,-2.0924,0.0,0.0,0.0,0.0,0.0,0.0,0.0,0.0,0.0,0.0,0.0,0.0,0.0,0.0,0.0,0.0,-2.2692,-2.2456,-2.3297,0.0,0.0,-2.6152,-2.7059,0.0,-2.719,-2.719,-2.719,-2.719,-2.719,-2.719,-2.719,-2.719,-2.719,-2.719,-2.719,-2.719,-2.719,-2.719,-2.719,-2.719,-2.719,-2.719,-2.719,-2.7342,0.0,0.0,0.0,0.0,0.0,0.0,-2.9406,-2.9819,-2.9791,-2.8975,-2.8865,-2.8865,-2.8865,-2.8938,-2.8984,-2.8984,-2.8984,-2.8984,-2.8984,-2.8984,-2.8984,-2.8984,-2.8984,-2.8966,-2.8929,-2.8498,-2.7481,0.0,0.0,-2.3584,0.0,0.0,0.0,0.0,0.0,0.0,0.0,-2.4073,-2.4542,-2.517,-2.4849,-2.4721,-2.4684,-2.4349,-2.4202,-2.4202,-2.4202,-2.4202,-2.4202,-2.4202,-2.4202,-2.4202,-2.4202,-2.4202,-2.4202,-2.4202,-2.4174,-2.4064,-2.3648,-2.3471,-2.3343,-2.295,-2.2565,-2.2272,-2.2227,-2.1952,-2.1696,-2.1696,-2.1696,-2.1559,-2.1181,-2.1392,-2.1339,0.0,0.0,0.0,0.0,0.0,0.0,0.0,0.0,0.0,0.0,0.0,0.0,0.0,0.0,0.0,-2.1918,-2.3202,-2.4283,-2.4969,0.0,-2.598,-2.657,-2.7001,-2.719,-2.719,-2.719,-2.719,-2.719,-2.719,-2.719,-2.719,-2.719,-2.719,-2.719,-2.719,-2.719,-2.719,-2.719,-2.719,-2.719,-2.719,-2.719,-2.7313,0.0,0.0,0.0,0.0,0.0,0.0,0.0,-3.0094,-3.0085,-2.9755,-2.9498,-2.9333,-2.9333,-2.9122,-2.8984,-2.8984,-2.8984,-2.8984,-2.8984,-2.8984,-2.8984,-2.8984,-2.8984,-2.8984,-2.8984,-2.8599,-2.7719,0.0,0.0,-2.4216,-2.241,-2.1989,0.0,0.0,0.0,-2.3684,-2.4578,-2.4578,-2.4909,-2.5405,-2.5197,-2.4996,-2.4757,-2.4643,-2.4422,-2.4202,-2.4202,-2.4202,-2.4202,-2.4202,-2.4202,-2.4202,-2.4202,-2.4202,-2.4202,-2.4202,-2.4202,-2.4165,-2.395,-2.3904,-2.3813,-2.3361,-2.2959,-2.2593,-2.2336,-2.197,-2.1696,-2.1696,-2.1696,-2.1641,-2.1476,-2.1376,-2.1293,0.0,0.0,0.0,0.0,0.0,0.0,0.0,0.0,0.0,0.0,0.0,0.0,0.0,0.0,0.0,0.0,-2.2408,0.0,-2.4174,0.0,-2.5957,-2.6501,-2.6978,-2.719,-2.719,-2.719,-2.719,-2.719,-2.719,-2.719,-2.719,-2.719,-2.719,-2.719,-2.719,-2.719,-2.719,-2.719,-2.719,-2.719,-2.719,-2.719,-2.7231,-3.0204,0.0,-2.9883,0.0,-3.0121,-3.0066,-3.0488,-3.0543,-3.0543,-3.0543,-3.0185,-2.9837,-2.9659,-2.9324,-2.9113,-2.8993,-2.8984,-2.8984,-2.8984,-2.8984,-2.8984,-2.8984,-2.8984,0.0,-2.8984,-2.8709,-2.8031,-2.694,-2.6296,0.0,-2.3599,0.0,0.0,0.0,-2.4088,-2.4689,-2.5133,-2.5133,-2.5414,-2.572,-2.5644,-2.5433,-2.5115,-2.5005,-2.4753,-2.4385,-2.4385,-2.4312,-2.4202,-2.4202,-2.4202,-2.4202,-2.4202,-2.4202,-2.4202,-2.4202,-2.4202,-2.4202,-2.4202,-2.4202,-2.4137,-2.3794,-2.337,-2.2968,-2.2556,-2.2153,-2.1833,-2.1714,-2.1696,-2.1696,-2.1696,-2.1449,-2.1346,-2.1476,0.0,0.0,0.0,0.0,0.0,0.0,-2.0021,-1.9622,-1.9329,0.0,0.0,0.0,0.0,0.0,0.0,0.0,0.0,0.0,0.0,0.0,0.0,-2.6978,-2.719,-2.719,-2.719,-2.719,-2.719,-2.719,-2.719,-2.719,-2.719,-2.719,-2.719,-2.719,-2.719,-2.719,-2.719,-2.719,-2.719,-2.719,-2.719,-2.719,-3.0204,-3.0195,-3.0314,-3.0717,-3.0781,-3.091,-3.1304,-3.1359,-3.1359,-3.1359,-3.102,-3.047,-2.9663,-2.9632,-2.9406,-2.9012,-2.8984,-2.8984,-2.8984,-2.8984,-2.8984,0.0,0.0,-2.8984,-2.8984,-2.8975,-2.8572,-2.7803,0.0,0.0,-2.5378,0.0,-2.4404,-2.4757,-2.4776,-2.5267,-2.5993,-2.5993,-2.6241,-2.6536,-2.6177,-2.6002,-2.5957,-2.5561,-2.5115,-2.4776,-2.4776,-2.456,-2.4202,-2.4202,-2.4202,-2.4202,-2.4202,-2.4202,-2.4202,-2.4202,-2.4202,-2.4202,-2.4202,-2.4202,-2.4202,-2.4192,-2.384,-2.338,-2.2986,-2.2574,-2.2163,-2.1769,-2.1696,-2.1696,-2.1696,-2.1687,-2.1549,-2.1181,0.0,0.0,0.0,0.0,0.0,0.0,-1.9806,-1.9311,-1.9301,0.0,0.0,0.0,0.0,0.0,0.0,0.0,0.0,-2.4863,-2.544,0.0,-2.6501,-2.6978,-2.719,-2.719,-2.719,-2.719,-2.719,-2.719,-2.719,-2.719,-2.719,-2.719,-2.719,-2.719,-2.719,-2.719,-2.719,-2.719,-2.719,-2.719,-2.719,-2.719,-3.1002,-3.1002,-3.1038,-3.1167,-3.1194,-3.1231,-3.1359,-3.1377,-3.1377,-3.1377,-3.1267,-3.0992,-3.0461,-2.9901,-2.9525,0.0,-2.914,-2.8984,0.0,-2.8984,-2.8984,-2.8984,-2.8984,-2.8984,-2.8984,-2.8984,-2.8718,-2.8196,0.0,0.0,0.0,-2.5561,-2.5506,-2.5644,-2.5885,-2.6151,-2.6389,-2.6389,-2.6463,-2.6582,-2.6444,-2.6215,-2.5993,-2.5874,-2.558,-2.524,-2.524,-2.5148,-2.5038,-2.5038,-2.4854,-2.4633,-2.4633,-2.4431,-2.4202,-2.4202,-2.4202,-2.4202,-2.4202,-2.4202,-2.4202,-2.4202,-2.3849,-2.3462,-2.3334,-2.2776,-2.2172,-2.1769,-2.1696,-2.1696,-2.1696,-2.1696,-2.165,-2.1513,-2.1604,0.0,0.0,0.0,0.0,0.0,-2.0292,-1.9916,0.0,-1.9806,0.0,0.0,0.0,0.0,0.0,0.0,0.0,0.0,-2.549,0.0,-2.6501,-2.6978,-2.719,-2.719,-2.719,-2.719,-2.719,-2.719,-2.719,-2.719,-2.719,-2.719,-2.719,-2.719,-2.719,-2.719,-2.719,-2.719,-2.719,-2.719,-2.719,-2.719,-3.1377,-3.1377,-3.1377,-3.1377,-3.1377,-3.1377,-3.1377,-3.1377,-3.1377,-3.1377,-3.1377,-3.1277,-3.1038,-3.0424,0.0,-2.9659,-2.9342,-2.914,-2.8993,-2.8984,-2.8984,-2.8984,-2.8984,-2.8984,-2.8984,-2.8984,0.0,-2.8618,-2.8205,-2.7536,-2.6692,-2.6535,-2.6398,-2.626,-2.6472,-2.6591,-2.6591,-2.6591,-2.6591,-2.6591,-2.6591,-2.6435,-2.6251,-2.6251,-2.6002,-2.5644,-2.5644,-2.5552,-2.5424,-2.5424,-2.5207,-2.5056,-2.5056,-2.4872,-2.4597,-2.4293,-2.4202,-2.4202,-2.4202,-2.4202,-2.4202,-2.4202,-2.396,-2.373,-2.3526,-2.2986,-2.24,-2.1998,-2.1916,-2.187,-2.1723,-2.1696,-2.1696,-2.1696,-2.1696,-2.1696,-2.1696,0.0,0.0,0.0,0.0,0.0,0.0,-2.0218,-2.0365,0.0,0.0,0.0,0.0,0.0,0.0,-2.4704,-2.5882,0.0,-2.6749,-2.707,-2.719,-2.719,-2.719,-2.719,-2.719,-2.719,-2.719,-2.719,-2.719,-2.719,-2.719,-2.719,-2.719,-2.719,-2.719,-2.719,-2.719,-2.719,-2.719,-2.719,-3.1377,-3.1377,-3.1377,0.0,-3.1377,0.0,-3.1377,-3.1377,-3.1377,-3.1377,-3.1377,-3.1377,-3.1377,-3.1047,-3.0516,-2.9727,0.0,0.0,0.0,-2.9003,-2.8984,-2.8984,-2.8984,-2.8984,-2.8984,-2.8984,-2.8984,-2.8984,-2.859,-2.8196,-2.7858,-2.7454,-2.7022,-2.6664,-2.6637,-2.6628,-2.6628,-2.66,-2.6591,-2.6591,-2.6591,-2.6591,-2.6591,-2.6591,-2.6344,-2.6058,-2.6058,-2.5819,-2.5454,-2.5454,-2.5488,-2.546,-2.546,-2.5442,-2.5267,-2.4477,-2.4248,-2.4238,-2.4211,-2.4202,-2.4202,-2.4202,-2.4202,-2.4101,-2.359,-2.3215,-2.2831,-2.241,-2.23,-2.2172,-2.1797,-2.1705,-2.1696,-2.1696,-2.1696,-2.1696,-2.1696,0.0,0.0,0.0,0.0,0.0,0.0,-2.0534,-2.0689,0.0,0.0,0.0,0.0,0.0,-2.377,-2.6359,-2.6496,-2.6737,-2.7138,-2.719,-2.719,-2.719,-2.719,-2.719,-2.719,-2.719,-2.719,-2.719,-2.719,-2.719,-2.719,-2.719,-2.719,-2.719,-2.719,-2.719,-2.719,-2.719,-2.7213,-2.7247,0.0,0.0,-3.1377,-3.1377,-3.1377,-3.1377,-3.1377,-3.1377,-3.1377,-3.1377,-3.1377,-3.1377,-3.1377,-3.1295,-3.1038,-3.0543,-2.9929,-2.9534,-2.9434,-2.9149,-2.8984,-2.8984,-2.8984,-2.8984,-2.8984,-2.8984,-2.8984,-2.8984,-2.859,-2.8342,-2.8242,-2.782,-2.7638,-2.7528,-2.7169,-2.704,-2.7013,-2.6719,-2.6591,-2.6591,-2.6591,-2.6591,-2.6591,-2.6591,-2.6527,-2.6444,-2.6444,-2.638,-2.6307,-2.6307,-2.6087,-2.5874,-2.5874,-2.5663,-2.5271,-2.4776,-2.4638,-2.4615,-2.4293,-2.4202,-2.4202,-2.4202,-2.4202,-2.4101,-2.359,-2.3425,-2.3242,-2.284,-2.2501,-2.2254,-2.2153,-2.1897,-2.1696,-2.1696,-2.1696,-2.1696,-2.1696,-2.1604,0.0,0.0,-2.131,-2.1156,-2.0576,-2.0916,-2.0974,0.0,0.0,0.0,0.0,-2.336,-2.4305,-2.5891,-2.6639,-2.693,-2.6663,-2.7015,-2.719,-2.719,-2.719,-2.719,-2.719,-2.719,-2.719,-2.719,-2.719,-2.719,-2.719,-2.719,-2.719,-2.719,-2.719,-2.719,-2.719,-2.719,-2.7472,-2.7805,-3.1377,-3.1377,-3.1377,-3.1377,-3.1377,-3.1377,-3.1377,-3.1377,-3.1377,-3.1377,-3.1377,-3.1377,-3.1377,-3.1377,-3.1295,-3.1075,-3.0488,-2.9965,-2.9599,-2.9369,-2.9168,-2.8993,-2.8984,-2.8984,-2.8984,-2.8984,-2.8984,-2.8984,-2.8764,-2.8572,-2.8388,-2.8159,-2.8005,-2.7813,-2.7601,-2.7444,-2.7435,-2.7215,-2.7132,-2.7132,-2.7132,-2.7132,-2.7132,-2.7132,-2.7013,-2.6857,-2.6857,-2.6747,-2.6591,-2.6591,-2.6435,-2.6243,-2.6243,-2.6096,-2.5848,-2.5488,-2.5197,-2.5056,-2.4826,-2.4633,-2.444,-2.4248,-2.4202,-2.4146,-2.3868,-2.3822,-2.3703,-2.3251,-2.2995,-2.2776,-2.2602,-2.2236,-2.1961,-2.1961,-2.1806,-2.1696,-2.1696,-2.1696,0.0,-2.142,-2.1549,-2.1478,-2.0953,-2.1228,-2.1167,-2.063,-2.1689,0.0,-2.3044,-2.4178,-2.5119,-2.5831,-2.6345,-2.655,-2.6487,-2.6962,-2.719,-2.719,-2.719,-2.719,-2.719,-2.719,-2.719,-2.719,-2.719,-2.719,-2.719,-2.719,-2.7328,-2.7575,-2.7575,-2.7702,-2.7897,-2.7897,-2.8069,-2.831,-3.1377,-3.1377,-3.1377,-3.1377,-3.1377,-3.1377,-3.1377,-3.1377,-3.1377,-3.1377,-3.1377,-3.1377,-3.1377,-3.1377,-3.1377,-3.1377,-3.1075,-3.0552,-2.98,-2.97,-2.9516,-2.9177,-2.9104,-2.9076,-2.9076,-2.9012,-2.8984,-2.8984,-2.8984,-2.881,-2.8489,-2.8489,-2.8287,-2.8005,-2.7941,-2.7914,-2.7914,-2.7849,-2.7822,-2.7822,-2.7822,-2.7822,-2.7822,-2.7822,-2.761,-2.727,-2.727,-2.705,-2.6765,-2.6765,-2.6765,-2.6756,-2.6692,-2.6683,-2.6609,-2.6306,-2.592,-2.5527,-2.5451,-2.5139,-2.4702,-2.4385,-2.4248,-2.4202,-2.4202,-2.4202,-2.4101,-2.3712,-2.3535,-2.3398,-2.3059,-2.2602,-2.2282,-2.2282,-2.1952,-2.1696,-2.1696,0.0,-2.1696,-2.1651,-2.1651,-2.1562,-2.1347,-2.1302,-2.1248,-2.1132,-2.2429,-2.3304,-2.34,-2.485,-2.5686,-2.5686,-2.5822,-2.6093,-2.6487,-2.688,-2.7138,-2.719,-2.719,-2.719,-2.719,-2.719,-2.719,-2.719,-2.719,-2.7236,-2.7305,-2.7305,-2.7644,-2.8092,-2.8092,-2.8344,-2.87,-2.87,-2.8746,-2.8827,-3.1377,-3.1377,-3.1377,-3.1377,-3.1377,-3.1377,-3.1377,-3.1377,-3.1377,-3.1377,-3.1377,-3.1377,-3.1377,-3.1377,-3.1377,-3.1377,-3.1322,-3.1093,-3.0626,-3.0286,-3.0075,-3.002,-2.9672,-2.9479,-2.9479,-2.9149,-2.8984,-2.8984,-2.8984,-2.8948,-2.8893,-2.8893,-2.8856,-2.8783,-2.8443,-2.8297,-2.8269,-2.7921,-2.7822,-2.7822,-2.7822,-2.7822,-2.7822,-2.7822,-2.7785,-2.773,-2.773,-2.7693,-2.7581,-2.7581,-2.7581,-2.7526,-2.7187,-2.7086,-2.7068,-2.7004,-2.671,-2.6252,-2.5555,-2.5139,-2.4766,-2.4702,-2.4468,-2.4202,-2.4202,-2.4202,-2.4183,-2.4119,-2.3785,-2.348,-2.3416,-2.2785,-2.2282,-2.2282,-2.1952,-2.1696,-2.1696,0.0,-2.1651,-2.1482,-2.1437,-2.1338,-2.1096,-2.0925,-2.1006,-2.157,-2.2173,-2.2843,-2.345,-2.4272,-2.4711,-2.4711,-2.5475,-2.6093,-2.6487,-2.6569,-2.6787,-2.719,-2.719,-2.719,-2.719,-2.719,-2.719,-2.719,-2.719,-2.7472,-2.7862,-2.7862,-2.8149,-2.8586,-2.8586,-2.8632,-2.87,-2.87,-2.8987,-2.9378,-3.1377,-3.1377,-3.1377,-3.1377,-3.1377,-3.1377,-3.1377,-3.1377,-3.1377,-3.1377,-3.1377,-3.1377,-3.1377,-3.1377,-3.1377,-3.1377,-3.1377,-3.1304,-3.1121,-3.0736,-3.0424,-3.0213,-3.0011,-2.991,-2.991,-2.9507,-2.9296,-2.9296,-2.9085,-2.8984,-2.8984,-2.8984,-2.8984,-2.8975,-2.8792,-2.8709,-2.87,-2.8507,-2.8425,-2.8425,-2.8425,-2.8425,-2.8425,-2.8425,-2.8287,-2.8104,-2.8104,-2.7957,-2.7822,-2.7822,-2.7822,-2.7794,-2.761,-2.7343,-2.7178,-2.7178,-2.6903,-2.6509,-2.6133,-2.5573,-2.5203,-2.5362,-2.5166,-2.4863,-2.4863,-2.4863,-2.4863,-2.4863,-2.4491,-2.4207,-2.4207,-2.3489,-2.2931,-2.2931,-2.2419,0.0,0.0,-2.1698,-2.1472,-2.1195,-2.1195,-2.1096,-2.0871,-2.0736,-2.0781,-2.0952,-2.1526,-2.2192,-2.2862,-2.357,-2.4153,-2.4497,-2.5168,-2.5622,-2.5779,-2.6279,-2.6745,-2.7277,-2.7497,-2.777,-2.8023,-2.8023,-2.8023,-2.8023,-2.8023,-2.8149,-2.8367,-2.8367,-2.8666,-2.9125,-2.9125,-2.9286,-2.9515,-2.9515,-2.9676,-2.9883,-3.1377,-3.1377,-3.1377,-3.1377,-3.1377,-3.1377,-3.1377,-3.1377,-3.1377,-3.1377,-3.1377,-3.1377,-3.1377,-3.1377,-3.1377,-3.1377,-3.1377,-3.1377,-3.1377,-3.1093,-3.0791,-3.0488,-3.0387,-3.0296,-3.0204,-2.9883,-2.9672,-2.9571,-2.9269,-2.9076,-2.8984,-2.8984,-2.8984,-2.8984,-2.8984,-2.8984,-2.8984,-2.8984,-2.8984,-2.8984,-2.8984,-2.8984,-2.8984,-2.8984,-2.8792,-2.8535,-2.8535,-2.8324,-2.8107,-2.8107,-2.8107,-2.8088,-2.7996,-2.7701,-2.7444,-2.7343,-2.7031,-2.671,-2.6619,-2.6059,-2.5635,-2.5938,-2.5718,-2.5424,-2.5424,-2.5424,-2.5424,-2.5424,-2.5133,-2.4922,-2.4922,-2.4244,-2.3636,-2.3587,0.0,0.0,0.0,-2.1769,-2.1481,-2.1226,-2.1181,-2.109,-2.087,-2.087,-2.087,-2.0815,-2.1229,-2.1886,-2.2723,-2.3227,-2.3847,-2.4652,-2.4986,-2.5295,-2.553,-2.6201,-2.6854,-2.7478,-2.7841,-2.8259,-2.87,-2.87,-2.87,-2.87,-2.87,-2.8769,-2.8884,-2.8884,-2.9194,-2.9665,-2.9665,-2.9894,-3.0216,-3.0216,-3.0216,-3.0216,-3.1377,-3.1377,-3.1377,-3.1377,-3.1377,-3.1377,-3.1377,-3.1377,-3.1377,-3.1377,-3.1377,-3.1377,-3.1377,-3.1377,-3.1377,-3.1377,-3.1377,-3.1377,-3.1377,-3.135,-3.1322,-3.1295,-3.0937,-3.0571,-3.0204,-3.0167,-2.9965,-2.9571,-2.9544,-2.9342,-2.8984,-2.8984,-2.8984,-2.8984,-2.8984,-2.8984,-2.8984,-2.8984,-2.8984,-2.8984,-2.8984,-2.8984,-2.8984,-2.8984,-2.8966,-2.8938,-2.8938,-2.892,-2.8893,-2.8893,-2.8893,-2.8828,-2.8462,-2.8324,-2.8223,-2.7895,-2.7444,-2.705,-2.6692,-2.6261,-2.5975,-2.6002,-2.5718,-2.5424,-2.5424,-2.5424,-2.5424,-2.5424,-2.5405,-2.5378,-2.5378,-2.4707,-2.4057,-2.3809,0.0,0.0,-2.215,-2.2076,-2.1954,-2.1756,-2.1756,-2.1661,-2.1375,-2.1328,-2.1605,-2.2306,-2.2021,-2.2446,-2.38,-2.3658,-2.3998,-2.5127,-2.5181,-2.5599,-2.6509,-2.6553,-2.7051,-2.7951,-2.7994,-2.8234,-2.87,-2.87,-2.87,-2.87,-2.87,-2.8976,-2.9435,-2.9435,-2.9722,-3.017,-3.017,-3.0181,-3.0216,-3.0216,-3.0216,-3.0216,-3.1377,-3.1377,-3.1377,-3.1377,-3.1377,-3.1377,-3.1377,-3.1377,-3.1377,-3.1377,-3.1377,-3.1377,-3.1377,-3.1377,-3.1377,-3.1377,-3.1377,-3.1377,-3.1377,-3.1377,-3.1377,-3.1377,-3.1231,-3.1084,-3.0937,-3.069,-3.0488,-3.0323,-3.0085,-2.9755,-2.9342,-2.9342,-2.9223,-2.8984,-2.8984,-2.8984,-2.8984,-2.8984,-2.8984,-2.8984,-2.8984,-2.8984,-2.8984,-2.8984,-2.8984,-2.8984,-2.8984,-2.8984,-2.8984,-2.8984,-2.8984,-2.8957,-2.881,-2.859,-2.8315,-2.795,-2.7711,-2.7453,-2.7059,-2.6664,-2.6408,-2.671,-2.6417,-2.6123,-2.6123,-2.6123,-2.6123,-2.6123,-2.5762,-2.5483,-2.5483,-2.4666,-2.3973,-2.3871,0.0,-2.2549,-2.2316,-2.2049,-2.1843,-2.1596,-2.1548,-2.15,-2.1413,-2.1413,-2.15,-2.1778,-2.1695,-2.2218,-2.3748,-2.4556,-2.5317,-2.6051,-2.6061,-2.61,-2.6156,-2.6738,-2.7368,-2.8065,-2.8654,-2.9178,-2.9642,-2.9642,-2.9642,-2.9642,-2.9642,-2.9757,-2.994,-2.994,-3.0055,-3.0216,-3.0216,-3.0216,-3.0216,-3.0216,-3.0216,-3.0216,-3.1377,-3.1377,-3.1377,-3.1377,-3.1377,-3.1377,-3.1377,-3.1377,-3.1377,-3.1377,-3.1377,-3.1377,-3.1377,-3.1377,-3.1377,-3.1377,-3.1377,-3.1377,-3.1377,-3.1377,-3.1377,-3.1377,-3.1377,-3.1377,-3.1377,-3.1112,-3.091,-3.0791,-3.0516,-3.0167,-2.9773,-2.9773,-2.9626,-2.936,-2.9223,-2.9168,-2.9159,-2.9039,-2.8984,-2.8984,-2.8984,-2.8984,-2.8984,-2.8984,-2.8984,-2.8984,-2.8984,-2.8984,-2.8984,-2.8984,-2.8984,-2.8984,-2.8984,-2.8792,-2.8498,-2.8086,-2.7967,-2.7875,-2.7528,-2.7113,-2.6856,-2.6985,-2.6784,-2.6582,-2.6473,-2.6418,-2.6418,-2.6309,-2.5919,-2.5568,-2.5568,-2.4863,-2.4261,-2.4148,-2.3496,-2.2886,-2.2646,-2.2308,-2.1959,-2.1813,-2.1764,-2.1764,-2.1764,-2.1764,-2.1764,-2.1764,-2.1895,-2.2577,-2.3951,-2.5361,-2.6293,-2.6604,-2.675,-2.6677,-2.6366,-2.6995,-2.761,-2.8289,-2.8936,-2.9568,-3.0216,-3.0216,-3.0216,-3.0216,-3.0216,-3.0216,-3.0216,-3.0216,-3.0216,-3.0216,-3.0216,-3.0216,-3.0216,-3.0216,-3.0216,-3.0216,-3.1377,-3.1377,-3.1377,-3.1377,-3.1377,-3.1377,-3.1377,-3.1377,-3.1377,-3.1377,-3.1377,-3.1377,-3.1377,-3.1377,-3.1377,-3.1377,-3.1377,-3.1377,-3.1377,-3.1377,-3.1377,-3.1377,-3.1377,-3.1377,-3.1377,-3.1377,-3.1185,-3.0791,-3.0791,-3.0589,-3.0204,-3.0204,-3.0204,-3.0185,-2.9764,-2.9571,-2.9553,-2.9159,-2.8993,-2.8993,-2.8993,-2.8993,-2.8993,-2.8993,-2.8993,-2.8993,-2.8993,-2.8984,-2.8984,-2.8984,-2.8984,-2.8984,-2.8984,-2.8984,-2.8911,-2.8517,-2.8397,-2.8306,-2.7884,-2.7546,-2.7194,-2.6738,-2.6591,-2.6537,-2.6181,-2.6127,-2.6017,-2.5734,-2.5688,-2.5688,-2.5688,-2.5377,-2.5013,-2.4734,-2.4035,-2.3427,-2.3117,-2.2843,-2.2603,-2.2603,-2.2594,-2.2594,-2.2594,-2.2594,-2.2594,-2.2594,-2.2974,-2.367,-2.4736,-2.5941,-2.6625,-2.6625,-2.7071,-2.7309,-2.7309,-2.7309,-2.7762,-2.8678,-2.8678,-2.9233,-3.0216,-3.0216,-3.0216,-3.0216,-3.0216,-3.0216,-3.0216,-3.0216,-3.0216,-3.0216,-3.0216,-3.0216,-3.0216,-3.0216,-3.0216,-3.0216,-3.1377,-3.1377,-3.1377,-3.1377,-3.1377,-3.1377,-3.1377,-3.1377,-3.1377,-3.1377,-3.1377,-3.1377,-3.1377,-3.1377,-3.1377,-3.1377,-3.1377,-3.1377,-3.1377,-3.1377,-3.1377,-3.1377,-3.1377,-3.1377,-3.1377,-3.1377,-3.1322,-3.1203,-3.1203,-3.1002,-3.0616,-3.0616,-3.047,-3.0195,-3.0066,-3.0011,-3.0002,-2.9892,-2.9837,-2.9837,-2.9837,-2.9837,-2.9837,-2.9837,-2.9837,-2.98,-2.9498,-2.9397,-2.9351,-2.9076,-2.8984,-2.8984,-2.8984,-2.8815,-2.8618,-2.85,-2.8277,-2.8,-2.7607,-2.745,-2.7262,-2.6796,-2.655,-2.6265,-2.5915,-2.5798,-2.5798,-2.5743,-2.5505,-2.534,-2.534,-2.487,-2.4455,-2.4347,-2.3926,-2.3608,-2.3555,-2.3177,-2.2946,-2.2946,-2.2757,-2.2594,-2.2594,-2.2594,-2.2594,-2.2594,-2.3709,-2.4754,-2.5646,-2.6594,-2.7102,-2.7102,-2.7237,-2.7309,-2.7309,-2.7631,-2.8081,-2.8678,-2.9106,-2.9566,-3.0216,-3.0216,-3.0216,-3.0216,-3.0216,-3.0216,-3.0216,-3.0216,-3.0216,-3.0216,-3.0216,-3.0216,-3.0216,-3.0216,-3.0216,-3.0216,-3.1377,-3.1377,-3.1377,-3.1377,-3.1377,-3.1377,-3.1377,-3.1377,-3.1377,-3.1377,-3.1377,-3.1377,-3.1377,-3.1377,-3.1377,-3.1377,-3.1377,-3.1377,-3.1377,-3.1377,-3.1377,-3.1377,-3.1377,-3.1377,-3.1377,-3.1377,-3.1377,-3.1377,-3.1377,-3.1258,-3.102,-3.102,-3.0901,-3.0662,-3.0506,-3.0433,-3.0424,-3.0268,-3.0204,-3.0204,-3.0204,-3.0204,-3.0204,-3.0204,-3.0133,-2.9972,-2.991,-2.9758,-2.9589,-2.9483,-2.9291,-2.9043,-2.8862,-2.8583,-2.8268,-2.8268,-2.8148,-2.7966,-2.7677,-2.7546,-2.7337,-2.6942,-2.6676,-2.6385,-2.609,-2.5972,-2.5872,-2.5611,-2.5409,-2.5245,-2.5043,-2.4726,-2.4461,-2.4461,-2.4136,-2.3888,-2.3888,-2.3571,-2.3331,-2.3331,-2.3186,-2.298,-2.2834,-2.2817,-2.301,-2.3488,-2.4353,-2.5382,-2.6524,-2.7013,-2.7309,-2.7309,-2.7309,-2.7309,-2.7309,-2.7584,-2.7951,-2.8445,-2.8921,-2.9428,-2.9943,-3.0125,-3.0216,-3.0216,-3.0216,-3.0216,-3.0216,-3.0216,-3.0216,-3.0216,-3.0216,-3.0216,-3.0216,-3.0216,-3.0216,-3.0216,-3.1377,-3.1377,-3.1377,-3.1377,-3.1377,-3.1377,-3.1377,-3.1377,-3.1377,-3.1377,-3.1377,-3.1377,-3.1377,-3.1377,-3.1377,-3.1377,-3.1377,-3.1377,-3.1377,-3.1377,-3.1377,-3.1377,-3.1377,-3.1377,-3.1377,-3.1377,-3.1377,-3.1377,-3.1377,-3.1377,-3.1377,-3.1377,-3.1377,-3.1368,-3.1002,-3.0782,-3.0755,-3.0398,-3.0242,-3.0242,-3.0242,-3.0242,-3.0242,-3.0242,-3.0056,-2.9788,-3.0072,-2.9992,-2.9734,-3.0018,-2.9639,-2.9035,-2.8737,-2.8367,-2.8057,-2.8022,-2.8013,-2.7944,-2.7908,-2.7711,-2.7383,-2.7112,-2.693,-2.6756,-2.6455,-2.638,-2.6169,-2.5546,-2.542,-2.5318,-2.4984,-2.4889,-2.4872,-2.4872,-2.4538,-2.4227,-2.4227,-2.3956,-2.3717,-2.3717,-2.3735,-2.3537,-2.3194,-2.3134,-2.362,-2.4881,-2.4951,-2.5635,-2.7266,-2.7403,-2.7434,-2.7434,-2.7434,-2.7434,-2.7434,-2.7434,-2.762,-2.7998,-2.8445,-2.8956,-2.9531,-2.9943,-3.017,-3.0216,-3.0216,-3.0216,-3.0216,-3.0216,-3.0216,-3.0216,-3.0216,-3.0216,-3.0216,-3.0216,-3.0216,-3.0216,-3.1377,-3.1377,-3.1377,-3.1377,-3.1377,-3.1377,-3.1377,-3.1377,-3.1377,-3.1377,-3.1377,-3.1377,-3.1377,-3.1377,-3.1377,-3.1377,-3.1377,-3.1377,-3.1377,-3.1377,-3.1377,-3.1377,-3.1377,-3.1377,-3.1377,-3.1377,-3.1377,-3.1377,-3.1377,-3.1377,-3.1377,-3.1377,-3.1249,-3.1,-3.0918,-3.0753,-3.0495,-3.0415,-3.0379,-3.0379,-3.0379,-3.0379,-3.0379,-3.0379,-3.0314,-3.0206,-2.9949,-2.9833,-2.9716,-2.9413,-2.9244,-2.911,-2.8995,-2.8764,-2.8464,-2.814,-2.7861,-2.7608,-2.7392,-2.7246,-2.7168,-2.7091,-2.7065,-2.6841,-2.6188,-2.5992,-2.5966,-2.5831,-2.5814,-2.5731,-2.5654,-2.5455,-2.5249,-2.5249,-2.4932,-2.4693,-2.4693,-2.4359,-2.411,-2.411,-2.3845,-2.3684,-2.3554,-2.328,-2.3734,-2.5255,-2.5436,-2.6132,-2.7682,-2.8121,-2.8317,-2.8317,-2.8317,-2.8317,-2.8317,-2.8317,-2.8199,-2.7998,-2.8081,-2.8642,-2.9485,-2.9623,-2.9852,-3.0216,-3.0216,-3.0216,-3.0216,-3.0216,-3.0216,-3.0216,-3.0216,-3.0216,-3.0216,-3.0216,-3.0216,-3.0216,-3.1377,-3.1377,-3.1377,-3.1377,-3.1377,-3.1377,-3.1377,-3.1377,-3.1377,-3.1377,-3.1377,-3.1377,-3.1377,-3.1377,-3.1377,-3.1377,-3.1377,-3.1377,-3.1377,-3.1377,-3.1377,-3.1377,-3.1249,-3.1193,-3.1193,-3.1,-3.1064,-3.1377,-3.1258,-3.1193,-3.1129,-3.1,-3.0815,-3.0685,-3.0685,-3.0564,-3.0378,-3.0378,-3.0378,-3.0378,-3.0378,-3.0378,-3.0378,-3.0378,-3.0304,-3.013,-3.0065,-3.0123,-3.0024,-2.961,-2.9362,-2.9149,-2.9031,-2.872,-2.8412,-2.8204,-2.7882,-2.7569,-2.7381,-2.7201,-2.7073,-2.7073,-2.7073,-2.697,-2.6568,-2.6482,-2.6431,-2.6242,-2.6199,-2.6148,-2.591,-2.578,-2.5643,-2.5643,-2.5326,-2.5078,-2.5078,-2.4753,-2.4513,-2.4513,-2.4333,-2.4136,-2.3956,-2.3597,-2.4094,-2.5688,-2.5882,-2.659,-2.8146,-2.8483,-2.8618,-2.8618,-2.8618,-2.8618,-2.8618,-2.8618,-2.8468,-2.8282,-2.8349,-2.8636,-2.9152,-2.9382,-2.976,-3.0216,-3.0216,-3.0216,-3.0216,-3.0216,-3.0216,-3.0216,-3.0216,-3.0216,-3.0216,-3.0216,-3.0216,-3.0216,-3.1377,-3.1377,-3.1377,-3.1377,-3.1377,-3.1377,-3.1377,-3.1377,-3.1313,-3.1313,-3.1249,-3.1249,-3.1322,-3.1377,-3.1377,-3.1258,-3.1249,-3.1313,-3.1249,-3.1249,-3.1313,-3.1249,-3.1,-3.0879,-3.0815,-3.0564,-3.0694,-3.1249,-3.0935,-3.0815,-3.0815,-3.0499,-3.0369,-3.0304,-3.0304,-3.0239,-3.0239,-3.0239,-3.0239,-3.0239,-3.0239,-3.0239,-3.0239,-3.0239,-3.0026,-2.9757,-3.01,-3.0239,-3.0174,-2.9822,-2.9548,-2.924,-2.9,-2.8648,-2.8374,-2.8314,-2.8057,-2.7775,-2.7638,-2.739,-2.715,-2.709,-2.7073,-2.7073,-2.7073,-2.7073,-2.6979,-2.6653,-2.6585,-2.6491,-2.6191,-2.608,-2.597,-2.597,-2.5711,-2.5446,-2.5434,-2.5104,-2.4889,-2.483,-2.4821,-2.4693,-2.4313,-2.399,-2.4492,-2.6163,-2.6276,-2.6997,-2.8631,-2.8804,-2.8856,-2.8856,-2.8856,-2.8856,-2.8856,-2.8856,-2.8804,-2.8731,-2.8793,-2.8786,-2.8835,-2.9272,-2.9747,-3.0205,-3.0205,-3.0216,-3.0216,-3.0216,-3.0216,-3.0216,-3.0216,-3.0216,-3.0216,-3.0216,-3.0216,-3.0216,-3.1377,-3.1377,-3.1377,-3.1377,-3.1377,-3.1377,-3.1377,-3.1129,-3.0935,-3.0935,-3.0685,-3.0629,-3.0944,-3.1249,-3.1193,-3.0564,-3.0815,-3.0815,-3.0564,-3.0815,-3.0815,-3.0564,-3.075,-3.075,-3.0434,-3.0443,-3.0434,-3.0564,-3.0499,-3.0434,-3.0434,-3.0443,-3.023,-2.9878,-2.9878,-2.9691,-2.9438,-2.9438,-2.9438,-2.9438,-2.9438,-2.9438,-2.9438,-2.9438,-2.9438,-2.9373,-2.9438,-2.9438,-2.9447,-2.9373,-2.9339,-2.9304,-2.9239,-2.9205,-2.9093,-2.8785,-2.8665,-2.8477,-2.7792,-2.7569,-2.7458,-2.715,-2.7073,-2.7073,-2.7073,-2.7073,-2.7056,-2.7004,-2.6996,-2.6979,-2.6936,-2.6645,-2.6414,-2.6414,-2.6097,-2.5746,-2.542,-2.5326,-2.5172,-2.4864,-2.4821,-2.4804,-2.4744,-2.4384,-2.4835,-2.6516,-2.6693,-2.7435,-2.9106,-2.9591,-2.9808,-2.9808,-2.9808,-2.9808,-2.9808,-2.9808,-2.9611,-2.9208,-2.9196,-2.9228,-2.9298,-2.9363,-2.9689,-3.0195,-3.0182,-3.0216,-3.0216,-3.0216,-3.0216,-3.0216,-3.0216,-3.0216,-3.0216,-3.0216,-3.0216,-3.0216,-3.0879,-3.0815,-3.0815,-3.0815,-3.0815,-3.0815,-3.0815,-3.0685,-3.0629,-3.0629,-3.0499,-3.0165,-2.9478,-2.8986,-2.892,-2.9421,-2.9617,-2.9887,-3.0369,-3.0564,-3.0564,-3.0443,-3.0352,-3.0213,-3.0091,-2.9905,-2.9774,-2.9774,-2.9961,-3.0091,-3.0091,-2.9839,-2.97,-2.9495,-2.9495,-2.9438,-2.9307,-2.9307,-2.9307,-2.9307,-2.9307,-2.9307,-2.9307,-2.9307,-2.9307,-2.9307,-2.9307,-2.9307,-2.9307,-2.9307,-2.9307,-2.9307,-2.9307,-2.9307,-2.9282,-2.9119,-2.8939,-2.87,-2.8357,-2.81,-2.7843,-2.7467,-2.7372,-2.7321,-2.7116,-2.7073,-2.7073,-2.7073,-2.7073,-2.7073,-2.7073,-2.6936,-2.6816,-2.6816,-2.6491,-2.6182,-2.602,-2.5814,-2.5549,-2.5172,-2.5129,-2.5044,-2.4838,-2.4667,-2.5258,-2.6949,-2.711,-2.7863,-2.958,-2.988,-2.9994,-2.9994,-2.9994,-2.9994,-2.9994,-2.9994,-2.9891,-2.9684,-2.9684,-2.9566,-2.9402,-2.9737,-3.0123,-3.0591,-3.0946,-3.1077,-3.1077,-3.1077,-3.1077,-3.1054,-3.0767,-3.048,-3.0216,-3.0216,-3.0216,-3.0216]},{"header":{"parameterUnit":"m.s-1","parameterCategory":1,"la1":30.6,"la2":28.766,"lo1":-90.7593,"lo2":-88.6598,"dy":0.0162,"dx":0.0183,"nx":116,"ny":114,"refTime":"2024-06-13T06:00:00:Z","depth":0,"parameterNumber":3,"parameterNumberName":"V-component_of_WINDS"},"data":[0.0,0.0,0.0,0.0,0.0,0.0,0.0,0.0,0.0,0.0,0.0,0.0,0.0,0.0,0.0,0.0,0.0,0.0,0.0,0.0,0.0,0.0,0.0,0.0,0.0,0.0,0.0,0.0,0.0,0.0,0.0,0.0,0.0,0.0,0.0,0.0,0.0,0.0,0.0,0.0,0.0,0.0,0.0,0.0,0.0,0.0,0.0,0.0,0.0,0.0,0.0,0.0,0.0,0.0,0.0,0.0,0.0,0.0,0.0,0.0,0.0,0.0,0.0,0.0,0.0,0.0,0.0,0.0,0.0,0.0,0.0,0.0,0.0,0.0,0.0,0.0,0.0,0.0,0.0,0.0,0.0,0.0,0.0,0.0,0.0,0.0,0.0,0.0,0.0,0.0,0.0,0.0,0.0,0.0,0.0,0.0,0.0,0.0,0.0,0.0,0.0,0.0,0.0,0.0,0.0,0.0,0.0,0.0,0.0,0.0,0.0,0.0,0.0,0.0,0.0,0.0,0.0,0.0,0.0,0.0,0.0,0.0,0.0,0.0,0.0,0.0,0.0,0.0,0.0,0.0,0.0,0.0,0.0,0.0,0.0,0.0,0.0,0.0,0.0,0.0,0.0,0.0,0.0,0.0,0.0,0.0,0.0,0.0,0.0,0.0,0.0,0.0,0.0,0.0,0.0,0.0,0.0,0.0,0.0,0.0,0.0,0.0,0.0,0.0,0.0,0.0,0.0,0.0,0.0,0.0,0.0,0.0,0.0,0.0,0.0,0.0,0.0,0.0,0.0,0.0,0.0,0.0,0.0,0.0,0.0,0.0,0.0,0.0,0.0,0.0,0.0,0.0,0.0,0.0,0.0,0.0,0.0,0.0,0.0,0.0,0.0,0.0,0.0,0.0,0.0,0.0,0.0,0.0,0.0,0.0,0.0,0.0,0.0,0.0,0.0,0.0,0.0,0.0,0.0,0.0,0.0,0.0,0.0,0.0,0.0,0.0,0.0,0.0,0.0,0.0,0.0,0.0,0.0,0.0,0.0,0.0,0.0,0.0,0.0,0.0,0.0,0.0,0.0,0.0,0.0,0.0,0.0,0.0,0.0,0.0,0.0,0.0,0.0,0.0,0.0,0.0,0.0,0.0,0.0,0.0,0.0,0.0,0.0,0.0,0.0,0.0,0.0,0.0,0.0,0.0,0.0,0.0,0.0,0.0,0.0,0.0,0.0,0.0,0.0,0.0,0.0,0.0,0.0,0.0,0.0,0.0,0.0,0.0,0.0,0.0,0.0,0.0,0.0,0.0,0.0,0.0,0.0,0.0,0.0,0.0,0.0,0.0,0.0,0.0,0.0,0.0,0.0,0.0,0.0,0.0,0.0,0.0,0.0,0.0,0.0,0.0,0.0,0.0,0.0,0.0,0.0,0.0,0.0,0.0,0.0,0.0,0.0,0.0,0.0,0.0,0.0,0.0,0.0,0.0,0.0,0.0,0.0,0.0,0.0,0.0,0.0,0.0,0.0,0.0,0.0,0.0,0.0,0.0,0.0,0.0,0.0,0.0,0.0,0.0,0.0,0.0,0.0,0.0,0.0,0.0,0.0,0.0,0.0,0.0,0.0,0.0,0.0,0.0,0.0,0.0,0.0,0.0,0.0,0.0,0.0,0.0,0.0,0.0,0.0,0.0,0.0,0.0,0.0,0.0,0.0,0.0,0.0,0.0,0.0,0.0,0.0,0.0,0.0,0.0,0.0,0.0,0.0,0.0,0.0,0.0,0.0,0.0,0.0,0.0,0.0,0.0,0.0,0.0,0.0,0.0,0.0,0.0,0.0,0.0,0.0,0.0,0.0,0.0,0.0,0.0,0.0,0.0,0.0,0.0,0.0,0.0,0.0,0.0,0.0,0.0,0.0,0.0,0.0,0.0,0.0,0.0,0.0,0.0,0.0,0.0,0.0,0.0,0.0,0.0,0.0,0.0,0.0,0.0,0.0,0.0,0.0,0.0,0.0,0.0,0.0,0.0,0.0,0.0,0.0,0.0,0.0,0.0,0.0,0.0,0.0,0.0,0.0,0.0,0.0,0.0,0.0,0.0,0.0,0.0,0.0,0.0,0.0,0.0,0.0,0.0,0.0,0.0,0.0,0.0,0.0,0.0,0.0,0.0,0.0,0.0,0.0,0.0,0.0,0.0,0.0,0.0,0.0,0.0,0.0,0.0,0.0,0.0,0.0,0.0,0.0,0.0,0.0,0.0,0.0,0.0,0.0,0.0,0.0,0.0,0.0,0.0,0.0,0.0,0.0,0.0,0.0,0.0,0.0,0.0,0.0,0.0,0.0,0.0,0.0,0.0,0.0,0.0,0.0,0.0,0.0,0.0,0.0,0.0,0.0,0.0,0.0,0.0,0.0,0.0,0.0,0.0,0.0,0.0,0.0,0.0,0.0,0.0,0.0,0.0,0.0,0.0,0.0,0.0,0.0,0.0,0.0,0.0,0.0,0.0,0.0,0.0,0.0,0.0,0.0,0.0,0.0,0.0,0.0,0.0,0.0,0.0,0.0,0.0,0.0,0.0,0.0,0.0,0.0,0.0,0.0,0.0,0.0,0.0,0.0,0.0,0.0,0.0,0.0,0.0,0.0,0.0,0.0,0.0,0.0,0.0,0.0,0.0,0.0,0.0,0.0,0.0,0.0,0.0,0.0,0.0,0.0,0.0,0.0,0.0,0.0,0.0,0.0,0.0,0.0,0.0,0.0,0.0,0.0,0.0,0.0,0.0,0.0,0.0,0.0,0.0,0.0,0.0,0.0,0.0,0.0,0.0,0.0,0.0,0.0,0.0,0.0,0.0,0.0,0.0,0.0,0.0,0.0,0.0,0.0,0.0,0.0,0.0,0.0,0.0,0.0,0.0,0.0,0.0,0.0,0.0,0.0,0.0,0.0,0.0,0.0,0.0,0.0,0.0,0.0,0.0,0.0,0.0,0.0,0.0,0.0,0.0,0.0,0.0,0.0,0.0,0.0,0.0,0.0,0.0,0.0,0.0,0.0,0.0,0.0,0.0,0.0,0.0,0.0,0.0,0.0,0.0,0.0,0.0,0.0,0.0,0.0,0.0,0.0,0.0,0.0,0.0,0.0,0.0,0.0,0.0,0.0,0.0,0.0,0.0,0.0,0.0,0.0,0.0,0.0,0.0,0.0,0.0,0.0,0.0,0.0,0.0,0.0,0.0,0.0,0.0,0.0,0.0,0.0,0.0,0.0,0.0,0.0,0.0,0.0,0.0,0.0,0.0,0.0,0.0,0.0,0.0,0.0,0.0,0.0,0.0,0.0,0.0,0.0,0.0,0.0,0.0,0.0,0.0,0.0,0.0,0.0,0.0,0.0,0.0,0.0,0.0,0.0,0.0,0.0,0.0,0.0,0.0,0.0,0.0,0.0,0.0,0.0,0.0,0.0,0.0,0.0,0.0,0.0,0.0,0.0,0.0,0.0,0.0,0.0,0.0,0.0,0.0,0.0,0.0,0.0,0.0,0.0,0.0,0.0,0.0,0.0,0.0,0.0,0.0,0.0,0.0,0.0,0.0,0.0,0.0,0.0,0.0,0.0,0.0,0.0,0.0,0.0,0.0,0.0,0.0,0.0,0.0,0.0,0.0,0.0,0.0,0.0,0.0,0.0,0.0,0.0,0.0,0.0,0.0,0.0,0.0,0.0,0.0,0.0,0.0,0.0,0.0,0.0,0.0,0.0,0.0,0.0,0.0,0.0,0.0,0.0,0.0,0.0,0.0,0.0,0.0,0.0,0.0,0.0,0.0,0.0,0.0,0.0,0.0,0.0,0.0,0.0,0.0,0.0,0.0,0.0,0.0,0.0,0.0,0.0,0.0,0.0,0.0,0.0,0.0,0.0,0.0,0.0,0.0,0.0,0.0,0.0,0.0,0.0,0.0,0.0,0.0,0.0,0.0,0.0,0.0,0.0,0.0,0.0,0.0,0.0,0.0,0.0,0.0,0.0,0.0,0.0,0.0,0.0,0.0,0.0,0.0,0.0,0.0,0.0,0.0,0.0,0.0,0.0,0.0,0.0,0.0,0.0,0.0,0.0,0.0,0.0,0.0,0.0,0.0,0.0,0.0,0.0,0.0,0.0,0.0,0.0,0.0,0.0,0.0,0.0,0.0,0.0,0.0,0.0,0.0,0.0,0.0,0.0,0.0,0.0,0.0,0.0,0.0,0.0,0.0,0.0,0.0,0.0,0.0,0.0,0.0,0.0,0.0,0.0,0.0,0.0,0.0,0.0,0.0,0.0,0.0,0.0,0.0,0.0,0.0,0.0,0.0,0.0,0.0,0.0,0.0,0.0,0.0,0.0,0.0,0.0,0.0,0.0,0.0,0.0,0.0,0.0,0.0,0.0,0.0,0.0,0.0,0.0,0.0,0.0,0.0,0.0,0.0,0.0,0.0,0.0,0.0,0.0,0.0,0.0,0.0,0.0,0.0,0.0,0.0,0.0,0.0,0.0,0.0,0.0,0.0,0.0,0.0,0.0,0.0,0.0,0.0,0.0,0.0,0.0,0.0,0.0,0.0,0.0,0.0,0.0,0.0,0.0,0.0,0.0,0.0,0.0,0.0,0.0,0.0,0.0,0.0,0.0,0.0,0.0,0.0,0.0,0.0,0.0,0.0,0.0,0.0,0.0,0.0,0.0,0.0,0.0,0.0,0.0,0.0,0.0,0.0,0.0,0.0,0.0,0.0,0.0,0.0,0.0,0.0,0.0,0.0,0.0,0.0,0.0,0.0,0.0,0.0,0.0,0.0,0.0,0.0,0.0,0.0,0.0,0.0,0.0,0.0,0.0,0.0,0.0,0.0,0.0,0.0,0.0,0.0,0.0,0.0,0.0,0.0,0.0,0.0,0.0,0.0,0.0,0.0,0.0,0.0,0.0,0.0,0.0,0.0,0.0,0.0,0.0,0.0,0.0,0.0,0.0,0.0,0.0,0.0,0.0,0.0,0.0,0.0,0.0,0.0,0.0,0.0,0.0,0.0,0.0,0.0,0.0,0.0,0.0,0.0,0.0,0.0,0.0,0.0,0.0,0.0,0.0,0.0,0.0,0.0,0.0,0.0,0.0,0.0,0.0,0.0,0.0,0.0,0.0,0.0,0.0,0.0,0.0,0.0,0.0,0.0,0.0,0.0,0.0,0.0,0.0,0.0,0.0,0.0,0.0,0.0,0.0,0.0,0.0,0.0,0.0,0.0,0.0,0.0,0.0,0.0,0.0,0.0,0.0,0.0,0.0,0.0,0.0,0.0,0.0,0.0,0.0,0.0,0.0,0.0,0.0,0.0,0.0,0.0,0.0,0.0,0.0,0.0,0.0,0.0,0.0,0.0,0.0,0.0,0.0,0.0,0.0,0.0,0.0,0.0,0.0,0.0,0.0,0.0,0.0,0.0,0.0,0.0,0.0,0.0,0.0,0.0,0.0,0.0,0.0,0.0,0.0,0.0,0.0,0.0,0.0,0.0,0.0,0.0,0.0,0.0,0.0,0.0,0.0,0.0,0.0,0.0,0.0,0.0,0.0,0.0,0.0,0.0,0.0,0.0,0.0,0.0,0.0,0.0,0.0,0.0,0.0,0.0,0.0,0.0,0.0,0.0,0.0,0.0,0.0,0.0,0.0,0.0,0.0,0.0,0.0,0.0,0.0,0.0,0.0,0.0,0.0,0.0,0.0,0.0,0.0,0.0,0.0,0.0,0.0,0.0,0.0,0.0,0.0,0.0,0.0,0.0,0.0,0.0,0.0,0.0,0.0,0.0,0.0,0.0,0.0,0.0,0.0,0.0,0.0,0.0,0.0,0.0,0.0,0.0,0.0,0.0,0.0,0.0,0.0,0.0,0.0,0.0,0.0,0.0,0.0,0.0,0.0,0.0,0.0,0.0,0.0,0.0,0.0,0.0,0.0,0.0,0.0,0.0,0.0,0.0,0.0,0.0,0.0,0.0,0.0,0.0,0.0,0.0,0.0,0.0,0.0,0.0,0.0,0.0,0.0,0.0,0.0,0.0,0.0,0.0,0.0,0.0,0.0,0.0,0.0,0.0,0.0,0.0,0.0,0.0,1.5365,0.0,0.0,0.0,0.0,0.0,0.0,0.0,0.0,0.0,0.0,0.0,0.0,0.0,0.0,0.0,0.0,0.0,0.0,0.0,0.0,0.0,0.0,0.0,0.0,2.5717,2.6784,2.7433,2.8052,2.8286,2.8003,0.0,0.0,0.0,0.0,0.0,2.5016,2.4401,2.4442,2.5128,2.4815,2.4982,2.5573,2.3852,2.2387,2.1234,0.0,0.0,0.0,0.0,0.0,0.0,0.0,0.0,0.0,0.0,0.0,0.0,0.0,0.0,0.0,0.0,0.0,0.0,0.0,0.0,0.0,0.0,0.0,0.0,0.0,0.0,0.0,0.0,0.0,0.0,0.0,0.0,0.0,0.0,0.0,0.0,0.0,0.0,0.0,0.0,0.0,0.0,0.0,0.0,0.0,0.0,0.0,0.0,0.0,0.0,0.0,0.0,0.0,0.0,0.0,0.0,0.0,0.0,0.0,0.0,0.0,0.0,0.0,0.0,0.0,0.0,0.0,0.0,0.0,0.0,0.0,1.5738,0.0,0.0,0.0,0.0,0.0,0.0,0.0,0.0,0.0,0.0,0.0,0.0,0.0,0.0,0.0,0.0,0.0,0.0,0.0,0.0,0.0,2.3501,2.546,2.6726,2.782,2.8734,2.9397,2.9726,2.9621,2.9175,0.0,0.0,0.0,2.6946,2.6946,2.5935,2.6039,2.7363,2.6928,2.7272,2.8333,2.7696,2.621,2.4115,2.3522,0.0,0.0,0.0,0.0,0.0,0.0,0.0,0.0,0.0,0.0,0.0,0.0,0.0,0.0,0.0,0.0,0.0,0.0,0.0,0.0,0.0,0.0,0.0,0.0,0.0,0.0,0.0,0.0,0.0,0.0,0.0,0.0,0.0,0.0,0.0,0.0,0.0,0.0,0.0,0.0,0.0,0.0,0.0,0.0,0.0,0.0,0.0,0.0,0.0,0.0,0.0,0.0,0.0,0.0,0.0,0.0,0.0,0.0,0.0,0.0,0.0,0.0,0.0,1.7984,1.8094,1.8299,1.8299,1.8299,1.8233,1.6908,1.6565,1.6917,1.5965,0.0,0.0,0.0,0.0,0.0,0.0,0.0,0.0,0.0,0.0,0.0,0.0,0.0,0.0,0.0,0.0,0.0,0.0,0.0,2.3734,2.5735,2.6512,2.763,2.9478,3.0096,3.0163,2.9636,2.9998,0.0,0.0,2.928,2.919,2.919,2.9006,2.9292,3.0007,3.0499,3.0839,3.1013,3.0899,3.0377,2.9443,2.64,2.5016,2.4875,0.0,0.0,0.0,0.0,0.0,0.0,0.0,0.0,0.0,0.0,0.0,0.0,0.0,0.0,0.0,0.0,0.0,0.0,0.0,0.0,0.0,0.0,0.0,0.0,0.0,0.0,0.0,0.0,0.0,0.0,0.0,0.0,0.0,0.0,0.0,0.0,0.0,0.0,0.0,0.0,0.0,2.1573,2.2452,0.0,0.0,0.0,0.0,0.0,0.0,0.0,0.0,0.0,0.0,0.0,0.0,0.0,1.8291,1.8533,1.8855,1.8899,1.8657,1.8657,1.8533,1.8299,1.8299,1.8299,1.8291,1.8079,0.0,1.7216,1.6528,0.0,0.0,0.0,0.0,0.0,0.0,0.0,0.0,0.0,0.0,0.0,0.0,0.0,0.0,0.0,0.0,0.0,0.0,0.0,0.0,0.0,2.8106,2.9671,3.0928,3.1915,3.2204,3.1554,3.139,3.1016,3.0313,2.9922,2.9699,2.9699,2.9978,3.0791,3.2183,3.3237,3.394,3.4295,3.3477,3.3317,3.3709,3.0989,2.883,2.7147,2.5611,0.0,0.0,0.0,0.0,0.0,0.0,0.0,0.0,0.0,0.0,0.0,0.0,0.0,0.0,0.0,0.0,0.0,0.0,0.0,0.0,0.0,0.0,0.0,0.0,0.0,0.0,0.0,0.0,0.0,0.0,0.0,0.0,0.0,0.0,0.0,0.0,0.0,0.0,0.0,2.1865,2.296,2.3186,2.3133,2.2816,0.0,0.0,0.0,0.0,0.0,0.0,0.0,0.0,0.0,2.2417,2.1602,2.1204,2.1307,2.0992,2.0831,2.0893,2.0016,1.9633,1.9643,1.931,1.9118,1.9103,1.8738,1.8408,1.8086,1.7252,1.6638,1.6184,0.0,0.0,0.0,0.0,1.5372,1.554,0.0,0.0,0.0,0.0,0.0,0.0,0.0,0.0,0.0,0.0,0.0,0.0,2.767,2.9768,3.146,3.2463,3.3438,3.3802,3.3271,3.2619,3.1999,3.1399,3.0555,3.0192,3.0359,3.1048,3.2315,3.4148,3.5304,3.6129,3.6595,3.5496,3.5526,3.6388,3.4857,3.2665,2.9981,2.8119,2.6582,0.0,0.0,0.0,0.0,0.0,0.0,0.0,0.0,0.0,0.0,0.0,0.0,0.0,0.0,0.0,0.0,0.0,0.0,0.0,0.0,0.0,0.0,0.0,0.0,0.0,0.0,0.0,0.0,0.0,0.0,0.0,0.0,0.0,0.0,0.0,0.0,0.0,0.0,2.317,2.4093,2.3791,2.4321,2.4377,0.0,0.0,0.0,0.0,0.0,0.0,2.5219,2.4458,2.4161,2.4601,2.4086,2.3765,2.3765,2.3137,2.2897,2.3173,2.1911,2.1441,2.1649,2.0841,2.0491,2.0401,1.9516,1.9066,1.8932,1.7959,1.734,1.693,1.6462,1.6177,1.603,1.603,1.6082,1.6221,0.0,0.0,0.0,0.0,0.0,0.0,0.0,0.0,0.0,0.0,0.0,2.7241,2.9956,3.0792,3.1977,3.3933,3.4029,3.4,0.0,0.0,3.2922,3.2892,3.1647,3.1253,3.1875,3.3165,3.4501,3.5867,3.658,3.6945,3.6975,3.6897,3.6912,3.6955,3.6847,3.575,3.3789,3.2002,3.0538,2.9195,0.0,0.0,0.0,0.0,0.0,0.0,0.0,0.0,0.0,0.0,0.0,0.0,0.0,0.0,0.0,0.0,0.0,0.0,0.0,0.0,0.0,0.0,0.0,0.0,0.0,0.0,0.0,0.0,0.0,0.0,0.0,0.0,0.0,0.0,0.0,0.0,0.0,0.0,0.0,2.4518,2.5433,0.0,0.0,0.0,0.0,2.5113,2.5926,2.6441,2.6512,2.5878,2.5505,2.5553,2.5181,2.4996,2.4996,2.4961,2.4969,2.4961,2.4588,2.4411,2.4341,2.2899,2.2289,2.2212,2.0667,1.9836,1.9474,1.8607,1.7874,1.7304,1.722,1.6887,1.6389,1.6389,1.6587,1.6859,0.0,0.0,0.0,0.0,0.0,2.0796,2.1842,2.221,2.284,2.4133,2.625,2.8172,2.9587,3.1881,3.3787,3.4954,3.5385,3.5431,3.4987,3.3899,3.3412,3.3768,3.2473,3.246,3.3909,3.4912,3.5826,3.6643,3.6886,3.7236,3.7613,3.678,3.6778,3.7549,3.7157,3.6857,3.6502,3.4061,3.1976,3.002,2.7221,2.5687,0.0,0.0,0.0,0.0,0.0,0.0,0.0,0.0,0.0,0.0,0.0,0.0,0.0,0.0,0.0,0.0,0.0,0.0,0.0,0.0,0.0,0.0,0.0,0.0,0.0,0.0,0.0,0.0,0.0,0.0,0.0,0.0,0.0,0.0,0.0,0.0,0.0,2.5834,2.6692,0.0,2.6259,2.6537,2.6829,2.6941,2.7249,2.7603,2.8055,2.7864,2.7748,2.787,2.7736,2.768,2.768,2.6924,2.6656,2.6817,2.5729,2.5326,2.546,2.4246,2.3286,2.2595,2.1588,2.1068,2.0846,1.9867,1.8855,1.7871,1.7688,1.7377,1.6982,1.6982,1.7062,1.7157,0.0,0.0,0.0,0.0,2.0698,2.1243,2.2291,2.2645,2.3433,2.5215,2.7458,2.9391,3.0784,3.3295,3.5165,3.5844,3.6261,3.6199,3.5522,3.4614,3.4077,3.3945,3.3087,3.3397,3.5126,3.5906,3.6808,3.7842,3.7628,3.7735,3.8144,3.7048,3.694,3.7745,3.7565,3.7732,3.7998,3.6385,3.4428,3.2205,2.9716,2.8191,2.7074,0.0,0.0,0.0,0.0,0.0,0.0,0.0,0.0,0.0,0.0,0.0,0.0,0.0,0.0,0.0,0.0,0.0,0.0,0.0,0.0,0.0,0.0,0.0,0.0,0.0,0.0,0.0,0.0,0.0,0.0,0.0,0.0,0.0,0.0,0.0,2.662,2.6832,2.7883,2.839,2.7779,2.8191,2.8535,2.8835,2.9001,2.926,2.9722,2.9752,2.978,2.9853,2.971,2.9558,2.9406,2.8486,2.8143,2.8311,2.7308,2.7043,2.7318,2.6082,2.5025,2.4149,2.3151,2.2663,2.2442,2.1641,2.055,1.9268,1.8547,1.8019,1.7715,1.7604,1.752,1.7426,0.0,0.0,0.0,2.051,2.1122,2.1827,2.2496,2.3163,2.4583,2.7313,2.8919,3.0863,3.358,3.4983,3.5995,3.6662,3.6585,3.6245,3.5583,3.5491,3.4844,3.346,3.349,3.4168,3.5522,3.623,3.7554,3.949,3.8862,3.8539,3.8492,3.7815,3.7492,3.7507,3.8185,3.8394,3.8353,3.9011,3.8055,3.5972,3.4518,3.2375,2.9832,0.0,0.0,0.0,0.0,0.0,0.0,0.0,0.0,0.0,0.0,0.0,0.0,0.0,0.0,0.0,0.0,0.0,0.0,0.0,0.0,0.0,0.0,0.0,0.0,0.0,0.0,0.0,0.0,0.0,0.0,0.0,0.0,0.0,2.6509,2.7309,2.779,2.7423,2.8907,2.9653,2.8763,2.9891,3.0698,3.0708,3.1122,3.1381,3.1381,3.1381,3.1381,3.1381,3.0926,3.046,3.0005,2.9539,2.9301,2.9301,2.9301,2.9549,2.9921,2.8421,2.7467,2.6892,2.5487,2.4573,2.4137,2.384,2.2915,2.1558,1.9815,1.8944,1.8552,1.8224,1.7955,1.7675,0.0,0.0,2.0712,2.0712,2.1327,2.2018,2.2572,2.3277,2.4523,2.6673,2.9044,3.1207,3.2971,3.5254,3.6736,3.6892,3.6877,3.6769,3.6613,3.5183,3.4115,3.3643,3.5382,3.6553,3.6938,3.8092,3.897,3.949,3.9339,3.8985,3.8492,3.7815,3.723,3.6799,3.7477,3.8014,3.8504,3.9164,3.91,3.8292,3.5741,3.4263,3.3254,0.0,0.0,0.0,0.0,0.0,0.0,0.0,0.0,0.0,0.0,0.0,0.0,0.0,0.0,0.0,0.0,0.0,0.0,0.0,0.0,0.0,0.0,0.0,0.0,0.0,0.0,0.0,0.0,0.0,0.0,0.0,0.0,2.8992,2.8992,2.8662,2.8504,2.8711,2.9487,3.0025,3.0108,3.046,3.0822,3.1164,3.1309,3.1381,3.1381,3.1381,3.1381,3.1381,3.0926,3.046,3.0005,2.9539,2.9301,2.9301,2.9301,2.9549,2.9973,2.9188,2.8155,2.6953,2.6272,2.5689,2.5187,2.4344,2.4221,2.4326,2.1673,1.9811,1.8583,1.8491,1.8253,1.7994,0.0,2.0794,2.0794,2.0794,2.1632,2.242,2.2728,2.3894,2.5428,2.7438,2.9869,3.2076,3.3756,3.5569,3.6668,3.6668,3.6592,3.6283,3.5751,3.4831,3.4662,3.5476,3.6925,3.7993,3.8582,3.9356,3.988,4.0158,3.988,3.949,3.9007,3.8083,3.7387,3.6938,3.7323,3.7877,3.8554,3.9231,3.9644,3.9748,3.7698,3.6318,3.5162,3.253,3.1152,3.042,2.8652,2.7833,2.7571,2.7177,0.0,0.0,0.0,0.0,0.0,0.0,0.0,0.0,0.0,0.0,0.0,0.0,0.0,0.0,0.0,0.0,0.0,0.0,0.0,0.0,0.0,0.0,0.0,0.0,3.1249,3.1113,3.1298,2.9894,2.9073,2.9539,3.0005,3.0387,3.0657,3.1029,3.1371,3.164,3.1836,3.194,3.194,3.194,3.194,3.194,3.1495,3.0843,3.0005,2.9539,2.9208,2.9021,2.9021,2.9363,2.9984,2.9715,2.887,0.0,2.7422,2.6961,2.6332,2.5674,2.5528,0.0,0.0,0.0,0.0,0.0,1.8761,1.8234,0.0,2.0921,2.0952,2.1015,2.2122,2.2993,2.2914,2.465,2.6704,2.8625,0.0,3.294,3.4936,3.5739,3.6156,3.6234,3.6056,3.5453,0.0,3.4875,3.6062,3.7826,3.8122,3.8809,4.0056,4.0166,4.0493,4.1117,4.0493,4.0084,3.9794,3.8616,3.79,3.7647,3.7647,3.8017,3.8662,3.9228,3.9874,4.0443,3.9844,3.8302,3.6201,3.4714,3.3263,3.1778,2.9839,2.8769,2.8205,2.8017,0.0,0.0,0.0,0.0,0.0,0.0,0.0,0.0,0.0,0.0,0.0,0.0,0.0,0.0,0.0,0.0,0.0,0.0,0.0,0.0,0.0,0.0,0.0,0.0,3.3456,3.2936,3.3338,3.1329,2.9878,3.0047,3.0409,3.0646,3.076,3.1495,3.1946,3.205,3.2442,3.2669,3.2669,0.0,0.0,0.0,0.0,3.1381,3.0005,2.9591,2.9125,2.8618,2.8659,2.9145,2.9994,2.9994,2.9518,2.869,2.8638,2.8131,2.7382,2.733,2.6696,2.5673,2.4105,2.3284,2.2683,2.0798,1.95,1.8658,0.0,2.1679,2.187,2.2408,2.3164,2.3528,2.2993,2.465,2.6356,2.7367,2.9785,3.1997,3.3546,3.4798,3.5764,3.6316,3.6335,3.618,0.0,3.7004,3.7556,3.7368,3.8873,3.9807,4.0088,4.0634,4.0977,4.1117,4.0977,4.06,4.0039,3.979,3.9256,3.8535,3.8535,3.8824,3.9339,3.9428,3.9874,4.0489,4.0351,3.9373,3.7872,3.6283,3.4797,3.3437,3.2304,3.1487,3.0844,3.0808,3.0033,2.9042,2.9042,0.0,0.0,0.0,0.0,0.0,0.0,0.0,0.0,0.0,0.0,0.0,0.0,0.0,0.0,0.0,0.0,0.0,0.0,0.0,0.0,3.5236,3.481,3.4466,3.4955,3.3879,3.233,3.0526,3.0224,3.0419,3.1174,3.1402,3.1816,3.2483,3.2628,3.2669,3.2669,3.2669,3.2669,3.2669,3.2225,3.1381,3.0005,2.9911,2.9446,2.8618,0.0,0.0,2.9994,2.9994,2.9694,2.9145,2.8773,2.8297,2.7769,2.7407,2.694,2.6221,2.3909,2.2989,2.2777,2.1708,2.0754,1.9948,2.2769,2.2627,2.2519,2.2835,2.3449,2.3667,2.3009,2.4982,2.6688,2.7051,2.9501,3.1618,3.2677,3.3446,3.3972,3.432,3.4652,0.0,3.6864,3.7848,3.8542,3.8873,4.0163,4.0836,4.0836,4.1182,4.1355,4.1355,4.1355,4.1149,4.0689,4.036,3.995,3.9444,3.9102,3.927,3.9807,3.9691,4.0044,4.0627,4.0524,3.969,3.8363,3.7203,3.5904,3.4533,3.3262,3.2547,3.2164,3.1743,3.1136,3.0555,3.025,2.9605,2.8851,0.0,0.0,0.0,0.0,0.0,0.0,0.0,0.0,0.0,0.0,0.0,0.0,0.0,0.0,3.347,0.0,0.0,3.6012,3.7469,3.7142,3.6597,3.6385,3.5525,3.4009,3.1677,3.1187,3.0976,3.0892,3.121,3.1567,3.2023,3.2468,3.2669,3.2669,3.2669,3.2669,3.2669,3.2225,3.1495,3.0356,3.0108,2.9642,2.8959,2.9197,2.9549,2.9994,2.9994,2.9746,2.928,2.8814,2.8349,2.7872,2.7189,2.6822,2.645,2.4739,2.3744,2.3292,2.2621,2.1507,2.0294,2.3782,2.3668,2.3346,2.3309,2.3749,2.3939,2.3388,2.5456,2.7099,2.7099,2.939,3.1223,3.1833,3.2007,3.2196,0.0,0.0,0.0,3.7336,3.8254,3.9266,4.0546,4.1241,4.1588,4.1588,4.1588,4.1588,4.1588,4.1588,4.1522,4.1341,4.0824,4.0474,4.0325,3.9763,3.9793,4.029,4.0093,4.0287,4.0799,4.0593,3.969,3.8442,3.7831,3.6685,3.5222,3.3856,3.3129,3.2673,3.2101,3.1736,3.1406,3.1055,3.0804,3.054,2.9958,2.9337,0.0,0.0,0.0,0.0,0.0,0.0,0.0,0.0,0.0,3.2489,3.3208,3.428,3.5508,3.692,3.7364,3.7965,3.9377,3.9207,3.8545,3.7642,3.6789,3.5498,3.3403,3.2516,3.1753,3.0842,3.1195,3.1553,3.1785,3.2369,3.2727,3.2784,3.2644,3.2545,3.2545,3.2091,3.1474,3.0563,3.0274,2.9849,2.9301,2.9394,2.9632,2.9994,2.9994,2.9746,2.927,2.8721,2.8224,2.7738,2.705,2.6646,2.6407,2.5637,2.4737,2.3895,2.3495,2.2296,2.0827,0.0,2.4764,2.4978,2.4803,2.4827,2.4843,2.4784,2.6088,2.7099,2.7099,2.8963,3.0346,3.0425,3.097,3.1839,3.3072,3.4399,3.5821,3.7415,3.8681,3.9756,4.0561,4.1241,4.1588,4.1588,4.1588,4.1588,4.1588,4.1588,4.1588,4.1555,4.1477,4.1346,4.1164,4.1102,4.1033,4.0959,4.0758,4.0721,4.0799,4.0593,3.969,3.8475,3.8409,3.7144,3.5367,3.519,3.3949,3.2414,3.287,3.2132,3.1155,3.1612,3.1649,3.1346,3.0734,0.0,3.0089,2.9676,2.9399,2.9562,3.1119,3.1222,3.1561,0.0,0.0,3.4424,3.5495,3.6671,3.7573,3.7769,3.8632,3.9377,3.9573,3.9547,3.9264,3.8634,3.8041,3.7214,3.6023,3.3798,3.2263,3.2019,3.1832,3.2188,3.3244,3.2949,3.2841,3.3136,3.2456,3.206,3.206,3.1681,3.1008,3.0087,3.0429,3.017,2.9311,2.9715,2.9942,2.9994,2.9994,2.9746,2.9259,2.838,2.7748,2.7372,2.7268,2.6739,2.5993,2.5844,2.5228,2.443,2.4378,2.3681,2.279,0.0,2.5042,2.5451,2.5359,2.5477,2.546,2.5049,2.6535,2.7541,2.7162,2.8553,2.9564,2.9564,2.9809,3.0535,3.1966,3.3372,3.4936,3.6753,3.8523,3.9835,4.0577,4.1241,4.1588,4.1588,4.1588,4.1588,4.1588,4.1588,4.1588,4.1588,4.1588,4.1555,4.1505,4.1931,4.1866,4.1404,4.1643,4.1426,4.0966,4.0765,3.981,3.8508,3.8508,3.75,3.5975,3.5561,3.4611,0.0,0.0,3.2027,3.1151,3.1056,3.089,3.0762,3.0869,3.0739,0.0,3.0593,3.1011,3.1583,3.2188,3.2659,3.3378,3.4946,3.5338,3.5521,3.6005,3.6789,3.7586,3.8253,3.8762,3.9416,0.0,4.0305,3.9873,3.9311,3.8736,3.7855,3.6452,3.5037,3.385,3.3027,3.2707,3.2641,3.2742,3.253,3.2475,3.2585,3.2285,3.2125,3.2125,3.1683,3.1242,3.0853,3.079,3.0506,2.9953,3.0317,3.036,3.0245,3.0412,2.9951,2.9107,2.8411,2.7821,2.7289,2.7019,2.6511,2.5854,2.5595,2.5109,2.4497,2.4497,2.3907,2.3096,0.0,2.5208,2.5631,2.5401,2.5824,2.6066,2.5783,2.7137,2.81,2.788,2.864,2.9236,2.9305,2.9289,2.9854,3.1195,3.2415,3.4026,3.625,3.8002,3.9439,4.0546,4.1067,4.1399,4.1588,4.1588,4.1588,4.1588,4.1588,4.1588,4.1588,4.1588,4.1588,4.1604,4.2157,4.2094,4.162,4.1956,4.1724,4.112,4.0699,3.974,3.8558,3.8308,3.7384,3.6137,3.5638,3.487,0.0,0.0,3.1905,3.0997,3.0718,3.0446,3.0319,3.1101,3.1316,3.1299,3.1479,3.2236,3.3028,3.3118,3.3914,3.4842,3.56,3.607,3.6397,3.6567,3.7063,3.773,3.8553,3.8841,3.9416,4.084,4.071,4.0278,3.9886,3.9181,3.8259,3.7082,3.629,3.5459,3.4566,3.366,3.322,3.3292,3.2758,3.248,3.2717,3.2287,3.2019,3.2019,3.1561,3.1253,3.1115,3.0795,3.0533,3.0305,3.0522,3.0596,3.0495,3.0448,2.996,2.9063,2.8484,2.7946,2.7468,2.7123,2.6587,2.5989,2.5633,2.5101,2.4497,2.4497,2.409,2.3507,0.0,0.0,2.5668,2.4947,2.5791,2.6823,2.7522,2.8062,2.8704,2.9604,2.9595,2.956,2.9766,2.9772,3.0274,3.1478,3.2221,3.3714,3.6232,3.7133,3.846,4.0514,4.0625,4.0925,4.1573,4.1588,4.1588,4.1588,4.1588,4.1588,4.1588,4.1588,4.1588,4.1588,4.1604,4.1604,4.1588,4.1406,4.1305,4.1194,4.0238,3.9422,3.8691,3.7833,3.6692,3.5522,3.5507,0.0,0.0,0.0,3.205,3.0535,3.1105,3.0861,0.0,3.1802,3.2452,3.2635,3.2193,3.2539,3.3225,3.4099,3.4816,3.5574,3.6698,3.6972,3.7142,3.773,3.8279,3.8671,3.8697,3.9194,3.9769,4.0344,4.0422,4.0409,4.0396,3.9416,3.8697,3.8637,3.7645,3.6915,0.0,3.4715,3.4097,3.5953,3.4079,3.3257,3.4084,3.2485,3.1519,3.1519,3.1083,3.0584,3.0168,3.0147,3.0096,3.0096,3.0096,3.034,3.0754,2.982,2.9434,2.9359,2.8423,2.8008,2.7987,2.7977,2.7296,2.6301,2.6291,2.5557,2.4497,2.4497,2.4497,2.4454,0.0,0.0,0.0,2.6495,2.7307,2.8176,2.8743,2.8684,2.9054,3.036,3.0898,0.0,0.0,0.0,0.0,0.0,3.3216,3.414,3.5439,3.7102,3.8322,3.9044,3.9975,4.0809,4.1516,4.131,4.1566,4.2269,4.1802,4.172,4.1916,4.172,4.1588,4.1604,4.2094,4.2047,4.162,4.2043,4.2147,4.1917,4.0626,3.9868,3.9311,3.8116,3.6739,3.5444,0.0,0.0,0.0,3.2946,3.2049,3.1024,3.0318,0.0,0.0,3.0774,3.2191,3.3495,3.3227,3.4139,3.5328,3.5918,3.6469,3.7104,3.7899,3.7735,3.736,3.7029,3.692,3.6893,3.6951,3.7559,3.8457,3.9664,4.0187,4.0409,4.0409,4.0082,3.956,3.8802,3.8057,0.0,0.0,0.0,0.0,3.5687,3.4402,3.3552,3.3519,3.2938,3.2299,3.1601,3.1408,3.1095,3.0658,3.0658,3.0558,3.0367,3.0689,3.1027,3.1289,3.0348,2.9807,2.9595,2.8651,2.8149,2.7998,2.7998,2.7579,2.6939,2.6597,2.6055,2.5377,2.4944,2.4786,2.4743,0.0,0.0,0.0,0.0,0.0,0.0,0.0,0.0,0.0,0.0,0.0,0.0,0.0,0.0,0.0,0.0,0.0,3.4117,3.4775,3.6271,3.7506,3.8266,3.8727,3.9429,4.0392,4.0023,4.0229,4.1128,4.0928,4.1007,4.1342,4.1119,4.0943,4.0862,4.1336,4.1288,4.0877,4.1351,4.1475,4.1248,4.0068,3.9452,3.9134,3.784,3.6631,0.0,0.0,0.0,0.0,3.2769,3.2192,3.1678,3.0524,3.0305,3.0541,3.0937,3.2539,3.4235,3.4295,3.5453,3.6701,3.709,3.759,3.8056,3.8256,3.7958,3.7422,3.6469,3.609,3.5865,3.5726,3.6082,3.699,3.8811,3.9333,3.9808,4.0618,4.0553,4.0148,3.9403,3.8841,3.8514,0.0,0.0,0.0,3.639,3.5364,3.463,3.4301,3.3981,3.3449,3.2762,3.2531,3.2054,3.1227,3.1,3.0667,3.016,3.081,3.1088,3.1094,3.0493,3.0014,2.9651,2.8871,2.843,2.8279,2.8279,2.7954,2.739,2.692,2.6416,2.5849,2.5253,2.4988,2.4946,0.0,0.0,0.0,0.0,0.0,0.0,0.0,0.0,0.0,0.0,0.0,0.0,0.0,0.0,0.0,0.0,0.0,0.0,3.4281,3.4808,3.6007,3.8056,3.6988,3.7004,3.8411,3.7888,3.7919,3.8584,3.9171,3.9643,4.0015,3.9984,3.9798,3.9503,3.9503,3.9503,3.9503,3.9503,3.9518,3.9487,3.8653,3.834,3.8246,3.7126,0.0,0.0,0.0,0.0,0.0,3.2952,3.2511,0.0,0.0,3.1803,3.2259,3.23,3.3525,3.4979,3.5413,3.6367,3.7373,3.7678,3.8194,3.8461,3.7856,3.7656,3.727,3.6096,3.5816,3.5603,0.0,0.0,3.5466,3.7746,3.8011,3.8723,4.0958,4.0801,4.0448,0.0,0.0,0.0,0.0,0.0,0.0,3.8031,0.0,3.638,3.6358,3.5415,3.4824,3.4775,3.4198,3.3244,3.1862,3.125,3.0437,2.9584,3.0488,3.0657,3.0209,3.0209,2.9947,2.9456,2.9011,2.8803,2.8803,2.8803,2.8381,2.7675,2.7189,2.6582,2.5892,2.5424,2.52,2.5158,0.0,0.0,0.0,0.0,0.0,0.0,0.0,0.0,0.0,0.0,0.0,0.0,0.0,0.0,0.0,0.0,0.0,0.0,3.4743,3.4957,3.5338,3.5888,3.574,3.6318,3.7712,3.7369,3.7963,3.9633,3.9283,3.944,3.9998,3.9721,3.9565,3.9503,3.9503,3.9503,3.9503,3.9503,3.9819,4.0214,0.0,3.87,3.8874,0.0,0.0,0.0,0.0,0.0,0.0,0.0,0.0,0.0,0.0,3.2402,3.2966,3.3363,3.476,3.6239,3.682,3.7863,3.8797,3.8857,3.8681,3.8394,3.8276,3.7167,3.6073,3.5599,3.4929,3.427,0.0,0.0,0.0,3.6652,3.7756,0.0,4.0448,4.0893,0.0,4.0461,0.0,4.0056,3.9651,3.9834,0.0,0.0,3.8137,3.7334,3.7006,3.6295,3.5547,3.4824,3.4198,3.3576,3.284,3.1565,3.0799,3.0542,3.0771,3.0657,3.0209,3.0209,2.9947,2.9456,2.9011,2.8803,2.8803,2.8803,2.8427,2.7856,2.7412,2.69,2.6346,2.5743,2.5517,2.5433,0.0,0.0,0.0,0.0,0.0,0.0,0.0,0.0,0.0,0.0,0.0,0.0,0.0,0.0,0.0,0.0,0.0,0.0,0.0,3.4832,3.5315,3.5953,3.5273,3.5561,3.6983,3.6273,3.6661,3.8201,0.0,0.0,3.907,3.889,3.8754,3.8618,3.8618,3.8618,3.8618,3.8618,0.0,0.0,0.0,0.0,0.0,0.0,0.0,0.0,0.0,0.0,0.0,0.0,0.0,3.4129,3.4296,3.4311,3.4339,3.4936,0.0,3.7148,3.7716,3.86,3.9305,3.9305,3.8857,3.8274,3.7745,3.6632,3.5385,3.4224,3.3774,0.0,3.2216,3.3122,0.0,0.0,0.0,0.0,4.0187,4.0932,4.1193,0.0,4.0814,0.0,4.0396,4.0631,4.0579,0.0,3.9155,3.8423,3.7868,3.7309,3.6607,3.5769,3.516,3.4305,3.3134,3.1862,3.1222,3.1189,3.102,3.063,3.0173,2.9976,2.962,2.9197,0.0,2.8803,2.8803,2.8803,2.8473,2.7947,2.7456,2.7031,2.653,2.5954,2.5728,2.5686,0.0,0.0,0.0,0.0,0.0,0.0,0.0,0.0,0.0,0.0,0.0,0.0,0.0,0.0,0.0,0.0,0.0,0.0,0.0,0.0,0.0,3.6735,3.5171,3.4904,3.6253,3.5187,3.5094,3.6062,0.0,0.0,0.0,0.0,0.0,0.0,0.0,0.0,0.0,0.0,0.0,0.0,0.0,0.0,0.0,0.0,0.0,0.0,0.0,0.0,0.0,0.0,3.6162,3.5714,3.6874,3.6739,3.6266,3.6976,3.7425,3.7786,3.8485,3.8986,3.9305,3.9305,3.8735,3.7894,3.696,3.6035,3.4786,3.275,0.0,3.2395,3.0812,3.1712,3.3171,3.4779,0.0,3.7951,4.0026,4.0864,4.1232,4.1311,4.1311,4.1311,4.1311,4.1246,4.0984,4.0448,3.9847,3.9259,3.8736,3.82,3.7586,3.6907,3.6305,3.5068,3.322,3.2234,3.1797,3.1765,3.1316,3.0847,3.0362,2.9885,2.944,2.8978,2.885,0.0,2.8803,2.8803,2.844,2.786,2.7479,2.6998,2.6442,2.6059,2.5895,2.5864,0.0,0.0,0.0,0.0,0.0,0.0,0.0,0.0,0.0,0.0,3.3909,0.0,0.0,0.0,0.0,0.0,0.0,0.0,0.0,0.0,0.0,3.5148,3.4916,3.5036,3.5655,3.5446,3.5814,3.6812,0.0,0.0,0.0,0.0,0.0,0.0,0.0,0.0,0.0,0.0,0.0,0.0,0.0,0.0,0.0,0.0,0.0,0.0,0.0,0.0,3.6676,3.7778,3.7945,3.7771,3.8033,3.8167,3.8525,3.992,3.934,3.8556,3.9867,3.9754,3.9305,3.9305,3.8098,3.7016,3.7423,3.5448,0.0,0.0,3.2258,3.1504,3.1192,3.1595,3.2713,3.4955,3.6222,3.7612,3.9709,4.0505,4.0972,0.0,4.1311,4.1311,4.1311,4.0867,0.0,0.0,0.0,3.8815,3.8723,3.82,3.7403,3.6292,3.573,3.5018,3.4189,3.325,3.2766,3.2735,3.2297,3.1824,3.1335,3.0882,3.0387,2.9897,2.9163,0.0,2.8803,2.8803,2.8233,2.7424,2.7348,2.6791,2.6016,2.5928,2.5895,2.5895,0.0,0.0,0.0,0.0,0.0,0.0,0.0,0.0,0.0,0.0,3.5205,3.5551,0.0,0.0,0.0,0.0,0.0,0.0,0.0,0.0,0.0,0.0,3.5763,3.5911,3.6483,3.6182,0.0,0.0,0.0,0.0,0.0,0.0,0.0,0.0,0.0,0.0,0.0,0.0,0.0,0.0,0.0,0.0,0.0,0.0,0.0,0.0,0.0,0.0,3.6645,3.7646,3.8185,3.8508,3.9119,3.9315,3.9605,4.068,4.0394,3.9831,4.0435,4.0273,3.9798,3.9043,3.7718,3.6634,3.6735,0.0,0.0,0.0,3.2103,3.1461,3.0133,3.1053,0.0,3.3369,3.4942,3.6674,3.8501,3.9501,0.0,4.1142,4.1426,4.1547,0.0,0.0,0.0,0.0,0.0,3.8864,3.871,3.7599,3.6567,3.5704,3.5129,3.4685,3.4397,3.3953,3.3742,3.3742,3.2997,3.2535,3.2289,3.1574,3.1158,3.0878,2.9954,0.0,2.9509,2.9024,2.8235,2.7315,2.7315,2.6736,2.5895,2.5895,2.5895,2.5895,0.0,0.0,0.0,0.0,0.0,0.0,0.0,3.2367,3.339,3.4967,3.6206,3.6821,3.6511,3.6529,3.6583,0.0,0.0,0.0,0.0,0.0,0.0,0.0,0.0,3.6877,3.7417,0.0,0.0,0.0,0.0,0.0,0.0,0.0,0.0,0.0,0.0,0.0,0.0,0.0,0.0,0.0,0.0,0.0,0.0,0.0,0.0,0.0,0.0,0.0,0.0,0.0,3.7738,3.8422,3.933,3.978,4.0125,4.0832,4.0971,4.0888,4.0939,4.0915,4.059,3.9251,3.791,3.6816,3.6476,3.5107,0.0,3.2202,3.2061,3.1565,2.9573,3.0617,3.1927,0.0,3.3713,3.5519,3.7517,3.8674,3.9761,0.0,4.1537,0.0,0.0,0.0,0.0,0.0,0.0,0.0,3.8344,3.6815,3.5744,3.5312,3.4711,3.4397,3.4397,3.4397,3.4397,3.4397,3.3645,3.3292,3.325,3.2333,3.1884,3.184,3.0911,0.0,0.0,2.9509,2.853,2.7558,2.7393,2.6736,2.5895,2.5895,2.5895,2.5895,0.0,0.0,0.0,0.0,0.0,0.0,0.0,3.2396,3.3757,3.5193,3.6574,3.7413,3.7379,3.7594,3.7882,0.0,0.0,0.0,0.0,0.0,0.0,0.0,0.0,0.0,0.0,0.0,0.0,0.0,0.0,0.0,0.0,0.0,0.0,0.0,0.0,0.0,0.0,0.0,0.0,0.0,0.0,0.0,0.0,0.0,0.0,0.0,0.0,0.0,0.0,0.0,0.0,3.7615,3.7703,3.8856,4.036,4.1279,0.0,0.0,4.1927,4.2012,4.1666,4.0865,3.9308,3.7962,3.7969,0.0,3.3358,3.3311,3.2348,3.1428,3.1193,3.0828,3.1271,3.3447,0.0,3.4385,3.7507,3.8523,3.9492,4.1,0.0,0.0,0.0,0.0,0.0,0.0,0.0,0.0,3.7155,3.6018,3.5351,3.5299,3.4711,3.4397,3.4397,3.4397,3.4397,3.4397,3.4314,3.4259,3.4217,3.3292,3.2852,3.2809,3.1884,0.0,0.0,3.0474,2.9484,2.8482,2.7645,2.6736,2.5895,2.5895,2.5895,2.5895,0.0,0.0,0.0,0.0,0.0,0.0,0.0,3.2355,3.3482,3.5726,3.65,3.7006,3.7462,3.7612,3.7714,0.0,0.0,0.0,0.0,0.0,0.0,0.0,0.0,0.0,0.0,0.0,0.0,0.0,0.0,0.0,0.0,0.0,0.0,0.0,0.0,0.0,0.0,0.0,0.0,0.0,0.0,0.0,0.0,0.0,0.0,0.0,0.0,0.0,0.0,0.0,0.0,0.0,3.6892,3.7665,0.0,0.0,4.1136,4.146,4.2126,4.254,4.2379,4.0749,3.9209,3.7923,3.7223,0.0,3.3752,3.305,3.2452,3.1809,3.1004,3.0617,3.0811,3.215,3.2148,3.2823,3.5197,3.6372,3.7733,3.9787,0.0,0.0,0.0,0.0,0.0,0.0,0.0,0.0,3.6915,3.6105,3.5497,3.5196,3.4958,3.4825,3.4825,3.4825,3.4825,3.4825,3.4825,3.4825,3.4825,3.4314,3.4092,3.4008,3.2907,0.0,0.0,3.1444,3.043,2.9369,2.8482,2.755,2.6622,2.6104,2.5895,2.5895,0.0,0.0,0.0,0.0,0.0,0.0,3.1374,3.2023,3.3066,3.5193,3.6014,3.6582,3.7117,3.7354,3.751,3.751,0.0,0.0,0.0,0.0,0.0,0.0,0.0,0.0,0.0,0.0,0.0,0.0,0.0,0.0,0.0,0.0,0.0,0.0,0.0,0.0,0.0,0.0,0.0,0.0,0.0,0.0,0.0,0.0,0.0,0.0,0.0,0.0,0.0,0.0,0.0,0.0,0.0,0.0,0.0,0.0,4.0416,4.1336,4.1691,4.2417,4.2634,4.0662,3.9328,3.8142,0.0,3.5373,3.4106,3.2989,3.2611,3.2164,3.1249,3.0872,3.0985,3.18,3.1733,3.2303,3.4235,3.5374,0.0,0.0,0.0,0.0,0.0,0.0,0.0,0.0,0.0,0.0,3.6777,3.6173,3.5623,3.514,3.5086,3.5086,3.5086,3.5086,3.5086,3.5086,3.5086,3.5086,3.5086,3.4962,3.488,3.4839,3.3995,0.0,0.0,3.2537,3.1565,3.0638,2.9513,2.8559,2.7708,2.6678,2.6302,2.626,0.0,0.0,0.0,0.0,0.0,0.0,0.0,3.1406,3.256,3.3245,3.5114,3.6393,3.6408,3.7054,3.751,3.751,0.0,0.0,0.0,0.0,0.0,0.0,0.0,0.0,0.0,0.0,0.0,3.751,0.0,0.0,0.0,0.0,0.0,0.0,0.0,0.0,0.0,0.0,0.0,0.0,0.0,0.0,0.0,0.0,0.0,0.0,0.0,0.0,0.0,0.0,0.0,0.0,0.0,0.0,0.0,0.0,3.897,4.0505,4.052,4.1535,4.2258,4.0858,3.9997,3.8967,3.6953,3.546,3.4275,3.3552,3.2875,3.2398,3.2398,3.1879,3.1884,3.3169,3.2836,3.3212,3.5536,3.6389,0.0,0.0,0.0,0.0,0.0,0.0,0.0,0.0,0.0,0.0,3.6646,3.6049,3.5521,3.5127,3.5086,3.5086,3.5086,3.5086,3.5086,3.5086,3.5086,3.5086,3.5086,3.5086,3.5086,0.0,0.0,0.0,0.0,3.3788,3.2992,3.2405,3.0668,2.9689,2.9102,2.7685,2.7185,2.7062,0.0,0.0,0.0,0.0,0.0,0.0,0.0,3.0954,3.1966,3.3151,3.4715,3.59,3.6345,3.7054,3.751,3.751,0.0,0.0,0.0,0.0,0.0,0.0,0.0,0.0,0.0,0.0,0.0,3.751,3.751,3.751,0.0,0.0,0.0,0.0,0.0,0.0,0.0,0.0,0.0,0.0,0.0,0.0,0.0,0.0,0.0,0.0,0.0,0.0,0.0,0.0,0.0,0.0,0.0,0.0,0.0,3.6925,3.7987,0.0,3.9121,3.9801,4.017,3.88,3.8292,3.7615,3.5598,3.4813,3.4166,3.2952,3.2552,3.2398,3.2398,3.1908,3.2063,3.3783,3.3515,0.0,0.0,0.0,0.0,0.0,0.0,0.0,0.0,0.0,0.0,0.0,0.0,0.0,3.6605,3.6035,3.5642,3.5521,3.5521,3.5521,3.5521,3.5521,3.5521,3.5521,3.5521,3.5521,3.5521,3.5358,3.5318,0.0,0.0,0.0,0.0,3.4675,3.3973,3.2947,3.1696,3.0651,2.9656,2.8447,2.7689,2.7144,0.0,0.0,0.0,0.0,0.0,0.0,0.0,3.0591,3.1498,3.2392,3.4194,3.5552,3.5995,3.6896,3.751,3.751,0.0,0.0,0.0,0.0,0.0,0.0,0.0,0.0,0.0,3.751,3.7636,3.7875,3.7875,3.7875,3.7875,3.7875,0.0,0.0,0.0,0.0,0.0,0.0,0.0,0.0,0.0,0.0,0.0,0.0,0.0,0.0,0.0,0.0,0.0,0.0,0.0,0.0,0.0,0.0,0.0,0.0,3.7297,3.7802,3.7754,3.8061,3.8123,3.7015,3.6738,3.6276,3.4475,3.406,3.3752,3.2628,3.2398,3.2398,3.2398,3.2076,3.2397,3.4152,3.4084,0.0,0.0,0.0,0.0,0.0,0.0,0.0,0.0,0.0,0.0,0.0,0.0,0.0,3.628,3.5913,3.571,3.571,3.571,3.571,3.571,3.571,3.571,3.571,3.571,3.571,3.571,3.5562,3.5521,0.0,0.0,0.0,0.0,3.5236,3.4754,3.3966,3.2829,3.1928,3.1074,2.9635,2.8743,2.8159,0.0,0.0,0.0,0.0,0.0,0.0,0.0,0.0,0.0,0.0,3.3656,3.5394,3.5394,3.6672,3.751,0.0,0.0,0.0,0.0,0.0,0.0,0.0,0.0,0.0,0.0,3.751,3.7796,3.8444,3.8491,3.8507,3.8507,3.8555,3.8207,0.0,0.0,0.0,0.0,0.0,0.0,0.0,0.0,0.0,0.0,0.0,0.0,0.0,0.0,0.0,0.0,0.0,0.0,0.0,0.0,0.0,0.0,0.0,0.0,0.0,0.0,3.6446,3.6261,3.5614,3.5475,3.5122,3.3721,3.3475,0.0,3.2552,3.2428,3.2459,3.2459,3.2459,3.2936,3.4412,3.4643,0.0,0.0,3.6728,0.0,0.0,0.0,0.0,0.0,0.0,0.0,0.0,0.0,0.0,3.575,3.571,3.571,3.571,3.571,3.571,3.571,3.571,3.571,3.571,3.571,3.571,3.571,3.571,3.571,0.0,0.0,0.0,0.0,3.5521,3.5386,3.5157,3.3845,3.3286,3.2957,3.1098,3.0241,2.9794,0.0,0.0,0.0,0.0,0.0,0.0,0.0,0.0,0.0,0.0,0.0,3.5394,3.5394,3.6672,0.0,0.0,0.0,0.0,0.0,0.0,0.0,0.0,0.0,0.0,0.0,3.751,3.7589,3.7733,3.8254,3.8507,3.8523,3.9029,3.8918,3.827,3.827,0.0,0.0,0.0,0.0,0.0,0.0,0.0,0.0,0.0,0.0,0.0,0.0,3.7133,0.0,0.0,0.0,0.0,0.0,0.0,0.0,0.0,3.6773,3.6291,3.6144,0.0,3.5553,3.4905,3.5136,3.5122,0.0,3.4229,3.4506,3.2752,3.2813,3.3167,3.3167,3.3167,3.3783,3.5707,0.0,0.0,3.6793,0.0,0.0,0.0,0.0,0.0,0.0,0.0,0.0,0.0,0.0,3.5859,3.5723,3.571,3.571,3.571,3.571,3.571,3.571,3.571,3.571,3.571,3.571,3.571,3.571,3.571,3.571,0.0,0.0,0.0,3.571,3.5642,3.5101,3.4223,3.3784,3.3049,3.2155,3.154,3.0848,3.0152,0.0,0.0,0.0,0.0,0.0,0.0,0.0,0.0,0.0,0.0,0.0,0.0,0.0,0.0,0.0,0.0,0.0,0.0,0.0,0.0,0.0,0.0,0.0,0.0,0.0,3.751,3.781,3.8412,3.8776,3.9139,3.9471,3.9487,3.9139,3.8507,3.8175,0.0,0.0,0.0,0.0,0.0,0.0,0.0,0.0,0.0,0.0,0.0,3.751,3.7227,0.0,3.6837,3.6585,3.6406,0.0,0.0,0.0,0.0,3.6812,3.6252,3.6493,3.5895,3.5158,3.4787,3.474,3.457,3.381,3.3968,3.3955,3.2755,3.2773,3.31,3.3336,3.3398,3.3983,0.0,3.6292,0.0,0.0,0.0,0.0,0.0,0.0,0.0,0.0,0.0,0.0,0.0,0.0,3.571,3.571,3.571,3.571,3.571,3.571,3.571,3.571,3.571,3.571,3.571,3.571,3.571,3.571,3.571,3.571,0.0,0.0,0.0,3.5696,3.5385,3.4897,3.426,3.3641,3.3046,3.2401,3.2034,3.1532,3.0985,0.0,0.0,0.0,0.0,0.0,0.0,0.0,0.0,0.0,0.0,0.0,0.0,0.0,0.0,0.0,0.0,0.0,0.0,0.0,0.0,0.0,0.0,0.0,3.751,3.751,3.751,3.8079,3.9187,3.9392,3.9819,4.0419,3.9914,3.925,3.8491,3.7796,0.0,0.0,0.0,0.0,0.0,0.0,0.0,0.0,0.0,0.0,0.0,0.0,0.0,0.0,3.7291,3.7194,3.7067,3.7472,0.0,0.0,0.0,0.0,0.0,3.6939,3.6115,3.5123,3.5065,3.4628,3.4157,3.3954,3.3536,3.3092,3.2722,0.0,0.0,0.0,3.3794,0.0,0.0,0.0,0.0,4.0023,0.0,0.0,0.0,0.0,0.0,0.0,0.0,0.0,0.0,0.0,3.571,3.571,3.571,3.571,3.571,3.571,3.571,3.571,3.571,3.571,3.571,3.571,3.571,3.571,3.571,3.571,3.571,0.0,0.0,3.5533,3.4992,3.4694,3.4461,3.3495,3.3047,3.2898,3.2395,3.2109,3.1853,0.0,0.0,0.0,0.0,0.0,0.0,0.0,0.0,0.0,0.0,0.0,0.0,0.0,0.0,0.0,0.0,0.0,0.0,0.0,0.0,0.0,0.0,0.0,3.751,3.751,3.751,3.7605,3.7826,3.8934,3.9566,3.9677,4.0182,3.974,3.8491,3.7796,3.751,0.0,0.0,0.0,0.0,0.0,0.0,0.0,0.0,0.0,0.0,0.0,0.0,0.0,3.639,3.5789,3.5189,3.7448,0.0,0.0,0.0,0.0,0.0,3.6619,3.6364,3.6103,3.5826,3.566,3.5315,3.4148,3.4269,3.4269,0.0,0.0,0.0,0.0,3.5557,3.6628,0.0,0.0,3.9382,0.0,0.0,0.0,0.0,0.0,0.0,0.0,0.0,0.0,0.0,0.0,3.571,3.571,3.571,3.571,3.571,3.571,3.571,3.571,3.571,3.571,3.571,3.571,3.571,3.571,3.571,3.571,3.571,0.0,3.5385,3.4924,3.4829,3.4231,3.3346,3.3169,3.2789,3.2341,3.2246,3.2182,3.2109,0.0,0.0,0.0,0.0,0.0,0.0,0.0,0.0,0.0,0.0,0.0,0.0,0.0,0.0,0.0,0.0,0.0,0.0,0.0,0.0,0.0,0.0,3.751,3.751,3.751,3.7844,3.8223,3.857,3.9598,4.0277,4.0625,4.0198,3.9266,3.7938,3.7652,3.751,3.751,0.0,0.0,0.0,0.0,0.0,0.0,0.0,0.0,0.0,0.0,0.0,0.0,0.0,3.5783,3.5957,3.7334,0.0,0.0,0.0,0.0,0.0,3.6659,3.6416,3.6099,3.6031,3.6105,3.6016,3.5388,3.52,3.4965,0.0,0.0,0.0,0.0,0.0,3.7499,3.9044,0.0,4.0654,0.0,0.0,0.0,0.0,0.0,0.0,0.0,0.0,0.0,0.0,0.0,0.0,3.571,3.571,3.571,3.571,3.571,3.571,3.571,3.571,3.571,3.571,3.571,3.571,3.571,3.571,3.571,3.5696,0.0,3.5046,3.4748,3.4149,3.3552,3.3074,3.2748,3.2449,3.2218,3.2218,3.2218,3.2182,0.0,0.0,0.0,0.0,0.0,0.0,0.0,0.0,0.0,0.0,0.0,0.0,0.0,0.0,0.0,0.0,0.0,0.0,0.0,0.0,3.751,3.751,3.751,3.751,3.751,3.816,3.876,3.9281,4.0166,4.0767,4.1067,3.9835,3.8634,3.751,3.751,3.751,3.751,3.751,0.0,0.0,0.0,0.0,0.0,0.0,0.0,0.0,0.0,0.0,0.0,0.0,0.0,0.0,0.0,0.0,0.0,3.7577,3.6937,3.6164,3.6555,3.6307,3.5943,3.6232,3.6183,3.6153,3.6342,3.5884,3.5461,3.5679,0.0,0.0,0.0,3.6951,0.0,4.0764,4.1274,0.0,0.0,0.0,0.0,0.0,0.0,0.0,0.0,0.0,0.0,0.0,0.0,0.0,3.6269,3.6097,3.5977,3.5977,3.579,3.571,3.571,3.571,3.571,3.571,3.571,3.571,3.571,3.571,3.5642,3.5439,3.4992,3.4639,3.4339,3.3468,3.302,3.2843,3.2395,3.2218,3.2218,3.2218,3.2218,3.2218,0.0,0.0,0.0,0.0,0.0,0.0,0.0,0.0,0.0,0.0,0.0,0.0,0.0,0.0,0.0,0.0,0.0,0.0,0.0,0.0,3.751,3.751,3.751,3.751,3.751,3.816,3.8508,3.8586,3.9929,4.0277,3.9645,3.8918,3.8191,3.751,3.751,3.751,3.751,3.751,3.751,0.0,0.0,0.0,0.0,0.0,0.0,0.0,0.0,0.0,0.0,0.0,0.0,0.0,0.0,0.0,3.7594,3.6986,3.6715,3.6531,3.6073,3.5951,3.6059,3.6669,3.6006,3.5428,3.6235,3.5884,3.5758,3.7069,0.0,0.0,0.0,3.8091,3.959,4.1915,4.2638,0.0,0.0,0.0,0.0,0.0,0.0,0.0,0.0,0.0,0.0,0.0,0.0,0.0,3.7951,3.7218,3.6819,3.6819,3.6097,3.571,3.571,3.571,3.571,3.571,3.571,3.571,3.571,3.571,3.5371,3.4856,3.4816,3.4204,3.3224,3.3129,3.2775,3.2273,3.2232,3.2218,3.2218,3.2218,3.2218,3.2218,0.0,0.0,0.0,0.0,0.0,0.0,0.0,0.0,0.0,0.0,0.0,0.0,0.0,0.0,0.0,0.0,0.0,0.0,0.0,0.0,3.7359,3.748,3.751,3.751,3.751,3.857,3.9123,3.9123,4.0119,4.0008,3.8886,3.8634,0.0,0.0,3.751,3.751,3.751,3.751,3.751,3.751,0.0,0.0,0.0,0.0,0.0,0.0,0.0,0.0,0.0,0.0,3.5052,3.6209,3.6662,3.7509,3.814,3.7403,3.7197,3.705,3.6355,3.6241,3.6527,3.7257,3.6879,3.6509,3.7319,3.8024,3.8686,3.9311,3.9424,0.0,0.0,0.0,3.9832,4.1464,0.0,0.0,0.0,0.0,0.0,0.0,0.0,0.0,0.0,0.0,0.0,0.0,0.0,0.0,3.8495,3.8078,3.7587,3.7102,3.6663,3.6217,3.571,3.571,3.571,3.571,3.571,3.571,3.571,3.571,3.5358,3.4775,3.4395,3.3824,3.3074,3.2707,3.2422,3.2218,3.2218,3.2218,3.2218,3.2218,3.2218,3.2218,0.0,0.0,0.0,0.0,0.0,0.0,0.0,0.0,0.0,0.0,0.0,0.0,0.0,0.0,0.0,0.0,0.0,0.0,0.0,0.0,3.7147,3.774,3.7756,3.7844,3.8046,3.8964,3.9387,3.9187,3.9692,3.9439,3.8507,0.0,0.0,3.751,3.751,3.751,3.751,3.751,3.751,3.751,3.751,0.0,0.0,0.0,0.0,0.0,0.0,0.0,0.0,0.0,3.516,3.6474,3.6377,3.7222,3.8116,3.7335,3.7305,3.7392,3.6818,3.6764,3.7035,3.7652,3.7683,3.7757,3.8383,3.9341,4.0305,4.1102,4.0909,4.0372,3.9645,0.0,0.0,0.0,0.0,0.0,0.0,0.0,0.0,0.0,0.0,0.0,0.0,0.0,0.0,0.0,0.0,0.0,0.0,3.9073,3.8598,3.7988,3.7663,3.7025,3.6097,3.6123,3.6004,3.571,3.5533,3.5533,3.571,3.552,3.5073,3.4477,3.3894,3.3335,3.2789,3.2381,3.2218,3.2218,3.2218,3.2218,3.2218,3.2218,3.2218,3.2218,0.0,0.0,0.0,0.0,0.0,0.0,0.0,0.0,0.0,0.0,0.0,0.0,0.0,0.0,0.0,0.0,0.0,0.0,0.0,3.6565,3.6826,3.8225,3.829,3.8585,3.9162,3.9336,3.909,3.8507,3.8507,3.8507,3.8491,3.7796,0.0,3.751,3.751,3.751,3.751,3.751,3.751,3.7494,3.7494,3.7494,0.0,0.0,0.0,0.0,0.0,0.0,0.0,0.0,3.4947,3.5948,3.5695,3.6488,3.7374,3.6542,3.687,3.7512,3.7495,3.7512,3.7553,3.7787,3.8323,3.8898,3.9247,3.9386,4.0045,4.2276,4.1588,4.0388,3.9645,3.9518,0.0,4.1351,0.0,0.0,0.0,0.0,0.0,0.0,0.0,0.0,0.0,0.0,0.0,0.0,0.0,0.0,0.0,4.0355,3.9819,3.9611,3.9007,3.8123,3.6922,3.7088,3.666,3.5696,3.5073,3.51,3.5683,3.5059,3.4463,3.3867,3.3322,3.2762,3.2218,3.2218,3.2218,3.2218,3.2218,3.2218,3.2218,3.2218,3.2218,3.2218,0.0,0.0,0.0,0.0,0.0,0.0,0.0,0.0,0.0,0.0,0.0,0.0,0.0,0.0,0.0,0.0,0.0,0.0,0.0,0.0,0.0,0.0,0.0,0.0,0.0,0.0,3.9233,3.9135,3.872,3.827,0.0,0.0,3.751,3.751,3.751,3.751,3.751,3.751,3.7196,3.6738,3.6738,3.6738,0.0,0.0,0.0,0.0,0.0,0.0,0.0,0.0,0.0,0.0,3.6071,3.745,3.8681,3.6835,3.7232,3.8025,3.6939,3.7158,3.7944,3.8888,3.9834,4.0779,0.0,4.2187,0.0,0.0,4.2234,4.1083,4.0403,0.0,0.0,0.0,0.0,0.0,0.0,0.0,0.0,0.0,0.0,0.0,0.0,0.0,0.0,0.0,0.0,0.0,0.0,4.1073,4.0585,3.9969,3.9164,3.8022,3.649,3.609,3.539,3.4423,3.4246,3.4477,3.5032,3.4436,3.384,3.3322,3.3183,3.2762,3.2218,3.2218,3.2218,3.2218,3.2218,3.2218,3.2218,3.2218,3.2218,3.2218,0.0,0.0,0.0,0.0,0.0,0.0,0.0,0.0,0.0,0.0,0.0,0.0,0.0,0.0,0.0,0.0,0.0,0.0,0.0,0.0,0.0,0.0,0.0,0.0,0.0,3.948,3.9565,0.0,0.0,0.0,0.0,0.0,3.751,3.751,3.751,3.7322,3.7054,3.7054,3.6817,3.6393,3.6393,3.6393,3.6282,0.0,0.0,0.0,0.0,0.0,0.0,0.0,0.0,0.0,3.6143,3.7042,3.7676,3.638,3.681,3.7568,3.7031,3.7496,3.8468,3.9918,4.0721,4.1627,4.3375,0.0,0.0,0.0,4.2718,4.1869,4.147,4.1167,0.0,0.0,0.0,0.0,0.0,0.0,0.0,0.0,0.0,0.0,0.0,0.0,0.0,0.0,0.0,0.0,0.0,4.1237,4.0767,4.0201,3.9455,3.8379,3.6909,3.6194,3.537,3.4437,3.384,3.3783,3.4109,3.3756,3.3403,3.3088,3.2857,3.2544,3.2218,3.2218,3.2218,3.2218,3.2218,3.2218,3.2218,3.2218,3.2218,3.2218,0.0,0.0,0.0,0.0,0.0,0.0,0.0,0.0,0.0,0.0,3.5337,0.0,0.0,0.0,0.0,0.0,0.0,0.0,0.0,0.0,0.0,0.0,0.0,0.0,0.0,0.0,0.0,0.0,0.0,0.0,0.0,3.7583,3.7583,3.7583,3.7431,3.7022,3.6393,3.6329,3.6266,3.6203,3.6203,3.6203,3.6124,3.5458,0.0,0.0,0.0,0.0,0.0,0.0,0.0,0.0,3.5968,3.5835,3.5339,3.5584,3.5963,3.6526,3.7512,3.8174,3.9038,4.084,4.1374,4.2025,4.4101,4.4119,4.3663,4.3585,0.0,4.2679,4.2617,4.2051,0.0,0.0,0.0,0.0,0.0,0.0,0.0,0.0,0.0,0.0,0.0,0.0,0.0,0.0,0.0,0.0,0.0,4.0862,4.0418,4.0225,3.9677,3.8871,3.7776,3.6999,3.6158,3.5178,3.3818,3.3155,3.3131,3.3057,3.302,3.2993,3.2449,3.2218,3.2218,3.2218,3.2218,3.2218,3.2218,3.2218,3.2218,3.2218,3.2218,3.2218,0.0,0.0,0.0,0.0,0.0,0.0,0.0,0.0,0.0,0.0,0.0,0.0,0.0,0.0,0.0,0.0,0.0,0.0,0.0,0.0,0.0,0.0,0.0,0.0,0.0,0.0,0.0,0.0,0.0,0.0,3.8827,3.8339,3.8141,3.808,3.7067,3.6535,3.6361,3.5853,3.5284,3.4747,3.4747,3.4747,3.4683,3.4004,3.3972,0.0,0.0,0.0,0.0,0.0,0.0,0.0,3.5968,3.6197,3.6073,3.6143,3.6216,3.6487,3.733,3.8062,3.9106,4.1285,4.316,4.4593,4.5074,4.4732,4.4301,4.4293,4.3764,4.3152,4.2694,0.0,0.0,0.0,0.0,0.0,0.0,0.0,0.0,0.0,0.0,0.0,0.0,0.0,0.0,0.0,0.0,0.0,4.0783,4.0135,3.974,3.9661,3.9045,3.8279,3.734,3.6599,3.5565,0.0,3.3956,3.3599,3.3232,3.265,3.2395,3.2395,3.2273,3.2218,3.2218,3.2218,3.2218,3.2218,3.2218,3.2218,3.2218,3.2218,3.2218,3.2218,0.0,0.0,0.0,0.0,0.0,0.0,0.0,0.0,0.0,0.0,0.0,0.0,0.0,0.0,0.0,0.0,0.0,0.0,0.0,0.0,3.5887,3.7857,0.0,0.0,0.0,0.0,0.0,0.0,0.0,3.9361,3.9189,3.8487,3.8204,3.8262,3.7275,3.6473,3.5884,3.5157,3.4636,3.4288,3.4288,3.4099,3.3783,3.3435,3.3103,3.2819,3.2803,0.0,0.0,0.0,0.0,0.0,0.0,0.0,3.526,3.5377,3.5324,3.5518,3.6764,3.7835,3.9232,4.1912,0.0,4.4975,4.5311,4.5167,4.4934,4.4934,4.4429,4.3881,4.3575,0.0,0.0,0.0,0.0,0.0,0.0,0.0,0.0,0.0,0.0,0.0,0.0,0.0,0.0,0.0,0.0,3.9677,4.0056,3.9408,3.9029,3.9029,3.8365,3.782,3.7344,3.6522,3.5742,3.4999,3.4317,3.3734,3.3269,3.2717,3.2444,3.2444,3.2277,3.2218,3.2218,3.2218,3.2218,3.2218,3.2218,3.2218,3.2218,3.2218,3.2218,3.2218,0.0,0.0,0.0,0.0,0.0,0.0,0.0,0.0,0.0,0.0,0.0,0.0,0.0,0.0,0.0,0.0,0.0,0.0,0.0,3.4928,3.682,3.9973,0.0,0.0,0.0,0.0,0.0,0.0,0.0,3.9447,3.9647,3.8766,3.8444,3.8536,3.7655,3.6593,3.5467,3.4498,3.4032,3.3952,3.3814,3.3435,3.2945,3.2945,3.2218,3.1286,3.1896,3.2117,3.2298,3.3443,0.0,0.0,0.0,0.0,3.3965,3.4261,3.4138,3.4275,3.599,3.7626,3.9497,4.2292,4.3552,0.0,4.4915,4.5053,4.5079,4.5079,4.4871,4.4614,0.0,0.0,0.0,0.0,0.0,0.0,0.0,0.0,0.0,0.0,0.0,0.0,0.0,0.0,0.0,0.0,0.0,3.9202,3.9329,3.8697,3.8333,3.8333,3.778,3.751,3.751,3.6723,3.6306,3.6182,3.4949,3.4075,3.3604,3.322,3.2903,3.2668,3.2408,3.2241,3.2218,3.2218,3.2218,3.2218,3.2218,3.2218,3.2218,3.2218,3.2218,3.2218,0.0,0.0,0.0,0.0,0.0,0.0,0.0,0.0,0.0,0.0,3.2521,3.2992,3.4239,3.1552,0.0,0.0,0.0,0.0,3.2506,0.0,0.0,0.0,0.0,0.0,0.0,0.0,0.0,0.0,3.8427,3.9118,4.1606,4.0332,3.975,3.9707,3.7851,3.6701,3.5948,3.4009,3.2944,3.2513,3.1871,3.1546,3.1467,3.1467,3.1356,3.1198,3.1318,3.1349,3.1498,3.2485,3.2844,0.0,0.0,0.0,3.3195,3.3931,3.3623,3.3404,3.5048,3.756,4.0118,0.0,4.279,4.3452,0.0,0.0,4.3746,0.0,4.4569,0.0,0.0,0.0,0.0,0.0,0.0,0.0,0.0,0.0,0.0,0.0,0.0,0.0,0.0,0.0,0.0,0.0,3.8412,3.8002,3.8618,3.7986,3.7622,3.7622,3.7557,3.751,3.751,3.7375,3.7074,3.6616,3.5976,3.54,3.4924,3.4543,3.3748,3.2704,3.2632,3.248,3.2218,3.2218,3.2218,3.2218,3.2218,3.2218,3.2218,3.2218,3.2218,3.2218,0.0,0.0,0.0,0.0,0.0,0.0,0.0,0.0,0.0,0.0,0.0,3.3181,3.451,3.2919,0.0,0.0,0.0,0.0,3.2882,3.3897,0.0,0.0,0.0,0.0,0.0,0.0,0.0,0.0,3.6715,3.7525,4.0077,3.9894,4.0148,4.062,3.8891,3.7409,3.6064,3.3899,3.273,3.2228,3.1507,3.146,3.1713,3.0939,3.0875,3.1184,3.1023,3.0974,3.114,3.219,3.2746,3.3067,3.3502,0.0,0.0,0.0,3.3179,3.344,3.5962,3.7945,3.9787,0.0,4.2517,4.2905,4.3322,4.3475,4.3482,4.3482,4.394,0.0,0.0,0.0,0.0,0.0,0.0,0.0,0.0,0.0,0.0,0.0,0.0,0.0,0.0,0.0,0.0,0.0,3.7842,3.7636,3.7923,3.7668,3.751,3.751,3.751,3.751,3.751,3.751,3.7225,3.6693,3.6445,3.5943,3.5201,3.5023,3.4341,3.3304,3.2881,3.2596,3.248,3.2277,3.2218,3.2218,3.2218,3.2218,3.2218,3.2218,3.2218,3.2218,0.0,0.0,0.0,0.0,0.0,0.0,0.0,0.0,0.0,0.0,0.0,0.0,3.5096,0.0,0.0,0.0,0.0,0.0,3.2848,0.0,0.0,0.0,0.0,0.0,0.0,0.0,0.0,3.6025,3.5663,3.6646,3.8888,3.9646,4.0508,4.1333,4.0065,3.8421,3.6465,3.4537,3.3405,3.288,3.2003,3.2001,3.2383,3.1376,3.1302,3.1643,3.1102,3.0906,3.1015,3.1736,3.2262,3.2618,0.0,0.0,0.0,0.0,0.0,3.331,3.6107,3.7457,3.8655,4.0948,4.1685,4.2056,0.0,0.0,4.3003,0.0,0.0,0.0,0.0,0.0,0.0,0.0,0.0,0.0,0.0,0.0,0.0,0.0,0.0,0.0,0.0,0.0,0.0,0.0,3.751,3.751,3.751,3.751,3.751,3.751,3.751,3.751,3.751,3.751,3.7285,3.6907,3.6907,3.643,3.5591,3.5591,3.507,3.4099,3.322,3.281,3.2668,3.2336,3.2218,3.2218,3.2218,3.2218,3.2218,3.2218,3.2218,3.2218,0.0,0.0,0.0,0.0,0.0,0.0,0.0,0.0,0.0,0.0,0.0,0.0,0.0,0.0,0.0,0.0,0.0,0.0,0.0,0.0,0.0,0.0,0.0,0.0,0.0,0.0,3.5956,3.5249,3.5921,3.7404,3.9664,4.0463,4.1233,4.1916,4.114,3.9658,3.7628,3.6163,3.5249,3.466,3.3412,3.2927,3.2975,3.3105,3.3166,3.3008,3.1675,3.1184,3.1109,0.0,3.0618,3.0799,3.1623,3.1868,3.1852,0.0,0.0,0.0,3.4142,3.5211,0.0,3.8546,3.9743,4.0599,0.0,0.0,0.0,0.0,0.0,0.0,0.0,0.0,0.0,0.0,0.0,0.0,0.0,0.0,0.0,0.0,0.0,0.0,0.0,0.0,0.0,0.0,3.751,3.751,3.751,3.751,3.751,3.751,3.751,3.751,3.751,3.751,3.748,3.745,3.745,3.7165,3.6616,3.6616,3.607,3.507,3.3811,3.3058,3.2668,3.2336,3.2218,3.2218,3.2218,3.2218,3.2218,3.2218,3.2218,3.2218,0.0,0.0,0.0,0.0,0.0,0.0,0.0,0.0,0.0,0.0,0.0,0.0,0.0,3.46,3.3544,3.2763,0.0,0.0,0.0,0.0,0.0,0.0,0.0,0.0,0.0,3.4926,3.4749,3.4493,3.4231,3.5283,3.7542,3.8336,3.9117,3.9859,4.0584,4.0031,3.8427,3.6503,3.5224,3.4358,3.338,3.3335,3.3804,3.3435,3.3862,3.4517,3.3387,3.2672,0.0,0.0,0.0,3.1257,3.187,3.1402,3.0711,3.1058,3.1601,3.2457,3.4027,0.0,0.0,3.7831,3.9024,3.9873,4.0644,4.1231,4.1604,4.1604,0.0,0.0,0.0,0.0,0.0,0.0,0.0,0.0,0.0,0.0,0.0,0.0,0.0,0.0,0.0,0.0,0.0,0.0,0.0,3.751,3.751,3.751,3.751,3.751,3.751,3.751,3.751,3.751,3.751,3.751,3.751,3.7225,3.6693,3.6693,3.6133,3.5169,3.4442,3.3865,3.3374,3.2789,3.2538,3.2503,3.2277,3.2218,3.2218,3.2218,3.2218,3.2218,0.0,0.0,0.0,0.0,0.0,0.0,0.0,0.0,0.0,3.6643,0.0,0.0,0.0,0.0,3.468,3.3173,3.2357,0.0,0.0,0.0,0.0,0.0,0.0,0.0,0.0,3.4235,3.3975,3.3697,3.3421,3.4197,3.5956,3.7012,3.7892,3.8629,3.941,3.9553,3.9143,3.7672,3.6658,3.5981,3.5283,3.5214,3.5541,3.54,3.5669,3.5989,3.5128,0.0,0.0,0.0,0.0,0.0,3.2425,3.1484,3.0319,3.0698,3.1237,3.1986,3.3367,0.0,0.0,0.0,3.8128,3.8866,4.0204,0.0,4.1218,4.1218,0.0,0.0,0.0,0.0,0.0,0.0,0.0,0.0,0.0,0.0,0.0,0.0,0.0,0.0,0.0,0.0,0.0,0.0,0.0,0.0,3.751,3.751,3.751,3.751,3.751,3.751,3.751,3.751,3.751,3.751,3.751,3.7315,3.6968,3.6968,3.6523,3.5688,3.5237,3.4576,3.3736,3.3164,3.2917,3.2881,3.2516,3.2372,3.2336,3.2241,3.2218,3.2218,0.0,0.0,0.0,0.0,0.0,0.0,0.0,0.0,3.7618,3.6931,0.0,0.0,0.0,0.0,0.0,3.4692,3.388,3.344,3.3474,0.0,0.0,0.0,0.0,0.0,3.3823,3.4028,3.3749,3.3007,3.3749,3.449,3.5232,3.6753,3.7875,3.8525,3.7823,3.8323,3.9664,3.9612,3.9629,3.9629,3.9064,3.8497,3.8104,3.9011,3.8598,3.7478,3.6738,3.6058,0.0,3.4416,0.0,0.0,3.3094,3.2015,3.0749,3.0785,3.089,3.115,0.0,0.0,0.0,0.0,0.0,0.0,3.987,0.0,4.0432,0.0,0.0,0.0,0.0,0.0,0.0,0.0,0.0,0.0,0.0,0.0,0.0,0.0,0.0,0.0,0.0,0.0,0.0,0.0,3.751,3.751,3.751,3.751,3.751,3.751,3.751,3.751,3.751,3.751,3.751,3.751,3.751,3.751,3.751,3.751,3.7195,3.6677,3.6149,3.5139,3.3805,3.3444,3.3304,3.3269,3.2881,3.2704,3.2668,3.2336,3.2218,3.2218,0.0,0.0,0.0,0.0,0.0,0.0,3.8717,3.7787,3.7212,0.0,0.0,0.0,3.7838,3.7229,3.6626,3.6203,3.4945,3.4421,3.4957,3.3977,3.3685,3.4313,3.4699,3.5339,3.6277,3.5377,3.5042,3.5352,3.5042,3.499,3.5214,3.618,3.7042,3.7806,3.7599,3.8008,3.8819,3.7698,3.7997,3.9095,3.776,3.7611,0.0,0.0,0.0,0.0,0.0,3.7812,3.7541,0.0,3.5636,3.4161,0.0,3.1596,3.1387,3.0941,3.1601,3.2453,3.2249,0.0,0.0,0.0,0.0,0.0,0.0,0.0,0.0,0.0,0.0,0.0,0.0,0.0,0.0,0.0,0.0,0.0,0.0,0.0,0.0,0.0,0.0,0.0,0.0,0.0,0.0,0.0,3.751,3.751,3.751,3.751,3.751,3.751,3.751,3.751,3.751,3.751,3.751,3.751,3.751,3.751,3.751,3.751,3.7195,3.6693,3.6554,3.5832,3.4739,3.3962,3.3667,3.3632,3.3269,3.2952,3.2704,3.2596,3.2408,3.2218,0.0,0.0,0.0,0.0,0.0,3.9368,3.9039,3.8539,3.8234,0.0,0.0,0.0,3.8345,3.7973,3.7608,3.728,3.6169,3.5639,3.6079,3.4996,3.4566,3.5137,3.5301,3.5977,3.7269,3.5931,3.5559,3.6301,3.5249,3.4887,3.5197,3.5628,3.6077,3.6529,3.6218,3.6646,3.7542,3.6008,3.6719,0.0,3.82,0.0,0.0,3.8971,3.9342,0.0,0.0,0.0,3.8823,3.8144,3.679,0.0,0.0,3.195,3.2129,3.1424,3.2118,3.3092,3.3046,3.3434,0.0,0.0,0.0,0.0,0.0,3.7341,0.0,0.0,0.0,0.0,0.0,0.0,0.0,0.0,0.0,0.0,0.0,0.0,0.0,0.0,0.0,0.0,0.0,3.8226,3.7727,3.751,3.751,3.751,3.751,3.751,3.751,3.751,3.751,3.751,3.751,3.751,3.751,3.751,3.751,3.751,3.751,3.751,3.7315,3.7029,3.6785,3.6367,3.5752,3.4758,3.4249,3.4025,3.3667,3.3374,3.3129,3.281,3.2574,3.2372,0.0,0.0,4.0096,4.0096,4.0096,3.9893,3.9208,3.969,3.9859,0.0,3.9706,3.9893,3.9309,3.9157,3.8853,3.821,3.7466,3.7015,3.6931,3.618,3.5751,3.5817,3.5949,3.6405,3.7308,3.6104,3.5766,3.6422,3.5111,3.4786,3.5318,3.5318,3.5266,3.5163,3.4507,3.4938,3.6094,3.4766,3.5873,3.8532,3.9404,3.9893,0.0,0.0,4.1105,4.0726,4.0768,4.0341,3.9613,3.8853,3.7447,0.0,0.0,3.3048,3.3128,3.23,3.272,0.0,3.406,3.4455,0.0,0.0,3.5173,0.0,3.6443,3.6865,3.7218,0.0,0.0,0.0,0.0,0.0,0.0,0.0,0.0,0.0,0.0,0.0,0.0,0.0,0.0,0.0,3.9551,3.8778,3.8112,3.7626,3.7524,3.751,3.751,3.751,3.751,3.751,3.751,3.751,3.751,3.751,3.751,3.751,3.751,3.751,3.751,3.751,3.751,3.748,3.6998,3.6754,3.6616,3.5752,3.5019,3.4433,3.4011,3.3839,3.3736,3.3023,3.2739,3.2632,0.0,0.0,4.0096,4.0096,4.0096,4.0045,3.991,4.0011,4.0045,3.991,4.0011,4.0282,4.0713,4.0223,3.9842,3.969,3.8988,3.8311,0.0,3.6975,3.6378,3.5988,3.5975,3.6465,3.7434,3.718,3.7133,3.7271,3.6995,3.6581,3.6094,3.6094,3.5766,3.518,3.5042,3.5145,3.5387,3.5111,0.0,3.7784,3.8551,0.0,4.0906,4.1144,4.1633,4.2192,4.213,4.1714,4.0974,3.9612,3.843,3.7175,0.0,3.5244,3.5387,3.4024,3.4614,3.5465,3.4473,3.5119,3.5717,3.4093,0.0,0.0,3.5206,3.6036,3.7218,0.0,0.0,0.0,0.0,0.0,0.0,0.0,0.0,0.0,0.0,0.0,0.0,0.0,0.0,0.0,4.0228,3.9059,3.8266,3.8153,3.7727,3.751,3.751,3.751,3.751,3.751,3.751,3.751,3.751,3.751,3.751,3.751,3.751,3.751,3.751,3.751,3.751,3.748,3.7391,3.7105,3.6693,3.6492,3.5879,3.4986,3.4467,3.4094,3.3736,3.3339,3.2988,3.2632,0.0,4.0096,4.0096,4.0096,4.0096,4.0096,4.0096,4.0096,4.0231,4.0595,4.0646,4.0646,4.0646,4.0333,4.0096,4.0096,3.9436,0.0,0.0,3.7422,3.6718,3.6573,3.6202,3.6637,3.8008,3.7702,3.7685,3.8065,3.7685,3.7098,3.6301,3.6301,3.6094,3.5732,3.5352,3.5387,3.5714,3.5352,3.5852,3.7038,3.8601,0.0,4.1622,4.2156,4.2844,4.3495,4.3144,4.258,4.1805,4.027,3.9385,0.0,0.0,3.6694,3.7146,0.0,3.599,3.6667,3.5552,3.5855,3.6246,3.5107,0.0,0.0,0.0,3.6011,3.6683,3.7845,3.7812,0.0,0.0,0.0,0.0,0.0,0.0,0.0,0.0,0.0,0.0,0.0,0.0,0.0,4.0019,3.9272,3.8601,3.7943,3.7655,3.751,3.751,3.751,3.751,3.751,3.751,3.751,3.751,3.751,3.751,3.751,3.751,3.751,3.751,3.751,3.751,3.751,3.751,3.7345,3.7075,3.6816,3.6258,3.5512,3.5019,3.452,3.4059,3.3701,3.3304,3.2952,0.0,4.0096,4.0096,4.0096,4.0096,4.0096,4.0096,4.0096,4.0434,4.1305,4.1407,4.1305,4.101,4.084,4.0874,4.1162,4.0087,0.0,0.0,3.7997,3.7108,3.7302,3.6608,3.6894,3.8353,3.7944,3.7875,3.8146,3.7719,3.7098,3.6301,3.6301,3.6215,3.6059,3.5611,3.5732,3.6266,0.0,0.0,3.7344,0.0,4.0597,4.1498,4.2924,4.3709,4.4013,4.3619,4.3236,4.262,4.0973,4.0418,4.0028,3.7756,3.7962,0.0,0.0,0.0,0.0,0.0,0.0,0.0,0.0,0.0,3.6386,0.0,0.0,0.0,3.7591,0.0,0.0,0.0,0.0,0.0,0.0,0.0,0.0,0.0,0.0,0.0,0.0,0.0,0.0,0.0,3.9436,3.8809,3.7583,3.7456,3.7469,3.751,3.751,3.751,3.751,3.751,3.751,3.751,3.751,3.751,3.751,3.751,3.751,3.751,3.751,3.751,3.751,3.751,3.751,3.748,3.7029,3.6554,3.5991,3.5415,3.4887,3.4346,3.3942,3.3597,3.3234,4.0096,4.0096,4.0096,4.0096,4.0096,4.0096,4.0096,4.0096,4.0603,4.1982,4.2168,4.2658,4.3955,4.3453,4.3589,4.4942,4.254,0.0,4.1863,0.0,3.7872,3.8071,3.7376,3.718,3.7611,3.8185,3.7836,3.6559,3.718,3.7098,3.6301,3.6301,3.5956,3.5335,3.5921,3.6215,3.6284,0.0,3.7784,0.0,4.0685,4.0065,0.0,4.2144,4.291,4.254,4.3252,4.3831,4.3962,0.0,4.1504,4.1557,0.0,3.9573,4.0342,3.8784,0.0,0.0,0.0,0.0,0.0,0.0,3.7876,0.0,0.0,0.0,3.7422,3.6969,0.0,0.0,0.0,0.0,0.0,0.0,0.0,0.0,0.0,0.0,0.0,0.0,0.0,0.0,0.0,3.9371,3.8555,3.7565,3.7338,3.7315,3.7508,3.751,3.751,3.751,3.751,3.751,3.751,3.751,3.751,3.751,3.751,3.751,3.751,3.751,3.751,3.751,3.751,3.751,3.751,3.7435,3.7089,3.6523,3.5559,3.4887,3.4346,3.3942,3.3597,3.3234,4.0096,4.0096,4.0096,4.0096,4.0096,4.0096,4.0096,4.1585,4.2618,4.2337,4.3453,4.4519,4.5162,4.4553,4.4536,4.5618,4.4147,4.2912,0.0,0.0,3.9166,3.8914,3.782,3.7715,3.875,3.8254,3.7836,3.7629,3.7547,3.7098,3.6301,0.0,3.6611,3.7163,3.7042,3.7715,3.8927,0.0,3.837,0.0,0.0,0.0,0.0,4.2975,4.4302,4.409,4.4487,4.478,4.4766,0.0,4.2585,0.0,0.0,0.0,0.0,0.0,0.0,0.0,0.0,0.0,0.0,0.0,0.0,0.0,3.6949,0.0,3.7109,0.0,0.0,0.0,0.0,0.0,0.0,0.0,0.0,0.0,0.0,0.0,0.0,0.0,0.0,0.0,0.0,0.0,0.0,0.0,3.7001,3.7098,3.6877,3.7259,3.751,3.751,3.751,3.751,3.751,3.751,3.751,3.751,3.751,3.751,3.751,3.751,3.751,3.751,3.751,3.751,3.751,3.751,3.7195,3.6662,3.6242,3.5559,3.482,3.4332,3.3908,3.3563,4.0096,0.0,0.0,4.0096,4.0096,4.018,4.0383,4.2252,4.347,4.3007,4.4553,4.594,4.6549,4.6126,4.6261,0.0,4.6278,4.5139,0.0,0.0,4.0839,4.0695,3.8923,3.8482,3.9664,3.8439,3.7875,3.7956,3.7668,3.7098,3.6301,0.0,3.7111,3.7956,3.7836,3.8841,4.0515,0.0,3.96,4.0204,4.0549,4.0578,4.0784,4.3699,4.5035,4.5397,4.5397,4.5397,4.5207,4.3931,4.35,0.0,4.1688,0.0,0.0,0.0,0.0,0.0,3.9393,0.0,0.0,0.0,0.0,0.0,0.0,0.0,0.0,0.0,0.0,0.0,0.0,0.0,0.0,0.0,0.0,0.0,0.0,0.0,0.0,0.0,0.0,0.0,0.0,0.0,0.0,0.0,0.0,3.6717,3.6435,3.6911,3.7275,3.7494,3.751,3.751,3.751,3.751,3.751,3.751,3.751,3.751,3.751,3.751,3.751,3.751,3.751,3.751,3.751,3.751,3.7255,3.6907,3.6754,3.6242,3.5527,3.4854,3.4249,3.3805,4.0096,4.0096,0.0,4.0096,4.0096,4.035,4.1068,4.1255,4.2083,4.4242,4.5213,4.6532,4.8663,0.0,0.0,0.0,0.0,4.8148,4.8944,0.0,4.2875,4.3906,4.1099,3.9588,3.9698,3.8939,3.7836,3.637,3.7129,3.7098,3.6318,3.7116,3.706,3.6439,3.7905,3.8991,3.9784,4.0532,4.2102,4.4069,4.3362,4.3923,4.5035,0.0,4.4147,4.5397,4.5397,0.0,0.0,4.4535,4.4259,0.0,0.0,0.0,0.0,0.0,0.0,0.0,0.0,0.0,0.0,3.8979,0.0,0.0,0.0,0.0,3.7254,0.0,0.0,0.0,0.0,0.0,0.0,0.0,0.0,0.0,0.0,0.0,0.0,0.0,0.0,0.0,0.0,0.0,0.0,0.0,0.0,0.0,3.6371,3.6408,3.6769,3.7494,3.751,3.751,3.751,3.751,3.751,3.751,3.751,3.751,3.751,3.751,3.751,3.751,3.751,3.751,3.751,3.751,3.748,3.7421,3.6907,3.6693,3.6523,3.5559,3.4606,3.3805,0.0,0.0,0.0,0.0,0.0,4.0367,4.1085,4.2895,4.4637,4.5872,4.7124,0.0,0.0,5.076,5.0963,0.0,0.0,4.9859,4.9297,4.651,0.0,4.5598,4.2754,4.145,0.0,4.0233,3.8819,3.7818,3.7616,3.7098,3.6301,3.6577,3.7094,3.7836,3.8353,3.9876,0.0,0.0,0.0,0.0,0.0,4.4078,4.5345,0.0,0.0,4.5397,4.5397,4.5397,0.0,4.5104,4.4699,4.4121,4.312,4.243,4.1861,4.1119,4.0912,0.0,0.0,0.0,4.0653,3.9577,0.0,0.0,0.0,0.0,0.0,0.0,0.0,0.0,0.0,0.0,0.0,0.0,0.0,0.0,0.0,0.0,0.0,0.0,0.0,0.0,0.0,0.0,0.0,0.0,3.5331,0.0,0.0,3.6156,3.6753,3.7494,3.751,3.751,3.751,3.751,3.751,3.751,3.751,3.751,3.751,3.751,3.751,3.751,3.751,3.751,3.751,3.751,3.751,3.748,3.7285,3.6998,3.66,3.5591,3.5004,3.4639,4.0779,4.0607,0.0,0.0,4.0587,4.1086,4.1525,4.4185,4.6433,0.0,4.8585,0.0,5.2195,0.0,5.1911,0.0,5.2349,5.1429,4.9865,4.8514,0.0,4.7268,4.4923,0.0,0.0,4.1698,4.0008,3.8974,3.853,3.7749,3.6732,3.6991,3.7353,0.0,0.0,4.0014,4.2378,4.2413,4.3034,0.0,0.0,4.4561,0.0,0.0,4.5397,4.5397,0.0,4.5397,4.5397,4.5397,4.5096,4.4544,4.3828,4.3069,4.2275,4.1516,4.1119,4.0912,4.0912,4.0912,0.0,3.9888,3.9336,0.0,3.7737,0.0,0.0,0.0,0.0,0.0,0.0,0.0,0.0,0.0,0.0,0.0,0.0,0.0,0.0,0.0,0.0,0.0,0.0,0.0,3.5256,3.4601,3.4595,0.0,0.0,0.0,3.6374,3.7085,3.7368,3.751,3.751,3.751,3.751,3.751,3.751,3.751,3.751,3.751,3.751,3.751,3.751,3.751,3.751,3.751,3.751,3.751,3.751,3.7285,3.6877,3.5847,3.5234,3.482,4.1604,4.1074,0.0,4.0508,4.158,0.0,0.0,0.0,4.7282,0.0,4.9549,5.1014,5.251,5.2516,5.2705,5.3467,5.3634,5.2881,5.0909,5.0836,0.0,0.0,4.7562,4.6345,4.5587,0.0,0.0,0.0,3.9733,3.8939,3.753,3.8237,3.7749,0.0,3.7922,0.0,4.0998,4.2551,4.4044,4.5397,4.5397,4.5397,4.5397,4.5397,4.5397,4.5397,4.5397,4.5397,4.5397,4.5397,4.5397,4.5259,4.4527,4.3828,4.3086,4.2258,4.1516,4.0963,4.0912,4.0912,4.0722,3.9939,0.0,0.0,0.0,0.0,3.8439,0.0,0.0,0.0,0.0,0.0,0.0,0.0,0.0,0.0,0.0,0.0,0.0,0.0,0.0,0.0,0.0,3.5486,3.5023,3.4137,3.3833,0.0,0.0,0.0,3.571,3.6377,3.7117,3.751,3.751,3.751,3.751,3.751,3.751,3.751,3.751,3.751,3.751,3.751,3.751,3.751,3.751,3.751,3.751,3.751,3.751,3.748,3.7345,3.6305,3.5285,3.4448,4.177,4.2096,4.2517,0.0,4.2424,4.239,0.0,0.0,0.0,0.0,5.0482,5.2001,5.3471,5.3592,5.3645,5.3849,5.3882,0.0,0.0,0.0,0.0,5.2218,4.9654,4.8137,4.7931,4.5147,0.0,4.1405,0.0,3.8939,3.7512,3.7702,3.7581,0.0,0.0,0.0,4.0998,4.2551,4.4044,4.5397,4.5397,4.5397,0.0,0.0,4.5397,4.5397,4.5397,4.5397,4.5397,4.5397,4.5397,4.5259,4.4527,4.4173,4.3759,4.2413,4.1878,4.1602,4.105,4.0912,4.086,4.0653,4.0129,3.9595,0.0,0.0,0.0,0.0,0.0,0.0,0.0,0.0,0.0,0.0,0.0,0.0,0.0,0.0,0.0,0.0,0.0,0.0,0.0,0.0,3.4635,3.386,3.3565,0.0,0.0,0.0,0.0,3.6377,3.7117,3.751,3.751,3.751,3.751,3.751,3.751,3.751,3.751,3.751,3.751,3.751,3.751,3.751,3.751,3.751,3.751,3.751,3.751,3.7255,3.6816,3.6149,3.5512,3.4953,4.2823,4.3804,0.0,4.5558,0.0,0.0,4.5836,4.6959,0.0,4.9436,5.0925,0.0,5.3049,5.3652,5.398,5.398,5.4045,0.0,5.3264,0.0,0.0,5.2891,5.1563,5.0511,4.9809,4.7165,0.0,4.3017,0.0,0.0,3.7978,0.0,0.0,0.0,0.0,3.925,4.0532,4.2741,4.4147,4.4958,4.5259,0.0,0.0,4.5397,4.5397,4.5397,4.5397,4.5397,4.5397,4.5397,4.5397,4.5328,4.4906,4.4544,4.4138,4.3276,4.2534,4.1912,4.1498,4.1153,4.0912,4.0912,4.0567,4.0129,3.9767,3.9698,3.9577,0.0,0.0,0.0,0.0,0.0,0.0,0.0,0.0,0.0,0.0,0.0,0.0,0.0,0.0,0.0,0.0,0.0,0.0,0.0,0.0,0.0,0.0,0.0,0.0,3.5947,3.6658,3.7164,3.751,3.751,3.751,3.751,3.751,3.751,3.751,3.751,3.751,3.751,3.751,3.751,3.751,3.751,3.751,3.751,3.751,3.7315,3.6968,3.6445,3.58,3.5169,4.4483,0.0,0.0,0.0,0.0,0.0,0.0,4.9061,0.0,5.0012,0.0,5.2344,5.2344,5.3372,5.4063,5.4063,0.0,5.3705,5.2399,5.3676,5.3908,5.255,5.308,5.277,5.1442,4.9051,4.6786,0.0,0.0,0.0,3.8599,0.0,0.0,0.0,0.0,0.0,0.0,4.3034,4.4276,4.4492,4.5121,4.5397,4.5397,4.5397,4.5397,4.5397,4.5397,4.5397,4.5397,4.5397,4.5397,4.5397,4.5397,4.4958,4.4432,4.4328,4.3362,4.2275,4.2043,4.1533,4.1032,4.0929,4.0912,4.0722,4.0008,3.9853,3.9853,3.9853,3.9853,4.0026,0.0,0.0,0.0,0.0,0.0,0.0,0.0,0.0,0.0,0.0,0.0,0.0,0.0,0.0,0.0,0.0,0.0,0.0,0.0,0.0,0.0,3.5391,3.6058,3.6769,3.7494,0.0,3.751,3.751,3.751,3.751,3.751,3.751,3.751,3.751,3.751,3.751,3.751,3.751,3.751,3.751,3.751,3.751,3.745,3.6968,3.6211,3.5365,4.6182,0.0,0.0,0.0,0.0,5.0688,5.1249,5.1072,5.1055,5.1675,5.3087,5.4052,5.4052,5.4276,5.4416,5.4416,5.4431,0.0,0.0,0.0,0.0,5.4115,5.3649,5.327,5.3011,5.0102,4.781,0.0,0.0,0.0,3.8594,0.0,0.0,0.0,0.0,0.0,4.262,4.3155,0.0,4.5207,4.5345,4.5397,4.5397,4.5397,4.5397,4.5397,4.5397,4.5397,4.5397,4.5397,4.5397,4.5397,4.5397,4.5311,4.5096,4.4483,4.4121,4.3621,4.2361,4.1912,4.1671,4.105,4.0912,4.086,4.0722,4.0687,4.0687,4.0687,4.0687,4.0549,4.0008,0.0,0.0,0.0,0.0,0.0,0.0,0.0,0.0,0.0,0.0,0.0,0.0,0.0,0.0,0.0,0.0,0.0,0.0,0.0,0.0,0.0,3.6058,0.0,0.0,0.0,3.751,3.751,3.751,3.751,3.751,3.751,3.751,3.751,3.751,3.751,3.751,3.751,3.751,3.751,3.751,3.751,3.748,3.7375,3.6968,3.6336,4.8872,0.0,0.0,0.0,0.0,0.0,0.0,5.2856,5.2718,5.2239,5.2843,5.3322,5.3322,5.4029,5.4512,5.4512,5.4512,5.4512,5.4512,5.4512,5.4512,5.4512,5.4167,0.0,5.3408,5.1166,4.889,4.6613,0.0,0.0,0.0,0.0,0.0,0.0,0.0,4.0446,0.0,0.0,0.0,4.4872,4.5242,4.5397,4.5397,4.5397,4.5397,4.5397,4.5397,4.5397,4.5397,4.5397,4.5397,4.5397,4.5397,4.5397,4.5328,4.4975,4.4596,4.4138,4.3396,4.2913,4.2447,4.1671,4.1481,4.1378,4.0998,4.0912,4.0912,4.0912,4.0912,4.0653,3.9836,3.9094,0.0,0.0,0.0,0.0,0.0,0.0,0.0,0.0,0.0,0.0,0.0,0.0,0.0,0.0,0.0,0.0,0.0,0.0,0.0,0.0,0.0,0.0,0.0,0.0,0.0,3.751,3.751,3.751,3.751,3.751,3.751,3.751,3.751,3.751,3.751,3.751,3.751,3.751,3.751,3.751,3.751,3.751,3.7345,3.6968,0.0,5.1959,0.0,0.0,5.3115,0.0,5.3839,5.4512,5.4443,5.2877,5.267,5.267,5.267,5.3787,5.4512,5.4512,5.4512,5.4512,5.4512,5.4512,5.4512,5.4512,5.4512,5.4236,5.3649,5.2304,5.0114,0.0,0.0,0.0,0.0,0.0,0.0,0.0,0.0,0.0,0.0,0.0,4.4207,4.5044,4.5492,4.5656,4.5638,4.5466,4.5397,4.5397,4.5397,4.5397,4.5397,4.5397,4.5397,4.5397,4.5397,4.5397,4.5397,4.5397,4.4992,4.4492,4.4345,4.388,4.3241,4.2465,4.2137,4.1861,4.1274,4.1015,4.0912,4.0912,4.0912,4.0653,3.9836,3.9353,0.0,0.0,0.0,0.0,0.0,0.0,0.0,0.0,0.0,0.0,0.0,0.0,0.0,0.0,0.0,0.0,3.4284,3.4415,3.4702,0.0,0.0,3.5995,3.7243,0.0,3.751,3.751,3.751,3.751,3.751,3.751,3.751,3.751,3.751,3.751,3.751,3.751,3.751,3.751,3.751,3.751,3.751,3.751,3.751,3.7375,0.0,0.0,0.0,0.0,0.0,0.0,5.5305,5.6081,5.6029,5.4494,5.4287,5.4287,5.4287,5.4425,5.4512,5.4512,5.4512,5.4512,5.4512,5.4512,5.4512,5.4512,5.4512,5.4477,5.4408,5.3598,5.1683,0.0,0.0,4.4354,0.0,0.0,0.0,0.0,0.0,0.0,0.0,4.5156,4.6035,4.7338,4.6734,4.6493,4.6424,4.5673,4.5397,4.5397,4.5397,4.5397,4.5397,4.5397,4.5397,4.5397,4.5397,4.5397,4.5397,4.5397,4.5345,4.5139,4.4475,4.4259,4.4018,4.3276,4.2551,4.1999,4.1912,4.1395,4.0912,4.0912,4.0912,4.0653,3.9836,4.0233,4.0239,0.0,0.0,0.0,0.0,0.0,0.0,0.0,0.0,0.0,0.0,0.0,0.0,0.0,0.0,0.0,3.4738,3.3917,3.3731,3.4367,0.0,3.5758,3.6487,3.7164,3.751,3.751,3.751,3.751,3.751,3.751,3.751,3.751,3.751,3.751,3.751,3.751,3.751,3.751,3.751,3.751,3.751,3.751,3.751,3.7421,0.0,0.0,0.0,0.0,0.0,0.0,0.0,5.6598,5.6581,5.596,5.5477,5.5167,5.5167,5.477,5.4512,5.4512,5.4512,5.4512,5.4512,5.4512,5.4512,5.4512,5.4512,5.4512,5.4512,5.3787,5.2132,0.0,0.0,4.5544,4.2258,4.1464,0.0,0.0,0.0,4.4544,4.6104,4.6104,4.6724,4.7655,4.7389,4.701,4.6562,4.6224,4.5811,4.5397,4.5397,4.5397,4.5397,4.5397,4.5397,4.5397,4.5397,4.5397,4.5397,4.5397,4.5397,4.5328,4.5044,4.4958,4.4785,4.4052,4.3293,4.2603,4.212,4.1429,4.0912,4.0912,4.0912,4.0808,4.0498,4.0308,4.0152,0.0,0.0,0.0,0.0,0.0,0.0,0.0,0.0,0.0,0.0,0.0,0.0,0.0,0.0,0.0,0.0,3.4423,0.0,3.4765,0.0,3.5726,3.6393,3.7133,3.751,3.751,3.751,3.751,3.751,3.751,3.751,3.751,3.751,3.751,3.751,3.751,3.751,3.751,3.751,3.751,3.751,3.751,3.751,3.748,5.6805,0.0,5.6202,0.0,5.665,5.6546,5.734,5.7443,5.7443,5.7443,5.6771,5.6115,5.5635,5.515,5.4753,5.4529,5.4512,5.4512,5.4512,5.4512,5.4512,5.4512,5.4512,0.0,5.4512,5.3994,5.2718,5.0666,4.9327,0.0,4.4501,0.0,0.0,0.0,4.5303,4.631,4.7269,4.7269,4.7672,4.8372,4.8103,4.7707,4.7234,4.7027,4.6431,4.5742,4.5742,4.5604,4.5397,4.5397,4.5397,4.5397,4.5397,4.5397,4.5397,4.5397,4.5397,4.5397,4.5397,4.5397,4.5276,4.4751,4.4069,4.331,4.2534,4.1774,4.117,4.0946,4.0912,4.0912,4.0912,4.0446,4.0146,4.0498,0.0,0.0,0.0,0.0,0.0,0.0,3.7754,3.6904,3.6353,0.0,0.0,0.0,0.0,0.0,0.0,0.0,0.0,0.0,0.0,0.0,0.0,3.7133,3.751,3.751,3.751,3.751,3.751,3.751,3.751,3.751,3.751,3.751,3.751,3.751,3.751,3.751,3.751,3.751,3.751,3.751,3.751,3.751,5.6805,5.6788,5.7012,5.7771,5.7892,5.8133,5.8875,5.8978,5.8978,5.8978,5.834,5.7305,5.5788,5.5583,5.5305,5.4563,5.4512,5.4512,5.4512,5.4512,5.4512,0.0,0.0,5.4512,5.4512,5.4494,5.3736,5.2153,0.0,0.0,4.7603,0.0,4.5776,4.6562,4.6596,4.7396,4.8758,4.8758,4.9223,4.9907,4.9103,4.8775,4.8689,4.7948,4.7234,4.6596,4.6596,4.6069,4.5397,4.5397,4.5397,4.5397,4.5397,4.5397,4.5397,4.5397,4.5397,4.5397,4.5397,4.5397,4.5397,4.538,4.4837,4.4087,4.3345,4.2568,4.1792,4.105,4.0912,4.0912,4.0912,4.0894,4.0636,3.9836,0.0,0.0,0.0,0.0,0.0,0.0,3.7249,3.6318,3.6301,0.0,0.0,0.0,0.0,0.0,0.0,0.0,0.0,3.43,3.5015,0.0,3.6393,3.7133,3.751,3.751,3.751,3.751,3.751,3.751,3.751,3.751,3.751,3.751,3.751,3.751,3.751,3.751,3.751,3.751,3.751,3.751,3.751,3.751,5.8305,5.8305,5.8374,5.8616,5.8668,5.8737,5.8978,5.9012,5.9012,5.9012,5.8806,5.8288,5.7288,5.6236,5.5529,0.0,5.4805,5.4512,0.0,5.4512,5.4512,5.4512,5.4512,5.4512,5.4512,5.4512,5.4011,5.3028,0.0,0.0,0.0,4.7948,4.7844,4.8103,4.8683,4.9183,4.9631,4.9631,4.9769,4.9993,4.9735,4.9304,4.8758,4.8534,4.7982,4.7345,4.7345,4.7172,4.6965,4.6965,4.6621,4.6207,4.6207,4.5828,4.5397,4.5397,4.5397,4.5397,4.5397,4.5397,4.5397,4.5397,4.4854,4.4242,4.4,4.2948,4.1809,4.105,4.0912,4.0912,4.0912,4.0912,4.0825,4.0567,4.0739,0.0,0.0,0.0,0.0,0.0,3.8163,3.7456,0.0,3.7249,0.0,0.0,0.0,0.0,0.0,0.0,0.0,0.0,3.5653,0.0,3.6393,3.7133,3.751,3.751,3.751,3.751,3.751,3.751,3.751,3.751,3.751,3.751,3.751,3.751,3.751,3.751,3.751,3.751,3.751,3.751,3.751,3.751,5.9012,5.9012,5.9012,5.9012,5.9012,5.9012,5.9012,5.9012,5.9012,5.9012,5.9012,5.8823,5.8374,5.7219,0.0,5.5635,5.5184,5.4805,5.4529,5.4512,5.4512,5.4512,5.4512,5.4512,5.4512,5.4512,0.0,5.3822,5.3046,5.1787,5.0068,4.9775,4.9516,4.9258,4.9786,5.0011,5.0011,5.0011,5.0011,5.0011,5.0011,4.9717,4.924,4.924,4.8775,4.8103,4.8103,4.7931,4.7689,4.7689,4.7407,4.7,4.7,4.6655,4.6138,4.5569,4.5397,4.5397,4.5397,4.5397,4.5397,4.5397,4.5061,4.463,4.4363,4.3345,4.224,4.1481,4.1326,4.124,4.0963,4.0912,4.0912,4.0912,4.0912,4.0912,4.0912,0.0,0.0,0.0,0.0,0.0,0.0,3.8025,3.8301,0.0,0.0,0.0,0.0,0.0,0.0,3.561,3.6118,0.0,3.6817,3.7259,3.751,3.751,3.751,3.751,3.751,3.751,3.751,3.751,3.751,3.751,3.751,3.751,3.751,3.751,3.751,3.751,3.751,3.751,3.751,3.751,5.9012,5.9012,5.9012,0.0,5.9012,0.0,5.9012,5.9012,5.9012,5.9012,5.9012,5.9012,5.9012,5.8392,5.7391,5.5908,0.0,0.0,0.0,5.4546,5.4512,5.4512,5.4512,5.4512,5.4512,5.4512,5.4512,5.4512,5.377,5.3028,5.2257,5.1498,5.0821,5.0149,5.0097,5.008,5.008,5.0028,5.0011,5.0011,5.0011,5.0011,5.0011,5.0011,4.9545,4.8879,4.8879,4.843,4.7872,4.7872,4.781,4.7758,4.7758,4.7724,4.7396,4.5914,4.5483,4.5466,4.5414,4.5397,4.5397,4.5397,4.5397,4.5207,4.4483,4.3776,4.3051,4.2258,4.205,4.1809,4.1101,4.0929,4.0912,4.0912,4.0912,4.0912,4.0912,0.0,0.0,0.0,0.0,0.0,0.0,3.872,3.9014,0.0,0.0,0.0,0.0,0.0,3.617,3.6447,3.6469,3.6801,3.7524,3.751,3.751,3.751,3.751,3.751,3.751,3.751,3.751,3.751,3.751,3.751,3.751,3.751,3.751,3.751,3.751,3.751,3.751,3.751,3.7541,3.7589,0.0,0.0,5.9012,5.9012,5.9012,5.9012,5.9012,5.9012,5.9012,5.9012,5.9012,5.9012,5.9012,5.8857,5.8374,5.7443,5.6288,5.5546,5.5357,5.4822,5.4512,5.4512,5.4512,5.4512,5.4512,5.4512,5.4512,5.4512,5.377,5.3304,5.3115,5.2321,5.1843,5.1636,5.1097,5.0856,5.0804,5.0252,5.0011,5.0011,5.0011,5.0011,5.0011,5.0011,4.989,4.9735,4.9735,4.9614,4.9476,4.9476,4.9062,4.8534,4.8534,4.8137,4.7527,4.6596,4.6337,4.6173,4.5569,4.5397,4.5397,4.5397,4.5397,4.5207,4.4483,4.4173,4.3828,4.3069,4.243,4.1964,4.1774,4.1291,4.0912,4.0912,4.0912,4.0912,4.0912,4.0739,0.0,0.0,4.0077,3.9894,3.8698,3.9755,4.0078,0.0,0.0,0.0,0.0,3.7935,3.7337,3.6805,3.7089,3.7408,3.7815,3.7612,3.751,3.751,3.751,3.751,3.751,3.751,3.751,3.751,3.751,3.751,3.751,3.751,3.751,3.751,3.751,3.751,3.751,3.751,3.7812,3.827,5.9012,5.9012,5.9012,5.9012,5.9012,5.9012,5.9012,5.9012,5.9012,5.9012,5.9012,5.9012,5.9012,5.9012,5.8857,5.8443,5.734,5.6357,5.5667,5.5236,5.4856,5.4529,5.4512,5.4512,5.4512,5.4512,5.4512,5.4512,5.4098,5.3736,5.3391,5.2959,5.2532,5.217,5.1774,5.1614,5.1597,5.1183,5.1028,5.1028,5.1028,5.1028,5.1028,5.1028,5.0804,5.0511,5.0511,5.0304,5.0011,5.0011,4.9717,4.9355,4.9355,4.9079,4.8614,4.781,4.7389,4.7,4.6569,4.6207,4.5845,4.5483,4.5397,4.5294,4.4889,4.4803,4.4578,4.3845,4.3362,4.2948,4.262,4.193,4.1412,4.1412,4.1119,4.0912,4.0912,4.0912,0.0,4.0284,4.0636,4.0607,3.9824,4.0562,4.077,3.9948,3.974,0.0,3.9219,3.8599,3.8041,3.7585,3.7799,3.7918,3.7915,3.7626,3.751,3.751,3.751,3.751,3.751,3.751,3.751,3.751,3.751,3.751,3.751,3.751,3.77,3.7954,3.7954,3.8128,3.8397,3.8397,3.8634,3.8965,5.9012,5.9012,5.9012,5.9012,5.9012,5.9012,5.9012,5.9012,5.9012,5.9012,5.9012,5.9012,5.9012,5.9012,5.9012,5.9012,5.8443,5.746,5.6046,5.5857,5.5512,5.4874,5.4736,5.4684,5.4684,5.4563,5.4512,5.4512,5.4512,5.4184,5.358,5.358,5.3201,5.2532,5.2412,5.236,5.236,5.2239,5.2188,5.2188,5.2188,5.2188,5.2188,5.2188,5.1791,5.1287,5.1287,5.0873,5.0338,5.0338,5.0338,5.0321,5.02,5.0183,5.0045,4.9344,4.862,4.801,4.7741,4.7155,4.6458,4.5742,4.5483,4.5397,4.5397,4.5397,4.5207,4.4596,4.438,4.4121,4.3483,4.262,4.2016,4.2016,4.1395,4.0912,4.0912,0.0,4.0912,4.0935,4.0935,4.0982,4.1117,4.114,4.1146,4.114,4.0358,3.9859,3.9825,3.9007,3.8532,3.8532,3.8464,3.8234,3.7915,3.7685,3.7524,3.751,3.751,3.751,3.751,3.751,3.751,3.751,3.751,3.7573,3.7668,3.7668,3.8049,3.8665,3.8665,3.9013,3.9503,3.9503,3.9566,3.9677,5.9012,5.9012,5.9012,5.9012,5.9012,5.9012,5.9012,5.9012,5.9012,5.9012,5.9012,5.9012,5.9012,5.9012,5.9012,5.9012,5.8909,5.8478,5.7598,5.696,5.6564,5.646,5.5805,5.5443,5.5443,5.4822,5.4512,5.4512,5.4512,5.4443,5.4339,5.4339,5.427,5.4132,5.3494,5.3218,5.3166,5.2511,5.2188,5.2188,5.2188,5.2188,5.2188,5.2188,5.2119,5.2015,5.2015,5.1946,5.1873,5.1873,5.1873,5.177,5.1132,5.0942,5.0907,5.0787,5.0235,4.9373,4.8062,4.7155,4.6579,4.6458,4.5897,4.5397,4.5397,4.5397,4.5363,4.5242,4.4734,4.4276,4.4156,4.2965,4.2016,4.2016,4.1395,4.0912,4.0912,0.0,4.0935,4.1047,4.107,4.1099,4.118,4.129,4.1226,4.089,4.0521,4.017,3.991,3.9415,3.9164,3.9164,3.8672,3.8234,3.7915,3.7857,3.7727,3.751,3.751,3.751,3.751,3.751,3.751,3.751,3.751,3.7812,3.8349,3.8349,3.8744,3.9345,3.9345,3.9408,3.9503,3.9503,3.9898,4.0435,5.9012,5.9012,5.9012,5.9012,5.9012,5.9012,5.9012,5.9012,5.9012,5.9012,5.9012,5.9012,5.9012,5.9012,5.9012,5.9012,5.9012,5.8875,5.853,5.7805,5.7219,5.6822,5.6443,5.6253,5.6253,5.5495,5.5098,5.5098,5.4701,5.4512,5.4512,5.4512,5.4512,5.4494,5.4149,5.3994,5.3977,5.3615,5.346,5.346,5.346,5.346,5.346,5.346,5.3201,5.2856,5.2856,5.258,5.2188,5.2188,5.2188,5.2136,5.1791,5.1425,5.1114,5.1114,5.0597,4.9855,4.9148,4.8096,4.7276,4.77,4.7207,4.6638,4.6638,4.6638,4.6638,4.6638,4.6061,4.5527,4.5527,4.4294,4.3241,4.3241,4.2275,0.0,0.0,4.1242,4.1029,4.1152,4.1152,4.118,4.1295,4.1363,4.134,4.1232,4.0913,4.0556,4.0204,3.9816,3.9511,3.9299,3.8849,3.8528,3.8399,3.8059,3.8019,3.8241,3.8108,3.8223,3.857,3.857,3.857,3.857,3.857,3.8744,3.9044,3.9044,3.9455,4.0087,4.0087,4.0309,4.0625,4.0625,4.0846,4.113,5.9012,5.9012,5.9012,5.9012,5.9012,5.9012,5.9012,5.9012,5.9012,5.9012,5.9012,5.9012,5.9012,5.9012,5.9012,5.9012,5.9012,5.9012,5.9012,5.8478,5.7909,5.734,5.715,5.6978,5.6805,5.6202,5.5805,5.5615,5.5046,5.4684,5.4512,5.4512,5.4512,5.4512,5.4512,5.4512,5.4512,5.4512,5.4512,5.4512,5.4512,5.4512,5.4512,5.4512,5.4149,5.3667,5.3667,5.327,5.2722,5.2722,5.2722,5.2687,5.2515,5.2097,5.1614,5.1425,5.0838,5.0235,5.0062,4.901,4.8086,4.8654,4.8241,4.7689,4.7689,4.7689,4.7689,4.7689,4.7269,4.6872,4.6872,4.5596,4.457,4.4595,0.0,0.0,0.0,4.2042,4.1707,4.1772,4.1795,4.1841,4.1973,4.1973,4.1973,4.1978,4.1551,4.1054,4.0574,4.013,3.9787,3.9547,3.9314,3.9232,3.9313,3.8845,3.8801,3.9152,3.8942,3.9075,3.9503,3.9503,3.9503,3.9503,3.9503,3.9598,3.9756,3.9756,4.0182,4.083,4.083,4.1146,4.1588,4.1588,4.1588,4.1588,5.9012,5.9012,5.9012,5.9012,5.9012,5.9012,5.9012,5.9012,5.9012,5.9012,5.9012,5.9012,5.9012,5.9012,5.9012,5.9012,5.9012,5.9012,5.9012,5.8961,5.8909,5.8857,5.8185,5.7495,5.6805,5.6736,5.6357,5.5615,5.5563,5.5184,5.4512,5.4512,5.4512,5.4512,5.4512,5.4512,5.4512,5.4512,5.4512,5.4512,5.4512,5.4512,5.4512,5.4512,5.4477,5.4425,5.4425,5.4391,5.4339,5.4339,5.4339,5.4218,5.3529,5.327,5.308,5.2326,5.1614,5.0873,5.02,4.939,4.8723,4.8775,4.8241,4.7689,4.7689,4.7689,4.7689,4.7689,4.7655,4.7603,4.7603,4.6345,4.5363,4.5494,0.0,0.0,4.3471,4.3443,4.3439,4.3517,4.3517,4.3564,4.3705,4.3728,4.357,4.3194,4.2528,4.1773,4.1017,4.0263,4.0038,4.031,4.0299,4.0474,4.082,4.0791,4.0485,3.9918,3.9887,3.9766,3.9503,3.9503,3.9503,3.9503,3.9503,3.9882,4.0514,4.0514,4.0909,4.1525,4.1525,4.1541,4.1588,4.1588,4.1588,4.1588,5.9012,5.9012,5.9012,5.9012,5.9012,5.9012,5.9012,5.9012,5.9012,5.9012,5.9012,5.9012,5.9012,5.9012,5.9012,5.9012,5.9012,5.9012,5.9012,5.9012,5.9012,5.9012,5.8737,5.8461,5.8185,5.7719,5.734,5.7029,5.6581,5.596,5.5184,5.5184,5.496,5.4512,5.4512,5.4512,5.4512,5.4512,5.4512,5.4512,5.4512,5.4512,5.4512,5.4512,5.4512,5.4512,5.4512,5.4512,5.4512,5.4512,5.4512,5.446,5.4184,5.377,5.3253,5.2429,5.1981,5.1632,5.089,5.0149,4.9666,5.0102,4.9683,4.9131,4.9131,4.9131,4.9131,4.9131,4.8836,4.8564,4.8564,4.7382,4.6421,4.6474,0.0,4.4254,4.4394,4.3982,4.3692,4.3793,4.3816,4.384,4.3904,4.3904,4.384,4.368,4.3395,4.2909,4.2082,4.1275,4.1111,4.169,4.1707,4.1567,4.1255,4.088,4.0767,4.0931,4.0545,4.0531,4.0798,4.0798,4.0798,4.0798,4.0798,4.0956,4.1209,4.1209,4.1367,4.1588,4.1588,4.1588,4.1588,4.1588,4.1588,4.1588,5.9012,5.9012,5.9012,5.9012,5.9012,5.9012,5.9012,5.9012,5.9012,5.9012,5.9012,5.9012,5.9012,5.9012,5.9012,5.9012,5.9012,5.9012,5.9012,5.9012,5.9012,5.9012,5.9012,5.9012,5.9012,5.8512,5.8133,5.7909,5.7391,5.6736,5.5995,5.5995,5.5719,5.5219,5.496,5.4856,5.4839,5.4615,5.4512,5.4512,5.4512,5.4512,5.4512,5.4512,5.4512,5.4512,5.4512,5.4512,5.4512,5.4512,5.4512,5.4512,5.4512,5.4149,5.3598,5.2822,5.2597,5.2425,5.1636,5.1127,5.0776,5.0752,5.0373,4.9993,5.0051,5.008,5.008,5.0138,4.979,4.951,4.951,4.8533,4.7744,4.7779,4.6489,4.5528,4.567,4.4988,4.4528,4.46,4.4624,4.4624,4.4624,4.4624,4.4624,4.4624,4.4277,4.3603,4.255,4.1999,4.1976,4.2473,4.2704,4.2589,4.2092,4.1668,4.1615,4.1842,4.1421,4.1357,4.1588,4.1588,4.1588,4.1588,4.1588,4.1588,4.1588,4.1588,4.1588,4.1588,4.1588,4.1588,4.1588,4.1588,4.1588,4.1588,5.9012,5.9012,5.9012,5.9012,5.9012,5.9012,5.9012,5.9012,5.9012,5.9012,5.9012,5.9012,5.9012,5.9012,5.9012,5.9012,5.9012,5.9012,5.9012,5.9012,5.9012,5.9012,5.9012,5.9012,5.9012,5.9012,5.865,5.7909,5.7909,5.7529,5.6805,5.6805,5.6805,5.6771,5.5977,5.5615,5.5581,5.4839,5.4529,5.4529,5.4529,5.4529,5.4529,5.4529,5.4529,5.4529,5.4529,5.4512,5.4512,5.4512,5.4512,5.4512,5.4512,5.4512,5.4374,5.3632,5.3408,5.3235,5.2442,5.2356,5.2099,5.0419,5.0011,5.004,5.016,5.0189,5.0246,5.0369,5.0415,5.0415,5.0415,4.9806,4.9356,4.9474,4.8207,4.7245,4.7397,4.6705,4.6214,4.6214,4.6196,4.6196,4.6196,4.6196,4.6196,4.6196,4.509,4.3709,4.2099,4.2332,4.2506,4.2506,4.3218,4.3598,4.3598,4.3598,4.3265,4.2617,4.2617,4.2238,4.1588,4.1588,4.1588,4.1588,4.1588,4.1588,4.1588,4.1588,4.1588,4.1588,4.1588,4.1588,4.1588,4.1588,4.1588,4.1588,5.9012,5.9012,5.9012,5.9012,5.9012,5.9012,5.9012,5.9012,5.9012,5.9012,5.9012,5.9012,5.9012,5.9012,5.9012,5.9012,5.9012,5.9012,5.9012,5.9012,5.9012,5.9012,5.9012,5.9012,5.9012,5.9012,5.8909,5.8685,5.8685,5.8305,5.7581,5.7581,5.7305,5.6788,5.6546,5.6443,5.6426,5.6219,5.6115,5.6115,5.6115,5.6115,5.6115,5.6115,5.6115,5.6046,5.5477,5.5288,5.5201,5.4684,5.4512,5.4512,5.4512,5.4623,5.4683,5.4458,5.4464,5.4365,5.3601,5.344,5.3075,5.1338,5.1003,5.0997,5.0452,5.0359,5.0359,5.0387,5.0464,5.0547,5.0547,5.0018,4.9591,4.9644,4.8785,4.8136,4.8162,4.752,4.7046,4.7046,4.653,4.6196,4.6196,4.6196,4.6196,4.6196,4.5304,4.4429,4.3648,4.3398,4.3267,4.3267,4.3482,4.3598,4.3598,4.3372,4.3035,4.2617,4.2349,4.2029,4.1588,4.1588,4.1588,4.1588,4.1588,4.1588,4.1588,4.1588,4.1588,4.1588,4.1588,4.1588,4.1588,4.1588,4.1588,4.1588,5.9012,5.9012,5.9012,5.9012,5.9012,5.9012,5.9012,5.9012,5.9012,5.9012,5.9012,5.9012,5.9012,5.9012,5.9012,5.9012,5.9012,5.9012,5.9012,5.9012,5.9012,5.9012,5.9012,5.9012,5.9012,5.9012,5.9012,5.9012,5.9012,5.8788,5.834,5.834,5.8116,5.7667,5.7374,5.7236,5.7219,5.6926,5.6805,5.6805,5.6805,5.6805,5.6805,5.6805,5.6821,5.6817,5.6253,5.6113,5.6092,5.5596,5.5233,5.5055,5.515,5.5053,5.4886,5.4886,5.4948,5.4887,5.4465,5.4356,5.4089,5.2735,5.2213,5.1923,5.1481,5.1388,5.1329,5.1088,5.1102,5.1052,5.0782,5.0415,5.0153,5.0153,4.9486,4.8977,4.8977,4.8328,4.7836,4.7836,4.7407,4.6986,4.6688,4.6653,4.6405,4.5727,4.5205,4.4635,4.4035,4.3759,4.3598,4.3598,4.3598,4.3598,4.3598,4.3402,4.3143,4.2772,4.2476,4.2126,4.1785,4.1654,4.1588,4.1588,4.1588,4.1588,4.1588,4.1588,4.1588,4.1588,4.1588,4.1588,4.1588,4.1588,4.1588,4.1588,5.9012,5.9012,5.9012,5.9012,5.9012,5.9012,5.9012,5.9012,5.9012,5.9012,5.9012,5.9012,5.9012,5.9012,5.9012,5.9012,5.9012,5.9012,5.9012,5.9012,5.9012,5.9012,5.9012,5.9012,5.9012,5.9012,5.9012,5.9012,5.9012,5.9012,5.9012,5.9012,5.9012,5.8995,5.8305,5.8046,5.7994,5.7321,5.7028,5.7028,5.7028,5.7028,5.7028,5.7028,5.7127,5.7222,5.7007,5.7006,5.7119,5.6904,5.6485,5.6073,5.6248,5.5823,5.5214,5.5144,5.5127,5.514,5.507,5.5126,5.5072,5.4378,5.3573,5.2939,5.2916,5.2909,5.2774,5.2232,5.2119,5.1909,5.1224,5.1031,5.0996,5.0996,5.0311,4.9811,4.9811,4.9118,4.8626,4.8626,4.853,4.8257,4.7555,4.7432,4.6733,4.5118,4.5012,4.4626,4.3741,4.3747,4.3797,4.3797,4.3797,4.3797,4.3797,4.3797,4.3564,4.3113,4.2772,4.2428,4.2077,4.1785,4.1621,4.1588,4.1588,4.1588,4.1588,4.1588,4.1588,4.1588,4.1588,4.1588,4.1588,4.1588,4.1588,4.1588,5.9012,5.9012,5.9012,5.9012,5.9012,5.9012,5.9012,5.9012,5.9012,5.9012,5.9012,5.9012,5.9012,5.9012,5.9012,5.9012,5.9012,5.9012,5.9012,5.9012,5.9012,5.9012,5.9012,5.9012,5.9012,5.9012,5.9012,5.9012,5.9012,5.9012,5.9012,5.9012,5.9081,5.9234,5.9078,5.9076,5.921,5.9054,5.8984,5.8984,5.8984,5.8984,5.8984,5.8984,5.9017,5.8963,5.8305,5.8079,5.8007,5.7416,5.7086,5.6979,5.7059,5.7067,5.6934,5.6287,5.6186,5.6137,5.5546,5.5401,5.5396,5.5238,5.5033,5.4577,5.3397,5.3144,5.3092,5.2962,5.2927,5.2902,5.2744,5.219,5.1768,5.1768,5.1119,5.0627,5.0627,4.9943,4.9434,4.9434,4.8889,4.8425,4.8293,4.7731,4.696,4.5915,4.577,4.5376,4.4517,4.5003,4.5317,4.5317,4.5317,4.5317,4.5317,4.5317,4.4585,4.3113,4.3035,4.2664,4.2109,4.2013,4.1851,4.1588,4.1588,4.1588,4.1588,4.1588,4.1588,4.1588,4.1588,4.1588,4.1588,4.1588,4.1588,4.1588,5.9012,5.9012,5.9012,5.9012,5.9012,5.9012,5.9012,5.9012,5.9012,5.9012,5.9012,5.9012,5.9012,5.9012,5.9012,5.9012,5.9012,5.9012,5.9012,5.9012,5.9012,5.9012,5.9081,5.9132,5.9132,5.9234,5.92,5.9012,5.9098,5.9132,5.9166,5.9234,5.9352,5.9419,5.9419,5.9504,5.9621,5.9621,5.9621,5.9621,5.9621,5.9621,5.9621,5.9621,5.9636,5.9615,5.9166,5.8961,5.8925,5.8587,5.8253,5.7988,5.8069,5.7919,5.7613,5.7193,5.6851,5.6526,5.6139,5.5771,5.5507,5.5507,5.5507,5.5297,5.4472,5.4296,5.4191,5.3805,5.3717,5.3612,5.3271,5.2857,5.2576,5.2576,5.1926,5.1417,5.1417,5.075,5.0259,5.0259,4.989,4.9486,4.9118,4.838,4.7544,4.6702,4.6573,4.6172,4.5263,4.5582,4.5798,4.5798,4.5798,4.5798,4.5798,4.5798,4.5338,4.4393,4.3863,4.3161,4.2317,4.2158,4.1916,4.1588,4.1588,4.1588,4.1588,4.1588,4.1588,4.1588,4.1588,4.1588,4.1588,4.1588,4.1588,4.1588,5.9012,5.9012,5.9012,5.9012,5.9012,5.9012,5.9012,5.9012,5.9047,5.9047,5.9081,5.9081,5.9064,5.9012,5.9012,5.9098,5.9081,5.9047,5.9081,5.9081,5.9047,5.9081,5.9234,5.9319,5.9352,5.9504,5.9437,5.9081,5.9268,5.9352,5.9352,5.9537,5.9603,5.9636,5.9636,5.9669,5.9669,5.9669,5.9669,5.9669,5.9669,5.9669,5.9669,5.9669,5.9733,5.9846,5.9718,5.9669,5.9702,5.9814,5.9426,5.8969,5.9131,5.8737,5.8176,5.8053,5.7526,5.6947,5.6666,5.6157,5.5665,5.5543,5.5507,5.5507,5.5507,5.5507,5.5314,5.4647,5.4507,5.4314,5.3699,5.3471,5.3394,5.3394,5.2716,5.2172,5.2004,5.147,5.1031,5.0908,5.0891,5.0627,4.9987,4.9188,4.8328,4.7444,4.7404,4.6997,4.6043,4.6096,4.6179,4.6179,4.6179,4.6179,4.6179,4.6179,4.6096,4.598,4.5087,4.4115,4.3052,4.259,4.2188,4.1861,4.1669,4.1588,4.1588,4.1588,4.1588,4.1588,4.1588,4.1588,4.1588,4.1588,4.1588,4.1588,5.9012,5.9012,5.9012,5.9012,5.9012,5.9012,5.9012,5.9166,5.9268,5.9268,5.9419,5.947,5.9285,5.9081,5.9132,5.9504,5.9352,5.9352,5.9504,5.9352,5.9352,5.9504,5.9386,5.9386,5.957,5.9588,5.957,5.9504,5.9537,5.957,5.957,5.9588,5.9652,5.9764,5.9764,5.9879,6.0025,6.0025,6.0025,6.0025,6.0025,6.0025,6.0025,6.0025,6.0025,6.0057,6.0025,6.0025,6.0043,6.0057,5.9987,5.9917,5.9949,5.9879,5.965,5.9018,5.8773,5.8386,5.6982,5.6526,5.6297,5.5665,5.5507,5.5507,5.5507,5.5507,5.5472,5.5367,5.5349,5.5314,5.5227,5.463,5.4156,5.4156,5.3506,5.2786,5.2119,5.1926,5.161,5.0978,5.0891,5.0855,5.0733,4.9995,4.9139,4.8208,4.8155,4.7759,4.6806,4.7355,4.7703,4.7703,4.7703,4.7703,4.7703,4.7703,4.7388,4.6742,4.6611,4.599,4.49,4.3944,4.3299,4.2924,4.2022,4.1588,4.1588,4.1588,4.1588,4.1588,4.1588,4.1588,4.1588,4.1588,4.1588,4.1588,5.9319,5.9352,5.9352,5.9352,5.9352,5.9352,5.9352,5.9419,5.947,5.947,5.9537,5.9685,5.994,6.0093,6.0125,5.999,5.9893,5.9781,5.9603,5.9504,5.9504,5.9588,5.9569,5.9617,5.97,5.9816,5.9881,5.9881,5.9766,5.97,5.97,5.9849,5.9896,5.9975,5.9975,6.0025,6.0089,6.0089,6.0089,6.0089,6.0089,6.0089,6.0089,6.0089,6.0089,6.0089,6.0089,6.0089,6.0089,6.0089,6.0089,6.0089,6.0089,6.0089,6.0036,5.9703,5.9334,5.8843,5.8141,5.7614,5.7087,5.6315,5.6122,5.6017,5.5595,5.5507,5.5507,5.5507,5.5507,5.5507,5.5507,5.5227,5.4981,5.4981,5.4314,5.3682,5.3348,5.2927,5.2383,5.161,5.1523,5.1347,5.0926,5.0575,4.9976,4.8995,4.8907,4.8504,4.7568,4.7819,4.8001,4.8001,4.8001,4.8001,4.8001,4.8001,4.7835,4.7504,4.7504,4.6747,4.5275,4.461,4.4138,4.3791,4.3085,4.2774,4.2774,4.2774,4.2774,4.2742,4.2347,4.1952,4.1588,4.1588,4.1588,4.1588]}]]